[[{"header":{"parameterUnit":"m.s-1","parameterCategory":1,"la1":30.6,"la2":29.2853,"lo1":-89.7004,"lo2":-87.6739,"dy":0.0162,"dx":0.0183,"nx":112,"ny":82,"refTime":"2024-02-27T18:00:00:Z","depth":0,"parameterNumber":2,"parameterNumberName":"U-component_of_WINDS"},"data":[0.0,0.0,0.0,0.0,0.0,0.0,0.0,0.0,0.0,0.0,0.0,0.0,0.0,0.0,0.0,0.0,0.0,0.0,0.0,0.0,0.0,0.0,0.0,0.0,0.0,0.0,0.0,0.0,0.0,0.0,0.0,0.0,0.0,0.0,0.0,0.0,0.0,0.0,0.0,0.0,0.0,0.0,0.0,0.0,0.0,0.0,0.0,0.0,0.0,0.0,0.0,0.0,0.0,0.0,0.0,0.0,0.0,0.0,0.0,0.0,0.0,0.0,0.0,0.0,0.0,0.0,0.0,0.0,0.0,0.0,0.0,0.0,0.0,0.0,0.0,0.0,0.0,0.0,0.0,0.0,0.0,0.0,0.0,0.0,0.0,0.0,0.0,0.0,0.0,0.0,-3.2437,-3.2437,-3.1881,-3.1511,-3.1511,-3.1511,-3.1768,-3.2382,0.0,0.0,0.0,0.0,0.0,0.0,0.0,0.0,0.0,0.0,0.0,0.0,0.0,0.0,0.0,0.0,0.0,0.0,0.0,0.0,0.0,0.0,0.0,0.0,0.0,0.0,0.0,0.0,0.0,0.0,0.0,0.0,0.0,0.0,0.0,0.0,0.0,0.0,0.0,0.0,0.0,0.0,0.0,0.0,0.0,0.0,0.0,0.0,0.0,0.0,0.0,0.0,0.0,0.0,0.0,0.0,0.0,0.0,0.0,0.0,0.0,0.0,0.0,0.0,0.0,0.0,0.0,0.0,0.0,0.0,0.0,0.0,0.0,0.0,0.0,0.0,0.0,0.0,0.0,0.0,0.0,0.0,0.0,0.0,0.0,0.0,0.0,0.0,0.0,0.0,0.0,0.0,0.0,0.0,0.0,0.0,0.0,0.0,0.0,0.0,0.0,0.0,0.0,0.0,-3.1668,-3.1668,-3.1553,-3.1511,-3.1511,-3.1511,-3.1553,-3.1668,0.0,0.0,0.0,0.0,0.0,0.0,0.0,0.0,0.0,0.0,0.0,0.0,0.0,0.0,0.0,0.0,0.0,0.0,0.0,0.0,0.0,0.0,0.0,0.0,0.0,0.0,0.0,0.0,0.0,0.0,0.0,0.0,0.0,0.0,0.0,0.0,0.0,0.0,0.0,0.0,0.0,0.0,0.0,0.0,0.0,0.0,0.0,0.0,0.0,0.0,0.0,0.0,0.0,0.0,0.0,0.0,0.0,0.0,0.0,0.0,0.0,0.0,0.0,0.0,0.0,0.0,0.0,0.0,0.0,0.0,0.0,0.0,0.0,0.0,0.0,0.0,0.0,0.0,0.0,0.0,0.0,0.0,0.0,0.0,0.0,0.0,0.0,0.0,0.0,0.0,0.0,0.0,0.0,0.0,0.0,0.0,0.0,0.0,0.0,0.0,0.0,0.0,0.0,-3.1726,-3.1511,-3.1511,-3.1511,-3.1511,-3.1511,-3.1511,-3.1511,-3.1511,-3.1511,0.0,0.0,0.0,0.0,0.0,0.0,0.0,0.0,0.0,0.0,0.0,0.0,0.0,0.0,0.0,0.0,0.0,0.0,0.0,0.0,0.0,0.0,0.0,0.0,0.0,0.0,0.0,0.0,0.0,0.0,0.0,0.0,0.0,0.0,0.0,0.0,0.0,0.0,0.0,0.0,0.0,0.0,0.0,0.0,0.0,0.0,0.0,0.0,0.0,0.0,0.0,0.0,0.0,0.0,0.0,0.0,0.0,0.0,0.0,0.0,0.0,0.0,0.0,0.0,0.0,0.0,0.0,0.0,0.0,0.0,0.0,0.0,0.0,0.0,0.0,0.0,0.0,0.0,0.0,0.0,0.0,0.0,0.0,0.0,0.0,0.0,0.0,0.0,0.0,0.0,0.0,0.0,0.0,0.0,0.0,0.0,0.0,0.0,0.0,0.0,0.0,0.0,-3.1511,-3.1511,-3.1511,-3.1511,-3.1511,-3.1511,-3.1511,-3.1511,-3.1511,-3.1511,0.0,0.0,0.0,0.0,0.0,0.0,0.0,0.0,0.0,0.0,0.0,0.0,0.0,0.0,0.0,0.0,0.0,0.0,0.0,0.0,0.0,0.0,0.0,0.0,0.0,0.0,0.0,0.0,0.0,0.0,0.0,0.0,0.0,0.0,0.0,0.0,0.0,0.0,0.0,0.0,0.0,0.0,0.0,0.0,0.0,0.0,0.0,0.0,0.0,0.0,0.0,0.0,0.0,0.0,0.0,0.0,0.0,0.0,0.0,0.0,0.0,0.0,0.0,0.0,0.0,0.0,0.0,0.0,0.0,0.0,0.0,0.0,0.0,0.0,0.0,0.0,0.0,0.0,0.0,0.0,0.0,0.0,0.0,0.0,0.0,0.0,0.0,0.0,0.0,0.0,0.0,0.0,0.0,0.0,0.0,0.0,0.0,0.0,0.0,0.0,0.0,0.0,-3.1511,-3.1511,-3.1511,-3.1511,-3.1511,-3.1511,-3.1511,-3.1511,-3.1511,-3.1511,0.0,0.0,0.0,0.0,0.0,0.0,0.0,0.0,0.0,0.0,0.0,0.0,0.0,0.0,0.0,0.0,0.0,0.0,0.0,0.0,0.0,0.0,0.0,0.0,0.0,0.0,0.0,0.0,0.0,0.0,0.0,0.0,0.0,0.0,0.0,0.0,0.0,0.0,0.0,0.0,0.0,0.0,0.0,0.0,0.0,0.0,0.0,0.0,0.0,0.0,0.0,0.0,0.0,0.0,0.0,0.0,0.0,0.0,0.0,0.0,0.0,0.0,0.0,0.0,0.0,0.0,0.0,0.0,0.0,0.0,0.0,0.0,0.0,0.0,0.0,0.0,0.0,0.0,0.0,0.0,0.0,0.0,0.0,0.0,0.0,0.0,0.0,0.0,0.0,0.0,0.0,0.0,0.0,0.0,0.0,0.0,0.0,0.0,0.0,0.0,0.0,0.0,-3.1511,-3.1511,-3.1511,-3.1511,-3.1511,-3.1511,-3.1511,-3.1511,-3.1511,0.0,0.0,0.0,0.0,0.0,0.0,0.0,0.0,0.0,0.0,0.0,0.0,0.0,0.0,0.0,0.0,0.0,0.0,0.0,0.0,0.0,0.0,0.0,0.0,0.0,0.0,0.0,0.0,0.0,0.0,0.0,0.0,0.0,0.0,0.0,0.0,0.0,0.0,0.0,0.0,0.0,0.0,0.0,0.0,0.0,0.0,0.0,0.0,0.0,0.0,0.0,0.0,0.0,0.0,0.0,0.0,0.0,0.0,0.0,0.0,0.0,0.0,0.0,0.0,0.0,0.0,0.0,0.0,0.0,0.0,0.0,0.0,0.0,0.0,0.0,0.0,0.0,0.0,0.0,0.0,0.0,0.0,0.0,0.0,0.0,0.0,0.0,0.0,0.0,0.0,0.0,0.0,0.0,0.0,0.0,0.0,0.0,0.0,0.0,0.0,0.0,0.0,-3.1511,-3.1511,-3.1511,-3.1511,-3.1511,-3.1511,-3.1511,-3.1511,-3.1511,-3.1511,0.0,0.0,0.0,0.0,0.0,0.0,0.0,0.0,0.0,0.0,0.0,0.0,0.0,0.0,0.0,0.0,0.0,0.0,0.0,0.0,0.0,0.0,0.0,0.0,0.0,0.0,0.0,0.0,0.0,0.0,0.0,0.0,0.0,0.0,0.0,0.0,0.0,0.0,0.0,0.0,0.0,0.0,0.0,0.0,0.0,0.0,0.0,0.0,0.0,0.0,0.0,0.0,0.0,0.0,0.0,0.0,0.0,0.0,0.0,0.0,0.0,0.0,0.0,0.0,0.0,0.0,0.0,0.0,0.0,0.0,0.0,0.0,0.0,0.0,0.0,0.0,0.0,0.0,0.0,0.0,0.0,0.0,0.0,0.0,0.0,0.0,0.0,0.0,0.0,0.0,0.0,0.0,0.0,0.0,0.0,0.0,0.0,0.0,0.0,0.0,0.0,0.0,-3.1511,-3.1511,-3.1511,-3.1511,-3.1511,-3.1511,-3.1511,-3.1511,-3.1511,0.0,0.0,0.0,0.0,0.0,0.0,0.0,0.0,0.0,0.0,0.0,0.0,0.0,0.0,0.0,0.0,0.0,0.0,0.0,0.0,0.0,0.0,0.0,0.0,0.0,0.0,0.0,0.0,0.0,0.0,0.0,0.0,0.0,0.0,0.0,0.0,0.0,0.0,0.0,0.0,0.0,0.0,0.0,0.0,0.0,0.0,0.0,0.0,0.0,0.0,0.0,0.0,0.0,0.0,0.0,0.0,0.0,0.0,0.0,0.0,0.0,0.0,0.0,0.0,0.0,0.0,0.0,0.0,0.0,0.0,0.0,0.0,0.0,0.0,0.0,0.0,0.0,0.0,0.0,0.0,0.0,0.0,0.0,0.0,0.0,0.0,0.0,0.0,0.0,0.0,0.0,0.0,0.0,0.0,0.0,0.0,0.0,0.0,0.0,0.0,0.0,0.0,0.0,-3.1511,-3.1511,-3.1511,-3.1511,-3.1511,-3.1511,-3.1511,-3.1511,-3.1511,-3.1511,0.0,0.0,0.0,0.0,0.0,0.0,0.0,0.0,0.0,0.0,0.0,0.0,0.0,0.0,0.0,0.0,0.0,0.0,0.0,0.0,0.0,0.0,0.0,0.0,0.0,0.0,0.0,0.0,0.0,0.0,0.0,0.0,0.0,0.0,0.0,0.0,0.0,0.0,0.0,0.0,0.0,0.0,0.0,0.0,0.0,0.0,0.0,0.0,0.0,0.0,0.0,0.0,0.0,0.0,0.0,0.0,0.0,0.0,0.0,0.0,0.0,0.0,0.0,0.0,0.0,0.0,0.0,0.0,0.0,0.0,0.0,0.0,0.0,0.0,0.0,0.0,0.0,0.0,0.0,0.0,0.0,0.0,0.0,0.0,0.0,0.0,0.0,0.0,0.0,0.0,0.0,0.0,0.0,0.0,0.0,0.0,0.0,0.0,0.0,0.0,0.0,0.0,-3.2288,-3.2288,-3.2288,-3.2288,-3.2288,-3.2288,-3.2288,-3.2288,-3.2288,-3.2288,0.0,0.0,0.0,0.0,0.0,0.0,0.0,0.0,0.0,0.0,0.0,0.0,0.0,0.0,0.0,0.0,0.0,0.0,0.0,0.0,0.0,0.0,0.0,0.0,0.0,0.0,0.0,0.0,0.0,0.0,0.0,0.0,0.0,0.0,0.0,0.0,0.0,0.0,0.0,0.0,0.0,0.0,0.0,0.0,0.0,0.0,0.0,0.0,0.0,0.0,0.0,0.0,0.0,0.0,0.0,0.0,0.0,0.0,0.0,0.0,0.0,0.0,0.0,0.0,0.0,0.0,0.0,0.0,0.0,0.0,0.0,0.0,0.0,0.0,0.0,0.0,0.0,0.0,0.0,0.0,0.0,0.0,0.0,0.0,0.0,0.0,0.0,0.0,0.0,0.0,0.0,0.0,0.0,0.0,0.0,0.0,0.0,0.0,0.0,0.0,0.0,0.0,-3.3499,-3.3499,-3.3499,-3.3499,-3.3499,-3.3499,-3.3499,-3.3499,-3.3499,-3.3499,0.0,0.0,0.0,0.0,0.0,0.0,0.0,0.0,0.0,0.0,0.0,0.0,0.0,0.0,0.0,0.0,0.0,0.0,0.0,0.0,0.0,0.0,0.0,0.0,0.0,0.0,0.0,0.0,0.0,0.0,0.0,0.0,0.0,0.0,0.0,0.0,0.0,0.0,0.0,0.0,0.0,0.0,0.0,0.0,0.0,0.0,0.0,0.0,0.0,0.0,0.0,0.0,0.0,0.0,0.0,0.0,0.0,0.0,0.0,0.0,-2.7675,-2.8289,0.0,0.0,0.0,0.0,0.0,0.0,0.0,0.0,0.0,0.0,0.0,0.0,0.0,0.0,0.0,0.0,0.0,0.0,0.0,0.0,0.0,0.0,0.0,0.0,0.0,0.0,0.0,0.0,0.0,0.0,0.0,0.0,0.0,0.0,0.0,0.0,0.0,0.0,0.0,0.0,-3.3499,-3.3499,-3.3499,-3.3499,-3.3499,-3.3499,-3.3499,-3.3499,-3.3499,-3.3499,-3.3499,0.0,0.0,0.0,0.0,0.0,0.0,0.0,0.0,0.0,0.0,0.0,0.0,0.0,0.0,0.0,0.0,0.0,0.0,0.0,0.0,0.0,0.0,0.0,0.0,0.0,0.0,0.0,0.0,0.0,0.0,0.0,0.0,0.0,0.0,0.0,0.0,0.0,0.0,0.0,0.0,0.0,0.0,0.0,0.0,0.0,0.0,0.0,0.0,0.0,0.0,0.0,0.0,0.0,0.0,0.0,0.0,0.0,0.0,0.0,-2.7944,-2.8663,0.0,0.0,0.0,0.0,0.0,0.0,0.0,0.0,0.0,0.0,0.0,0.0,0.0,0.0,0.0,0.0,0.0,0.0,0.0,0.0,0.0,0.0,0.0,0.0,0.0,0.0,0.0,0.0,0.0,0.0,0.0,0.0,0.0,0.0,0.0,0.0,0.0,0.0,0.0,0.0,-3.4457,-3.4457,-3.4457,-3.4457,-3.4457,-3.4457,-3.4457,-3.4457,-3.4457,-3.4457,-3.4457,0.0,0.0,0.0,0.0,0.0,0.0,0.0,0.0,0.0,0.0,0.0,0.0,0.0,0.0,0.0,0.0,0.0,0.0,0.0,0.0,0.0,0.0,0.0,0.0,0.0,0.0,0.0,0.0,0.0,0.0,0.0,0.0,0.0,0.0,0.0,0.0,0.0,0.0,0.0,0.0,0.0,0.0,0.0,0.0,0.0,0.0,0.0,0.0,0.0,0.0,0.0,0.0,0.0,-2.76,-2.76,-2.76,-2.76,-2.76,-2.7645,-2.8427,-2.9086,-2.9651,-3.0253,0.0,0.0,0.0,0.0,0.0,0.0,0.0,0.0,0.0,0.0,0.0,0.0,0.0,0.0,0.0,0.0,0.0,0.0,0.0,0.0,0.0,0.0,-3.1511,-3.1511,-3.1585,-3.1675,-3.1675,0.0,0.0,0.0,0.0,0.0,0.0,0.0,0.0,0.0,0.0,0.0,-3.5504,-3.5504,-3.5504,-3.5504,-3.5504,-3.5504,-3.5504,-3.5504,-3.5504,-3.5504,-3.5504,-3.5504,0.0,0.0,0.0,0.0,0.0,0.0,0.0,0.0,0.0,0.0,0.0,0.0,0.0,0.0,0.0,0.0,0.0,0.0,0.0,0.0,0.0,0.0,0.0,0.0,0.0,0.0,0.0,0.0,0.0,0.0,0.0,0.0,-2.5563,-2.5673,0.0,0.0,0.0,0.0,0.0,0.0,0.0,0.0,0.0,0.0,0.0,0.0,0.0,-2.781,-2.771,-2.771,-2.7675,-2.76,-2.76,-2.76,-2.76,-2.76,-2.76,-2.766,-2.8933,0.0,-2.9651,-3.0253,0.0,0.0,0.0,0.0,0.0,0.0,0.0,0.0,0.0,0.0,0.0,0.0,0.0,0.0,0.0,0.0,0.0,0.0,0.0,0.0,0.0,0.0,-3.1511,-3.1511,-3.1944,-3.2377,-3.2377,-3.2452,-3.2856,-3.3993,-3.4324,-3.4593,0.0,0.0,0.0,0.0,0.0,0.0,-3.5504,-3.5504,-3.5504,-3.5504,-3.5504,-3.5504,-3.5504,-3.5504,-3.5504,-3.5504,-3.5504,-3.5504,-3.5504,-3.5504,0.0,0.0,0.0,0.0,0.0,0.0,0.0,0.0,0.0,0.0,0.0,0.0,0.0,0.0,0.0,0.0,0.0,0.0,0.0,0.0,0.0,0.0,0.0,0.0,0.0,0.0,0.0,0.0,0.0,-2.4794,-2.4922,-2.5342,-2.5673,-2.5864,0.0,0.0,0.0,0.0,0.0,0.0,0.0,0.0,0.0,-2.6982,-2.6982,-2.7178,-2.76,-2.7203,-2.7203,-2.76,-2.76,-2.76,-2.76,-2.76,-2.7382,-2.7055,-2.8332,-2.8623,-2.8412,-3.0259,-3.0661,-3.0133,0.0,0.0,0.0,0.0,-2.9566,-2.9442,-2.8556,-2.8266,-2.8266,-2.8266,0.0,0.0,0.0,0.0,0.0,0.0,0.0,-3.0925,-3.138,-3.1511,-3.16,-3.1974,-3.2273,-3.2721,-3.3455,-3.3619,-3.3784,-3.4399,-3.4786,-3.516,-3.5444,-3.5504,0.0,0.0,0.0,-3.5504,-3.5504,-3.5504,-3.5504,-3.5504,-3.5504,-3.5504,-3.5504,-3.5504,-3.5504,-3.5504,-3.5504,-3.5504,-3.5504,-3.5504,-3.5504,0.0,0.0,0.0,0.0,0.0,0.0,0.0,0.0,0.0,0.0,0.0,0.0,0.0,0.0,0.0,0.0,0.0,0.0,0.0,0.0,0.0,0.0,0.0,0.0,0.0,0.0,0.0,0.0,-2.4002,-2.4192,-2.4753,-2.4979,-2.5119,0.0,0.0,0.0,0.0,0.0,0.0,-2.5398,-2.5933,-2.6229,-2.6229,-2.6404,-2.6774,-2.7306,-2.6774,-2.6774,-2.7331,-2.7137,-2.7137,-2.7306,-2.7137,-2.6837,-2.6556,-2.7583,-2.7576,-2.7067,-2.978,-3.0133,-2.9066,-2.969,-2.9566,-2.8971,-2.8748,-2.8684,-2.8556,-2.7703,-2.7384,-2.7384,-2.7384,-2.755,-2.7855,-2.8748,0.0,0.0,0.0,0.0,-3.0494,-3.1278,-3.163,-3.1884,-3.2363,-3.2766,-3.329,-3.4294,-3.4638,-3.4773,-3.4773,-3.516,-3.5504,-3.5504,-3.5504,0.0,-3.5504,-3.5504,-3.5504,-3.5504,-3.5504,-3.5504,-3.5504,-3.5504,-3.5504,-3.5504,-3.5504,-3.5504,-3.5504,-3.5504,-3.5504,-3.5504,-3.5504,-3.5504,-3.5504,0.0,0.0,0.0,0.0,0.0,0.0,0.0,0.0,0.0,0.0,0.0,0.0,0.0,0.0,0.0,0.0,0.0,0.0,0.0,0.0,0.0,0.0,0.0,0.0,0.0,0.0,0.0,0.0,0.0,-2.3215,-2.3884,0.0,0.0,0.0,0.0,-2.5398,-2.5398,-2.5398,-2.5398,-2.5425,-2.5453,-2.5453,-2.6122,-2.651,-2.6563,-2.651,-2.651,-2.6537,-2.5837,-2.5864,-2.6537,-2.5837,-2.5864,-2.6529,-2.7029,-2.6761,-2.6122,-2.8242,-2.9097,-2.9002,-2.9066,-2.9034,-2.8907,-2.8084,-2.7769,-2.7637,-2.685,-2.6555,-2.6555,-2.6555,-2.7061,-2.7855,-2.8748,-2.9002,0.0,0.0,-3.0299,-3.0494,-3.1278,-3.1974,-3.2452,-3.2497,-3.3469,-3.4429,-3.4503,-3.4996,-3.5444,-3.5444,-3.5489,-3.5504,-3.5504,0.0,-3.5504,-3.5504,-3.5504,-3.5504,-3.5504,-3.5504,-3.5504,-3.5504,-3.5504,-3.5504,-3.5504,-3.5504,-3.5504,-3.5504,-3.5504,-3.5504,-3.5504,-3.5504,-3.5504,-3.5504,-3.5504,0.0,0.0,0.0,0.0,0.0,0.0,0.0,0.0,0.0,0.0,0.0,0.0,0.0,0.0,0.0,0.0,0.0,0.0,0.0,0.0,0.0,0.0,0.0,0.0,0.0,0.0,0.0,0.0,-2.3108,-2.3335,0.0,-2.3543,-2.3767,-2.393,-2.393,-2.393,-2.393,-2.393,-2.4423,-2.4681,-2.4681,-2.4951,-2.5315,-2.5783,-2.5315,-2.5315,-2.5783,-2.5536,-2.5536,-2.5783,-2.5508,-2.5287,-2.5131,-2.5991,-2.5932,-2.5307,-2.6784,-2.7384,-2.7451,-2.7953,-2.7855,-2.7351,-2.704,-2.6939,-2.6871,-2.6589,-2.6499,-2.6499,-2.6499,-2.704,-2.7769,-2.8084,-2.8556,-2.9192,-3.0042,-3.0299,-3.0494,-3.1278,-3.1989,-3.2617,-3.3036,-3.3829,-3.4638,-3.504,-3.5325,-3.5504,-3.5504,-3.5504,-3.5504,-3.5504,-3.5504,-3.5504,-3.5504,-3.5504,-3.5504,-3.5504,-3.5504,-3.5504,-3.5504,-3.5504,-3.5504,-3.5504,-3.5504,-3.5504,-3.5504,-3.5504,-3.5504,-3.5504,-3.5504,-3.5504,-3.5504,-3.5504,-3.5504,0.0,0.0,0.0,0.0,0.0,0.0,0.0,0.0,0.0,0.0,0.0,0.0,0.0,0.0,0.0,0.0,0.0,0.0,0.0,0.0,0.0,0.0,0.0,0.0,0.0,0.0,-2.3108,-2.3108,-2.3108,-2.3108,-2.3108,-2.3108,-2.3108,-2.3108,-2.3108,-2.3108,-2.3108,-2.3603,-2.3884,-2.3884,-2.4147,-2.4538,-2.5007,-2.4538,-2.4538,-2.5035,-2.4753,-2.4781,-2.5007,-2.4753,-2.4509,-2.4345,-2.4992,-2.507,-2.4863,-2.5799,-2.6323,-2.6555,-2.7095,-2.6973,-2.6499,-2.6499,-2.6499,-2.6499,-2.6499,-2.6692,-2.685,-2.6589,-2.7229,-2.8084,-2.7802,-2.8298,-2.9192,-3.0042,-3.0299,-3.0494,-3.1278,-3.2153,-3.2961,-3.3395,-3.4173,-3.4951,-3.54,-3.5504,-3.5504,-3.5504,-3.5504,-3.5504,-3.5504,-3.5504,-3.5504,-3.5504,-3.5504,-3.5504,-3.5504,-3.5504,-3.5504,-3.5504,-3.5504,-3.5504,-3.5504,-3.5504,-3.5504,-3.5504,-3.5504,-3.5504,-3.5504,-3.5504,-3.5504,-3.5504,-3.5504,-3.5504,-3.5504,0.0,0.0,0.0,0.0,0.0,0.0,0.0,0.0,0.0,0.0,0.0,0.0,0.0,0.0,0.0,0.0,0.0,0.0,0.0,0.0,0.0,0.0,0.0,-2.2975,-2.3108,-2.3108,-2.3108,-2.3108,-2.3108,-2.3108,-2.3108,-2.3108,-2.3108,-2.3108,-2.3108,-2.3108,-2.3108,-2.3108,-2.3108,-2.3855,-2.4263,-2.4263,-2.4263,-2.4263,-2.4263,-2.3484,-2.3514,-2.4234,-2.3454,-2.3543,-2.4232,-2.4078,-2.4305,-2.4825,-2.5385,-2.5971,-2.6499,-2.6499,-2.6499,-2.6499,-2.6499,-2.6499,-2.6499,-2.6499,-2.7007,-2.7537,-2.6782,-2.7637,-2.8844,-2.8019,-2.8395,-2.9254,-3.0103,-3.0329,-3.0524,-3.1307,-3.2482,-3.3499,-3.3499,-3.4517,-3.5504,-3.5504,-3.5504,-3.5504,-3.5504,-3.5504,-3.5504,-3.5504,-3.5504,-3.5504,-3.5504,-3.5504,0.0,-3.5504,-3.5504,-3.5504,-3.5504,-3.5504,-3.5504,-3.5504,-3.5504,-3.5504,-3.5504,-3.5504,-3.5504,-3.5504,-3.5504,-3.5504,-3.5504,-3.5504,-3.5504,-3.5504,0.0,0.0,0.0,0.0,0.0,0.0,0.0,0.0,0.0,0.0,0.0,0.0,0.0,0.0,0.0,0.0,0.0,0.0,0.0,0.0,0.0,-2.1908,-2.2199,-2.2975,-2.3108,-2.3108,-2.3108,-2.3108,-2.3108,-2.3108,-2.3108,-2.3108,-2.3108,-2.3108,-2.3108,-2.3108,-2.3108,-2.3108,-2.3108,-2.3305,-2.3424,-2.3424,-2.3424,-2.3424,-2.3424,-2.3215,-2.3215,-2.3424,-2.3198,-2.3215,-2.3463,-2.3833,-2.4305,-2.4825,-2.5385,-2.5971,-2.6499,-2.6499,-2.6499,-2.6499,-2.6499,-2.6499,-2.6499,-2.6499,-2.6658,-2.6871,-2.7263,-2.8117,-2.9066,-2.9473,-3.0178,-3.0866,-3.1087,-3.1161,-3.1219,-3.1438,-3.2482,-3.3499,-3.3499,-3.4517,-3.5504,-3.5504,-3.5504,-3.5504,-3.5504,-3.5504,-3.5504,-3.5504,-3.5504,-3.5504,-3.5504,-3.5504,-3.5504,-3.5504,-3.5504,-3.5504,-3.5504,-3.5504,-3.5504,-3.5504,-3.5504,-3.5504,-3.5504,-3.5504,-3.5504,-3.5504,-3.5504,-3.5504,-3.5504,-3.5504,-3.5504,0.0,0.0,0.0,0.0,0.0,0.0,0.0,0.0,0.0,0.0,0.0,0.0,0.0,0.0,0.0,0.0,0.0,0.0,0.0,0.0,0.0,0.0,-2.1101,-2.1647,-2.2476,-2.2884,-2.3108,-2.3108,-2.3108,-2.3108,-2.3108,-2.3108,-2.3108,-2.3108,-2.3108,-2.3108,-2.3108,-2.3108,-2.3108,-2.3108,-2.3108,-2.3108,-2.3108,-2.3108,-2.3108,-2.3108,-2.3108,-2.3108,-2.3108,-2.3108,-2.3108,-2.312,-2.3459,-2.3954,-2.4519,-2.5046,-2.5598,-2.616,0.0,0.0,0.0,0.0,-2.6499,-2.6499,-2.6499,-2.6714,-2.704,-2.7162,-2.8279,-2.9566,-2.969,-3.0584,-3.1511,-3.1511,-3.1511,-3.1511,-3.1511,-3.2482,-3.3499,-3.3499,-3.4517,-3.5504,-3.5504,-3.5504,-3.5504,-3.5504,-3.5504,0.0,-3.5504,-3.5504,-3.5504,-3.5504,-3.5504,-3.5504,-3.5504,-3.5504,-3.5504,-3.5504,-3.5504,-3.5504,-3.5504,-3.5504,0.0,0.0,0.0,-3.5504,-3.5504,-3.5504,0.0,0.0,0.0,-3.5504,-3.5504,-3.5504,0.0,0.0,-3.5325,-3.4988,0.0,0.0,0.0,0.0,0.0,0.0,0.0,0.0,0.0,0.0,0.0,0.0,0.0,0.0,0.0,0.0,-2.0107,-2.0942,-2.1908,-2.2641,-2.3108,-2.3108,-2.3108,-2.3108,-2.3108,-2.3108,-2.3108,-2.3108,-2.3108,-2.3108,-2.3108,-2.3108,0.0,0.0,0.0,-2.3108,-2.3108,-2.3108,-2.3108,-2.3108,-2.3108,-2.3108,-2.3108,-2.3108,-2.3108,-2.3108,-2.3108,-2.3434,-2.4042,-2.4519,-2.5071,-2.5649,-2.6273,-2.6499,-2.6499,-2.6499,-2.6499,-2.6499,-2.6499,0.0,0.0,-2.6939,-2.8298,-3.0042,-2.9473,-3.0329,-3.1511,-3.1511,-3.1511,-3.1511,-3.1511,-3.2482,-3.3499,-3.3499,-3.4517,-3.5504,-3.5504,-3.5504,-3.5504,-3.5504,-3.5504,-3.5504,-3.5504,-3.5504,-3.5504,-3.5504,-3.5504,-3.5504,-3.5504,-3.5504,-3.5504,-3.5504,-3.5504,0.0,-3.5504,-3.5504,-3.5504,-3.5504,-3.5504,-3.5504,-3.5504,-3.5504,-3.5504,-3.5504,-3.5504,-3.5504,-3.5504,-3.5504,-3.5504,-3.5504,-3.5504,-3.5439,0.0,0.0,0.0,0.0,0.0,0.0,0.0,0.0,0.0,0.0,0.0,0.0,0.0,0.0,0.0,-2.0074,-2.0494,-2.1132,-2.2659,-2.3005,-2.3108,-2.3108,-2.3108,-2.3108,-2.3108,-2.3108,-2.3108,-2.3108,-2.3108,-2.3108,-2.3108,-2.3108,-2.3108,-2.3108,-2.3108,-2.3108,-2.3108,-2.3108,-2.3108,-2.3108,-2.3108,0.0,-2.3108,-2.3108,-2.3108,-2.3108,-2.3108,-2.3434,-2.4004,-2.4117,-2.4732,-2.5649,-2.6273,-2.6499,-2.6499,-2.6499,-2.6499,-2.6499,-2.6499,-2.6589,-2.6939,-2.8149,-2.8844,-2.9473,-3.0644,-3.1248,0.0,-3.1511,-3.1511,-3.1511,-3.1511,-3.2482,-3.3499,-3.3499,-3.4517,-3.5504,-3.5504,-3.5504,-3.5504,-3.5504,-3.5504,-3.5504,-3.5504,-3.5504,-3.5504,-3.5504,-3.5504,-3.5504,-3.5504,-3.5504,-3.5504,-3.5504,-3.5504,-3.5504,-3.5504,-3.5504,-3.5504,-3.5504,-3.5504,-3.5504,-3.5504,-3.5504,-3.5504,-3.5504,-3.5504,-3.5504,-3.5504,-3.5504,-3.5504,-3.5504,-3.5504,-3.5067,0.0,0.0,0.0,0.0,0.0,0.0,0.0,0.0,0.0,0.0,0.0,-1.8008,-1.8008,0.0,-1.8303,-1.9177,-1.9661,-2.0386,-2.1667,-2.2218,-2.2641,-2.3047,-2.3108,-2.3108,-2.3108,-2.3108,-2.3108,-2.3108,-2.3108,-2.3108,-2.3108,-2.3108,-2.3108,-2.3108,-2.3108,-2.3108,-2.3108,-2.3108,-2.3108,-2.3108,-2.3108,-2.3108,-2.3108,-2.3108,-2.3108,-2.3108,-2.3108,-2.3271,-2.3559,-2.3879,-2.4632,-2.5624,-2.5912,-2.6235,-2.6499,-2.6499,-2.6499,-2.6499,-2.6499,-2.6748,-2.7229,-2.8084,-2.8939,-2.9827,-3.0644,-3.119,-3.1511,-3.1511,-3.1511,-3.1511,-3.1511,-3.2482,-3.3499,-3.3499,-3.4517,-3.5504,-3.5504,-3.5504,-3.5504,-3.5504,-3.5504,-3.5504,-3.5504,-3.5504,-3.5504,-3.5504,-3.5504,-3.5504,-3.5504,-3.5504,-3.5504,-3.5504,-3.5504,-3.5504,-3.5504,-3.5504,-3.5504,-3.5504,-3.5504,-3.5504,-3.5504,-3.5504,-3.5504,-3.5504,-3.5504,-3.5504,-3.5504,-3.5504,-3.5504,-3.5504,-3.5504,-3.5246,0.0,0.0,0.0,0.0,0.0,0.0,0.0,0.0,-1.7794,-1.7974,-1.8008,-1.8008,-1.8008,-1.8008,-1.8076,-1.8236,-1.8854,-1.9595,-2.0494,-2.1365,-2.2125,-2.2793,-2.3005,-2.3108,-2.3108,-2.3108,-2.3108,-2.3108,-2.3108,-2.3108,-2.3108,-2.3108,-2.3108,-2.3108,-2.3108,-2.3108,-2.3108,-2.3108,-2.3108,-2.3108,-2.3108,-2.3108,-2.3108,-2.3108,-2.3108,-2.3108,-2.3108,-2.3108,-2.3145,-2.3753,-2.4506,-2.5297,-2.5398,-2.5799,-2.6336,-2.6449,-2.6499,-2.6499,-2.6499,-2.6905,-2.7517,-2.7855,-2.8907,-3.0103,-3.0419,-3.0999,-3.1511,-3.1511,-3.1511,-3.1511,-3.1511,-3.2482,-3.3499,-3.3499,-3.4517,-3.5504,-3.5504,-3.5504,-3.5504,-3.5504,-3.5504,-3.5504,-3.5504,-3.5504,-3.5504,-3.5504,-3.5504,-3.5504,-3.5504,-3.5504,-3.5504,-3.5504,-3.5504,-3.5504,-3.5504,-3.5504,-3.5504,-3.5504,-3.5504,-3.5504,-3.5504,-3.5504,-3.5504,-3.5504,-3.5504,-3.5504,-3.5504,-3.5504,-3.5504,-3.5504,-3.5504,-3.5504,-1.2305,-1.2305,-1.2342,-1.2445,-1.3237,-1.4271,0.0,0.0,-1.6991,-1.7828,-1.8008,-1.8008,-1.8008,-1.8008,-1.8269,-1.9044,-1.9233,-1.9595,-2.0494,-2.1365,-2.1939,-2.2002,-2.2671,-2.3108,-2.3108,-2.3108,-2.3108,-2.3108,-2.3108,-2.3108,-2.3108,-2.3108,-2.3108,-2.3108,-2.3108,-2.3108,-2.3108,-2.3108,-2.3108,-2.3108,-2.3108,-2.3108,-2.3108,-2.3108,-2.3108,-2.3108,-2.3108,-2.3108,-2.3145,-2.3753,-2.4067,-2.423,-2.4687,-2.5222,-2.5749,-2.6298,-2.6499,-2.6499,-2.6499,-2.6555,-2.6871,-2.8363,-2.9002,-2.9411,-3.0896,-3.1438,-3.1511,-3.1511,-3.1511,-3.1511,-3.1511,-3.2482,-3.3499,-3.3499,-3.4517,-3.5504,-3.5504,-3.5504,-3.5504,-3.5504,-3.5504,-3.5504,-3.5504,-3.5504,-3.5504,-3.5504,-3.5504,-3.5504,-3.5504,-3.5504,-3.5504,-3.5504,-3.5504,-3.5504,-3.5504,-3.5504,-3.5504,-3.5504,-3.5504,-3.5504,-3.5504,-3.5504,-3.5504,-3.5504,-3.5504,-3.5504,-3.5504,-3.5504,-3.5504,-3.5504,-3.5504,-3.5504,-1.2305,-1.2305,0.0,0.0,-1.3025,-1.3818,-1.4243,-1.5508,-1.6706,-1.7104,-1.7613,-1.8008,-1.8008,-1.8008,-1.811,0.0,-1.8519,-1.8854,-1.9726,-2.059,-2.1333,-2.1846,-2.2598,-2.3108,-2.3108,-2.3108,-2.3108,-2.3108,-2.3108,-2.3108,-2.3108,-2.3108,-2.3108,-2.3108,-2.3108,-2.3108,-2.3108,-2.3108,-2.3108,-2.3108,-2.3108,-2.3108,-2.3108,-2.3108,-2.3108,-2.3108,-2.3108,-2.3108,-2.312,-2.3358,-2.369,-2.4017,-2.4255,-2.4669,-2.5209,-2.5762,-2.6197,-2.6499,-2.6499,-2.7129,-2.8084,-2.878,-2.9659,-3.0584,-3.1278,-3.1511,-3.1511,-3.1511,-3.1511,-3.1511,-3.1511,-3.2482,-3.3499,-3.3499,-3.4517,-3.5504,-3.5504,-3.5504,-3.5504,-3.5504,-3.5504,-3.5504,-3.5504,-3.5504,-3.5504,-3.5504,-3.5504,-3.5504,-3.5504,-3.5504,-3.5504,-3.5504,-3.5504,-3.5504,-3.5504,-3.5504,-3.5504,-3.5504,-3.5504,-3.5504,-3.5504,-3.5504,-3.5504,-3.5504,-3.5504,-3.5504,-3.5504,-3.5504,-3.5504,-3.5504,-3.5504,-3.5504,-1.2305,0.0,0.0,-1.2305,-1.2806,-1.3382,-1.3637,-1.5013,-1.6289,-1.6567,-1.7354,-1.8008,-1.8008,-1.8008,-1.8008,-1.8008,-1.8008,-1.8303,-1.9177,-2.0042,-2.091,-2.1815,-2.2598,-2.3108,-2.3108,-2.3108,-2.3108,-2.3108,-2.3108,-2.3108,-2.3108,-2.3108,-2.3108,-2.3108,-2.3108,-2.3108,-2.3108,-2.3108,-2.3108,-2.3108,-2.3108,-2.3108,-2.3108,-2.3108,-2.3108,-2.3108,-2.3108,-2.3108,-2.3108,-2.3108,-2.3358,-2.3753,-2.3753,-2.4217,-2.4951,-2.5517,-2.6123,-2.6633,-2.6786,-2.7769,-2.9034,-2.9286,-3.0178,-3.1219,-3.1438,-3.1511,-3.1511,-3.1511,-3.1511,-3.1511,-3.1511,-3.2482,-3.3499,-3.3499,-3.4517,-3.5504,-3.5504,-3.5504,-3.5504,-3.5504,-3.5504,-3.5504,-3.5504,-3.5504,-3.5504,-3.5504,-3.5504,-3.5504,-3.5504,-3.5504,-3.5504,-3.5504,-3.5504,-3.5504,-3.5504,-3.5504,-3.5504,-3.5504,-3.5504,-3.5504,-3.5504,-3.5504,-3.5504,-3.5504,-3.5504,-3.5504,-3.5504,-3.5504,-3.5504,-3.5504,-3.5504,-3.5504,-1.2305,0.0,-1.2305,-1.2305,-1.2335,-1.2592,-1.3491,-1.4494,-1.5517,-1.6419,-1.7354,-1.8008,-1.8008,-1.8008,-1.8008,-1.8008,-1.8008,-1.8303,-1.9177,-2.0042,-2.091,-2.1815,-2.2598,-2.3108,0.0,-2.3108,-2.3108,-2.3108,-2.3108,-2.3108,-2.3108,-2.3108,-2.3108,-2.3108,-2.3108,-2.3108,-2.3108,-2.3108,-2.3108,-2.3108,-2.3108,-2.3108,-2.3108,-2.3108,-2.3108,-2.3108,-2.3108,-2.3108,-2.3108,-2.3108,-2.3108,-2.3133,-2.3133,-2.3931,-2.5165,-2.5823,-2.6435,-2.6952,-2.7473,-2.8247,-2.9129,-2.9981,-3.0299,-3.0494,-3.1248,-3.1511,-3.1511,-3.1511,-3.1511,-3.1511,-3.1511,-3.2482,-3.3499,-3.3499,-3.4517,-3.5504,-3.5504,-3.5504,-3.5504,-3.5504,-3.5504,-3.5504,-3.5504,-3.5504,-3.5504,-3.5504,-3.5504,-3.5504,-3.5504,-3.5504,-3.5504,-3.5504,-3.5504,-3.5504,-3.5504,-3.5504,-3.5504,-3.5504,-3.5504,-3.5504,-3.5504,-3.5504,-3.5504,-3.5504,-3.5504,-3.5504,-3.5504,-3.5504,-3.5504,-3.5504,-3.5504,-3.5504,-1.2305,-1.2305,-1.2305,-1.2305,-1.2305,-1.2372,-1.2703,-1.4019,-1.5305,-1.5623,-1.6906,-1.8008,-1.8008,-1.8008,-1.8008,-1.8008,-1.8008,-1.811,-1.8405,-1.9694,-2.0719,-2.1005,-2.2249,0.0,0.0,0.0,0.0,-2.3108,-2.3108,-2.3108,-2.3108,-2.3108,-2.3108,-2.3108,-2.3108,-2.3108,-2.3108,-2.3108,-2.3108,-2.3108,-2.3108,-2.3108,-2.3108,-2.3108,-2.3108,-2.3108,-2.3108,-2.3108,-2.3108,-2.3108,-2.3108,-2.3155,-2.3679,-2.4178,-2.4707,-2.5781,-2.6913,-2.7951,-2.8392,-2.9129,-2.9919,-3.0208,-3.0644,-3.1161,-3.1409,-3.1511,-3.1511,-3.1511,-3.1511,-3.1511,-3.1511,-3.2482,-3.3499,-3.3499,-3.4517,-3.5504,-3.5504,-3.5504,-3.5504,-3.5504,-3.5504,-3.5504,-3.5504,-3.5504,-3.5504,-3.5504,-3.5504,-3.5504,-3.5504,-3.5504,-3.5504,-3.5504,-3.5504,-3.5504,-3.5504,-3.5504,-3.5504,-3.5504,-3.5504,-3.5504,-3.5504,-3.5504,-3.5504,-3.5504,-3.5504,-3.5504,-3.5504,-3.5504,-3.5504,-3.5504,-3.5504,-3.5504,-1.1848,-1.2033,-1.2224,-1.1848,-1.2033,-1.2305,-1.2305,-1.352,-1.4772,-1.5128,-1.6437,-1.7613,-1.794,-1.8008,-1.8008,-1.8008,-1.8008,-1.8202,-1.8854,-1.9879,-2.0814,-2.1416,-2.2433,-2.3108,0.0,0.0,0.0,-2.3108,-2.3108,-2.3108,-2.3108,-2.3108,-2.3108,-2.3108,-2.3108,-2.3108,-2.3108,-2.3108,-2.3108,-2.3108,-2.3108,-2.3108,-2.3108,-2.3108,-2.3108,-2.3108,-2.3108,-2.3108,-2.3108,-2.3108,-2.3275,-2.3573,-2.4089,-2.4624,-2.5216,-2.6273,-2.7426,-2.8532,-2.8971,-2.9825,-3.0748,-3.0748,-3.1087,-3.1511,-3.1511,-3.1511,-3.1511,-3.1511,-3.1511,-3.1511,-3.1511,-3.2482,-3.3499,-3.3499,-3.4517,-3.5504,-3.5504,-3.5504,-3.5504,-3.5504,-3.5504,-3.5504,-3.5504,-3.5504,-3.5504,-3.5504,-3.5504,-3.5504,-3.5504,-3.5504,-3.5504,-3.5504,-3.5504,-3.5504,-3.5504,-3.5504,-3.5504,-3.5504,-3.5504,-3.5504,-3.5504,-3.5504,-3.5504,-3.5504,-3.5504,-3.5504,-3.5504,-3.5504,-3.5504,-3.5504,-3.5504,-3.5504,-1.1124,-1.1576,-1.207,-1.1124,-1.1583,-1.2305,-1.2305,-1.3025,-1.3991,-1.4985,-1.5939,-1.6888,0.0,0.0,-1.8008,-1.8008,-1.8008,-1.8596,-2.0236,-2.0526,-2.1195,0.0,0.0,0.0,0.0,0.0,0.0,-2.3108,-2.3108,-2.3108,-2.3108,-2.3108,-2.3108,-2.3108,-2.3108,-2.3108,-2.3108,-2.3108,-2.3108,-2.3108,-2.3108,-2.3108,-2.3108,-2.3108,-2.3108,-2.3108,-2.3108,-2.3138,-2.3155,-2.3155,-2.3619,-2.435,-2.4408,-2.5259,-2.6582,-2.7268,-2.7962,-2.8666,-2.9159,-3.025,-3.1451,-3.1496,-3.1511,-3.1511,-3.1511,-3.1511,-3.1511,-3.1511,-3.1511,-3.1511,-3.1511,-3.2482,-3.3499,-3.3499,-3.4517,-3.5504,-3.5504,-3.5504,-3.5504,-3.5504,-3.5504,-3.5504,-3.5504,-3.5504,-3.5504,-3.5504,-3.5504,-3.5504,-3.5504,-3.5504,-3.5504,-3.5504,-3.5504,-3.5504,-3.5504,-3.5504,-3.5504,-3.5504,-3.5504,-3.5504,-3.5504,-3.5504,-3.5504,-3.5504,-3.5504,-3.5504,-3.5504,-3.5504,-3.5504,-3.5504,-3.5504,-3.5504,-1.1996,-1.2114,-1.2224,-1.1996,-1.2114,-1.2305,-1.2305,-1.3025,-1.3991,-1.4985,-1.5939,-1.6888,0.0,0.0,0.0,-1.8008,-1.8008,0.0,-1.8586,-1.9792,0.0,-2.1195,0.0,-2.3108,-2.3108,-2.3108,0.0,0.0,-2.3108,-2.3108,-2.3108,-2.3108,-2.3108,-2.3108,-2.3108,-2.3108,-2.3108,-2.3108,-2.3108,-2.3108,-2.3108,-2.3108,-2.3108,-2.3108,-2.3108,-2.3108,-2.3108,-2.3454,-2.4002,-2.4002,-2.4452,-2.5175,-2.5728,-2.6176,-2.6578,-2.7303,-2.8014,-2.8685,-2.9302,-3.0056,-3.0851,-3.1331,-3.1511,-3.1511,-3.1511,-3.1511,-3.1511,-3.1511,-3.1511,-3.1511,-3.1511,-3.2482,-3.3499,-3.3499,-3.4517,-3.5504,-3.5504,-3.5504,-3.5504,-3.5504,-3.5504,-3.5504,-3.5504,-3.5504,-3.5504,-3.5504,-3.5504,-3.5504,-3.5504,-3.5504,-3.5504,-3.5504,-3.5504,-3.5504,-3.5504,-3.5504,-3.5504,-3.5504,-3.5504,-3.5504,-3.5504,-3.5504,-3.5504,-3.5504,-3.5504,-3.5504,-3.5504,-3.5504,-3.5504,-3.5504,-3.5504,-3.5504,-1.1768,-1.1959,-1.2187,-1.1731,-1.1959,-1.2409,-1.2806,-1.331,-1.4099,-1.5508,-1.6245,0.0,-1.7828,-1.8008,0.0,0.0,0.0,0.0,-1.8529,-1.9398,-2.0171,0.0,-2.1772,0.0,-2.2567,-2.2884,-2.3108,0.0,-2.3108,-2.3108,-2.3108,-2.3108,-2.3108,-2.3108,-2.3108,-2.3108,-2.3108,-2.3108,-2.3108,-2.3108,-2.3108,-2.3108,-2.3108,-2.3108,-2.3108,-2.3138,-2.3484,-2.3884,-2.4321,-2.4652,-2.5231,-2.5933,-2.6336,-2.6695,-2.7034,-2.7433,-2.7839,-2.8319,-2.9277,-2.9804,-3.0253,-3.1197,-3.1511,-3.1511,-3.1511,-3.1511,-3.1511,-3.1511,-3.1511,-3.1511,-3.1511,-3.2482,-3.3499,-3.3499,-3.4517,-3.5504,-3.5504,-3.5504,-3.5504,-3.5504,-3.5504,-3.5504,-3.5504,-3.5504,-3.5504,-3.5504,-3.5504,-3.5504,-3.5504,-3.5504,-3.5504,-3.5504,-3.5504,-3.5504,-3.5504,-3.5504,-3.5504,-3.5504,-3.5504,-3.5504,-3.5504,-3.5504,-3.5504,-3.5504,-3.5504,-3.5504,-3.5504,-3.5504,-3.5504,-3.5504,-3.5504,-3.5669,-1.1236,-1.1657,-1.2077,-1.1205,-1.1657,-1.2556,-1.3491,-1.3709,-1.4235,-1.621,0.0,-1.6888,-1.7828,-1.8008,-1.8008,-1.8008,0.0,-1.8269,-1.9011,-1.9243,-1.9595,-2.0333,-2.1302,-2.1908,-2.1908,-2.2628,-2.3108,-2.3108,-2.3108,-2.3108,-2.3108,-2.3108,-2.3108,-2.3108,-2.3108,-2.3108,-2.3108,-2.3108,-2.3108,-2.3108,-2.3108,-2.3108,-2.3108,-2.3108,-2.3108,-2.3125,-2.3943,-2.435,-2.4509,-2.5231,-2.5973,-2.6642,-2.6642,-2.7034,-2.76,-2.76,-2.76,-2.7779,-2.9037,-2.9532,-2.9804,-3.1077,-3.1511,-3.1511,-3.1511,-3.1511,-3.1511,-3.1511,-3.1511,-3.1511,-3.1511,-3.2482,-3.3499,-3.3499,-3.4517,-3.5504,-3.5504,-3.5504,-3.5504,-3.5504,-3.5504,-3.5504,-3.5504,-3.5504,-3.5504,-3.5504,-3.5504,-3.5534,-3.5624,-3.5639,-3.5639,-3.5639,-3.5714,-3.5759,-3.5759,-3.5759,-3.5759,-3.5759,-3.5759,-3.5729,-3.5639,-3.5639,-3.5594,-3.5504,-3.5594,-3.5639,-3.5639,-3.5714,-3.5759,-3.5759,-3.5759,-3.6058,-1.2077,-1.215,-1.2261,-1.2077,-1.2187,-1.2556,-1.3491,-1.3709,0.0,0.0,-1.6602,-1.6888,-1.7828,-1.8008,-1.8008,-1.8008,-1.8008,-1.8042,-1.8202,-1.8854,-1.9365,0.0,-2.0942,-2.1908,-2.1908,-2.2628,0.0,0.0,-2.3108,-2.3108,-2.3108,-2.3108,-2.3108,-2.3108,-2.3108,-2.3108,-2.3108,-2.3108,-2.3108,-2.3108,-2.3108,-2.3108,-2.3108,-2.3108,-2.3108,-2.3125,-2.3943,-2.4652,-2.5259,-2.6014,-2.6733,-2.7408,-2.7408,-2.7484,-2.76,-2.76,-2.76,-2.7705,-2.8487,-2.9131,-2.9804,-3.1077,-3.1511,-3.1511,-3.1511,-3.1511,-3.1511,-3.1511,-3.1511,-3.1511,-3.1511,-3.2482,-3.3499,-3.3499,-3.4517,-3.5504,-3.5504,-3.5504,-3.5504,-3.5504,-3.5504,-3.5504,-3.5504,-3.5504,-3.5504,-3.5504,-3.5504,-3.5699,-3.6252,-3.6312,-3.6312,-3.6312,-3.6776,-3.7075,-3.7075,-3.7075,-3.7075,-3.7075,-3.7075,-3.6851,-3.6342,-3.6312,-3.6058,-3.5519,-3.6043,-3.6312,-3.6312,-3.6836,-3.7075,-3.7075,-3.7075,-3.7135,-1.2305,-1.2305,-1.2305,-1.2305,-1.2659,-1.3273,-1.4279,0.0,0.0,0.0,-1.732,-1.7467,-1.7906,-1.8008,0.0,-1.8008,-1.8008,-1.8008,-1.8008,-1.8361,0.0,-1.9243,-2.043,-2.1396,0.0,-2.2628,-2.3108,-2.3108,-2.3108,-2.3108,-2.3108,-2.3108,-2.3108,-2.3108,-2.3108,-2.3108,-2.3108,-2.3108,-2.3108,-2.3108,-2.3108,-2.3108,-2.3108,-2.3108,-2.3108,-2.3168,-2.4366,-2.4879,-2.4951,-2.6455,-2.706,-2.706,-2.7458,-2.76,-2.76,-2.76,-2.76,-2.7705,-2.8368,-2.9026,-2.9744,-3.0687,-3.1212,-3.1511,-3.1511,-3.1511,-3.1511,-3.1511,-3.1511,-3.1585,-3.1929,-3.2766,-3.3589,-3.3918,-3.4771,-3.5504,-3.5504,-3.5504,-3.5504,-3.5504,-3.5504,-3.5504,-3.5504,-3.5504,-3.5504,-3.5504,-3.5504,-3.5744,-3.6402,-3.6761,-3.6971,-3.6971,-3.724,-3.7404,-3.7404,-3.7404,-3.7404,-3.7404,-3.7404,-3.727,-3.6985,-3.6971,-3.6821,-3.6507,-3.6806,-3.6971,-3.6971,-3.727,-3.7404,-3.7404,-3.7404,-3.7599,-1.2342,-1.2305,-1.2342,-1.2556,-1.3164,-1.4027,-1.5234,-1.6079,0.0,0.0,-1.8008,-1.8008,-1.8008,-1.8008,-1.8076,0.0,-1.811,-1.8076,-1.8236,-1.811,-1.8337,0.0,-2.0074,0.0,-2.1815,-2.2628,0.0,-2.3108,-2.3108,-2.3108,-2.3108,-2.3108,-2.3108,-2.3108,-2.3108,-2.3108,-2.3108,-2.3108,-2.3108,-2.3108,-2.3108,-2.3108,-2.3108,-2.3108,-2.3108,-2.3198,-2.4724,-2.5063,-2.4709,-2.6745,-2.7178,-2.6563,-2.7137,-2.7357,-2.7357,-2.7357,-2.7458,-2.7675,-2.8188,-2.8906,-2.9696,-3.0148,-3.0866,-3.1511,-3.1511,-3.1511,-3.1511,-3.1511,-3.1511,-3.1645,-3.2318,-3.3006,-3.3709,-3.4533,-3.5115,-3.5504,-3.5504,-3.5504,-3.5504,-3.5504,-3.5504,-3.5504,-3.5504,-3.5504,-3.5504,-3.5504,-3.5624,-3.5953,-3.6596,-3.7225,-3.7674,-3.7823,-3.7838,-3.7838,-3.7838,-3.7838,-3.7838,-3.7838,-3.7838,-3.7778,-3.7629,-3.7614,-3.7554,-3.7404,-3.7539,-3.7614,-3.7614,-3.7764,-3.7838,-3.7838,-3.7838,-3.8123,-1.2519,-1.2305,-1.2519,-1.3346,-1.3637,-1.4171,-1.6035,0.0,-1.6853,-1.7794,-1.8008,-1.8008,-1.8008,-1.8008,-1.8269,0.0,-1.8529,-1.8269,-1.9077,-1.8496,-1.8337,-1.921,0.0,0.0,-2.1815,-2.2628,-2.3108,-2.3108,-2.3108,-2.3108,-2.3108,-2.3108,-2.3108,-2.3108,-2.3108,-2.3108,-2.3108,-2.3108,-2.3108,-2.3108,-2.3108,-2.3108,-2.3108,-2.3108,-2.3108,-2.3198,-2.4724,-2.537,-2.5425,-2.6967,-2.7178,-2.651,-2.6563,-2.659,-2.659,-2.659,-2.7008,-2.76,-2.766,-2.8528,-2.9621,-2.9666,-3.0507,-3.1511,-3.1511,-3.1511,-3.1511,-3.1511,-3.1511,-3.1645,-3.2318,-3.3006,-3.3814,-3.51,-3.5459,-3.5504,-3.5504,-3.5504,-3.5504,-3.5504,-3.5504,-3.5504,-3.5504,-3.5504,-3.5504,-3.5504,-3.6013,-3.6626,-3.724,-3.7898,-3.8542,-3.9134,-3.923,-3.923,-3.923,-3.923,-3.923,-3.923,-3.923,-3.8945,-3.8317,-3.8302,-3.8018,-3.7419,-3.8003,-3.8302,-3.8302,-3.8931,-3.923,-3.923,-3.923,-3.9275,-1.4163,-1.4055,-1.4127,-1.4522,-1.5021,-1.5649,-1.6437,0.0,-1.7706,-1.8586,-1.8787,-1.8787,-1.8787,-1.9199,-1.9497,-1.9332,-1.9464,-1.9694,-2.0042,-1.9792,-1.9879,-2.0751,-2.1164,0.0,0.0,0.0,-2.3108,-2.3108,-2.3108,-2.3108,-2.3108,-2.3108,-2.3108,-2.3108,-2.3108,-2.3108,-2.3108,-2.3108,-2.3108,-2.3108,-2.3108,-2.3108,-2.3108,-2.3108,-2.3108,-2.3155,-2.425,-2.4738,-2.4823,-2.585,-2.6108,-2.5837,-2.5837,-2.6122,-2.651,-2.651,-2.6956,-2.76,-2.76,-2.8483,-2.9606,-2.9606,-3.0462,-3.1511,-3.1511,-3.1511,-3.1511,-3.1511,-3.1511,-3.175,-3.2826,-3.3903,-3.4846,-3.537,-3.5504,-3.5504,-3.5504,-3.5504,-3.5504,-3.5504,-3.5504,-3.5504,-3.5504,-3.5504,-3.5504,-3.5504,-3.6073,-3.6716,-3.733,-3.7988,-3.8661,-3.9313,-3.9388,-3.9388,-3.9388,-3.9388,-3.9388,-3.9388,-3.9388,-3.929,-3.902,-3.9005,-3.8886,-3.8631,-3.8871,-3.9005,-3.9005,-3.929,-3.9388,-3.9388,-3.9388,-3.9388,-1.5332,-1.5199,-1.5269,-1.5552,-1.6105,-1.6731,0.0,0.0,-1.862,-1.9497,-1.9683,-1.9683,-1.9683,-2.0171,-2.0494,-2.0139,-2.0365,-2.0687,-2.0942,-2.0751,-2.091,0.0,0.0,-2.223,0.0,-2.3108,-2.3108,-2.3108,-2.3108,-2.3108,-2.3108,-2.3108,-2.3108,-2.3108,-2.3108,-2.3108,-2.3108,-2.3108,-2.3108,-2.3108,-2.3108,-2.3108,-2.3108,-2.3108,-2.3108,-2.3125,-2.3943,-2.4292,-2.435,-2.5091,-2.5398,-2.5398,-2.5398,-2.5837,-2.651,-2.651,-2.6956,-2.7575,-2.7357,-2.83,-2.9552,-2.9317,-3.0279,-3.1511,-3.1511,-3.1511,-3.1511,-3.1511,-3.1795,-3.2303,-3.3245,-3.4502,-3.5504,-3.5504,-3.5504,-3.5504,-3.5504,-3.5504,-3.5504,-3.5504,-3.5504,-3.5504,-3.5504,-3.5504,-3.5504,-3.5504,-3.6222,-3.6911,-3.736,-3.8153,-3.8886,-3.9364,-3.9388,-3.9388,-3.9388,-3.9388,-3.9388,-3.9388,-3.9388,-3.9388,-3.9388,-3.9388,-3.9388,-3.9388,-3.9388,-3.9388,-3.9388,-3.9388,-3.9388,-3.9388,-3.9388,-3.9388,-1.5703,-1.5199,-1.5411,-1.6349,-1.6593,-1.7076,0.0,0.0,-1.9529,-2.0398,-2.059,-2.059,-2.059,-2.059,-2.0878,-2.171,-2.1164,-2.091,-2.1784,-2.1132,0.0,0.0,0.0,-2.223,-2.3005,-2.3108,-2.3108,-2.3108,-2.3108,-2.3108,-2.3108,-2.3108,-2.3108,-2.3108,-2.3108,-2.3108,-2.3108,-2.3108,-2.3108,-2.3108,-2.3108,-2.3108,-2.3108,-2.3108,-2.3108,-2.3125,-2.3943,-2.4292,-2.435,-2.5091,-2.5398,-2.5398,-2.5398,-2.5837,-2.651,-2.651,-2.6956,-2.7484,-2.6774,-2.7874,-2.9483,-2.8678,-2.9824,-3.1511,-3.1511,-3.1511,-3.1511,-3.1511,-3.2467,-3.3484,-3.3499,-3.4502,-3.5504,-3.5504,-3.5504,-3.5504,-3.5504,-3.5504,-3.5504,-3.5504,-3.5504,-3.5504,-3.5504,-3.5504,-3.5504,-3.5504,-3.6582,-3.7404,-3.7404,-3.8571,-3.9373,-3.9388,-3.9388,-3.9388,-3.9388,-3.9388,-3.9388,-3.9388,-3.9388,-3.9388,-3.9388,-3.9388,-3.9388,-3.9388,-3.9388,-3.9388,-3.9388,-3.9388,-3.9388,-3.9388,-3.9388,-3.9388,-1.7413,-1.7113,-1.732,-1.821,-1.8445,-1.8747,-1.9901,0.0,-2.043,-2.1302,-2.1491,-2.1491,-2.1491,-2.1928,-2.2218,-2.1939,-2.2125,-2.2402,0.0,0.0,0.0,-2.2702,-2.272,-2.2823,0.0,0.0,-2.3108,-2.3108,-2.3108,-2.3108,-2.3108,-2.3108,-2.3108,-2.3108,-2.3108,-2.3108,-2.3108,-2.3108,-2.3108,-2.3108,-2.3108,-2.3108,-2.3108,-2.3108,-2.3108,-2.3108,-2.3365,-2.3796,-2.4292,-2.3959,-2.4439,-2.5342,-2.4851,-2.5398,-2.6457,-2.5933,-2.6215,-2.68,-2.659,-2.7494,-2.8748,-2.8424,-2.9781,-3.1278,-3.0133,-3.0584,-3.1511,-3.1511,-3.2482,-3.3499,-3.3499,-3.4502,-3.5504,-3.5504,-3.5504,-3.5504,-3.5504,-3.5504,-3.5504,-3.5504,-3.5504,-3.5504,-3.5504,-3.5504,-3.5654,-3.6103,-3.6881,-3.7569,-3.8018,-3.8856,-3.9388,-3.9388,-3.9388,-3.9388,-3.9388,-3.9388,-3.9388,-3.9388,-3.9388,-3.9388,-3.9388,-3.9388,-3.9388,-3.9388,-3.9388,-3.9388,-3.9388,-3.9388,-3.9388,-3.9388,-3.9388,-3.9388,-1.8236,-1.8236,-1.862,-1.9166,-1.9562,-2.0009,0.0,0.0,-2.1333,-2.2187,-2.2353,-2.2353,-2.2353,-2.2763,-2.2944,-2.2445,-2.2763,-2.3108,0.0,0.0,0.0,-2.3108,0.0,0.0,0.0,-2.3108,-2.3108,-2.3108,-2.3108,-2.3108,-2.3108,-2.3108,-2.3108,-2.3108,-2.3108,-2.3108,-2.3108,-2.3108,-2.3108,-2.3108,-2.3108,-2.3108,-2.3108,-2.3108,-2.3108,-2.3108,-2.3108,-2.3395,0.0,-2.3305,-2.4018,-2.5342,-2.4908,-2.5453,-2.6457,-2.5987,-2.6122,-2.6431,-2.5864,-2.6861,-2.8297,-2.8011,-2.9348,-3.0807,-2.9411,-2.995,-3.1117,-3.1409,-3.2482,-3.3499,-3.3499,-3.4502,-3.5504,-3.5504,-3.5504,-3.5504,-3.5504,-3.5504,-3.5504,-3.5504,-3.5504,-3.5504,-3.5504,-3.5504,-3.5729,-3.6387,-3.7015,-3.7644,-3.8302,-3.899,-3.9388,-3.9388,-3.9388,-3.9388,-3.9388,-3.9388,-3.9388,-3.9388,-3.9388,-3.9388,-3.9388,-3.9388,-3.9388,-3.9388,-3.9388,-3.9388,-3.9388,-3.9388,-3.9388,-3.9388,-3.9388,-3.9388,0.0,-1.863,-1.9299,-1.9365,-2.0042,-2.091,-2.1784,0.0,0.0,-2.2957,-2.3108,-2.3108,-2.3108,-2.3108,-2.3108,-2.3108,-2.3108,0.0,0.0,-2.3108,0.0,0.0,-2.3108,0.0,-2.3108,-2.3108,-2.3108,-2.3108,-2.3108,-2.3108,-2.3108,-2.3108,-2.3108,-2.3108,-2.3108,-2.3108,-2.3108,-2.3108,-2.3108,-2.3108,-2.3108,-2.3108,-2.3108,-2.3108,-2.3108,-2.3108,-2.3108,-2.3108,-2.3108,-2.3108,-2.4018,-2.5398,-2.5342,-2.5783,-2.6484,-2.6457,-2.6431,-2.6229,-2.4851,-2.607,-2.8126,-2.7587,-2.8609,-2.9889,-2.9223,-2.9566,-3.0389,-3.119,-3.2378,-3.3423,-3.3499,-3.4502,-3.5504,-3.5504,-3.5504,-3.5504,-3.5504,-3.5504,-3.5504,-3.5504,-3.5504,-3.5504,-3.5504,-3.5504,-3.5744,-3.6447,-3.7045,-3.7659,-3.8377,-3.902,-3.9388,-3.9388,-3.9388,-3.9388,-3.9388,-3.9388,-3.9388,-3.9388,-3.9388,-3.9388,-3.9388,-3.9388,-3.9388,-3.9388,-3.9388,-3.9388,-3.9388,-3.9388,-3.9388,-3.9388,-3.9388,-3.9388,-1.8076,0.0,-1.9464,-2.0139,-2.0942,-2.1803,0.0,0.0,0.0,0.0,0.0,-2.3108,-2.3108,-2.3108,-2.3108,-2.3108,0.0,-2.3108,-2.3108,0.0,0.0,-2.3108,-2.3108,-2.3108,-2.3108,-2.3108,-2.3108,-2.3108,-2.3108,-2.3108,-2.3108,-2.3108,-2.3108,-2.3108,-2.3108,-2.3108,-2.3108,-2.3108,-2.3108,-2.3108,-2.3108,-2.3108,-2.3108,-2.3108,-2.3108,-2.3108,-2.3108,-2.3108,-2.3108,-2.3108,-2.4018,-2.5342,-2.4794,-2.5342,-2.6431,-2.5864,-2.5646,-2.5618,-2.5259,-2.6156,-2.7583,-2.8363,-2.8037,-2.7571,-2.8684,-2.9129,-2.9473,-3.0329,-3.15,-3.2647,-3.3331,-3.4502,-3.5504,-3.5504,-3.5504,-3.5504,-3.5504,-3.5504,-3.5504,-3.5504,-3.5504,-3.5504,-3.5504,-3.5504,-3.5893,-3.703,-3.7315,-3.7838,-3.902,-3.932,-3.9388,-3.9388,-3.9388,-3.9388,-3.9388,-3.9388,-3.9388,-3.9388,-3.9388,-3.9388,-3.9388,-3.9388,-3.9388,-3.9388,-3.9388,-3.9388,-3.9388,-3.9388,-3.9388,-3.9388,-3.9388,-3.9388,-1.8008,-1.863,-1.9497,-2.0365,-2.127,-2.2094,-2.2914,0.0,0.0,0.0,0.0,-2.3108,-2.3108,-2.3108,-2.3108,0.0,-2.3108,0.0,0.0,0.0,-2.3108,-2.3108,-2.3108,-2.3108,-2.3108,-2.3108,-2.3108,-2.3108,-2.3108,-2.3108,-2.3108,-2.3108,-2.3108,-2.3108,-2.3108,-2.3108,-2.3108,-2.3108,-2.3108,-2.3108,-2.3108,-2.3108,-2.3108,-2.3108,-2.3108,-2.3108,-2.3108,-2.3108,-2.3108,-2.3108,-2.3813,-2.4879,-2.4452,-2.4794,-2.5425,-2.5035,-2.5119,-2.5287,-2.4582,-2.5387,-2.6827,-2.7613,-2.7484,-2.7162,-2.7703,-2.7855,-2.8117,-2.9348,-3.0581,-3.1771,-3.2679,-3.3853,-3.4953,-3.5392,-3.5504,-3.5504,-3.5504,-3.5504,-3.5504,-3.5504,-3.5504,-3.5504,-3.5504,-3.5504,-3.5938,-3.7225,-3.7404,-3.7898,-3.9245,-3.9388,-3.9388,-3.9388,-3.9388,-3.9388,-3.9388,-3.9388,-3.9388,-3.9388,-3.9388,-3.9388,-3.9388,-3.9388,-3.9388,-3.9388,-3.9388,-3.9388,-3.9388,-3.9388,-3.9388,-3.9388,-3.9388,-3.9388,-1.8008,-1.863,-1.9497,-2.0365,-2.127,-2.2094,-2.2914,0.0,0.0,0.0,0.0,0.0,0.0,-2.3108,0.0,0.0,0.0,0.0,-2.3108,-2.3108,-2.3108,-2.3108,-2.3108,-2.3108,-2.3108,-2.3108,-2.3108,-2.3108,-2.3108,-2.3108,-2.3108,-2.3108,-2.3108,-2.3108,-2.3108,-2.3108,-2.3108,-2.3108,-2.3108,-2.3108,-2.3108,-2.3108,-2.3108,-2.3108,-2.3108,-2.3108,-2.3108,-2.3108,-2.3108,-2.3108,-2.3573,-2.4292,-2.4176,-2.4205,-2.4292,-2.4292,-2.4709,-2.5062,-2.3918,-2.4566,-2.5968,-2.6358,-2.6973,-2.7384,-2.6714,-2.6499,-2.6816,-2.8214,-2.9578,-3.0831,-3.1738,-3.2878,-3.4027,-3.5019,-3.5279,-3.5311,-3.5472,-3.5504,-3.5504,-3.5504,-3.5504,-3.5504,-3.5504,-3.5594,-3.6058,-3.7225,-3.7494,-3.8003,-3.926,-3.9388,-3.9388,-3.9388,-3.9388,-3.9388,-3.9388,-3.9388,-3.9388,-3.9388,-3.9388,-3.9388,-3.9388,-3.9388,-3.9388,-3.9388,-3.9388,-3.9388,-3.9388,-3.9388,-3.9388,-3.9388,-3.9388,-3.9388,-1.8008,-1.863,-1.9497,-2.0365,-2.127,-2.2094,-2.2914,0.0,0.0,0.0,0.0,0.0,0.0,-2.3108,-2.3108,0.0,0.0,-2.3108,0.0,0.0,-2.3108,-2.3108,0.0,-2.3108,-2.3108,-2.3108,-2.3108,-2.3108,-2.3108,-2.3108,-2.3108,-2.3108,-2.3108,-2.3108,-2.3108,-2.3108,-2.3108,-2.3108,-2.3108,-2.3108,-2.3108,-2.3108,-2.3108,-2.3108,-2.3108,-2.3108,-2.3108,-2.3108,-2.3108,-2.3108,-2.3573,-2.4234,-2.3543,-2.3708,-2.4292,-2.4292,-2.4379,-2.4569,-2.5223,-2.5272,-2.519,-2.6168,-2.6589,-2.6658,-2.6521,-2.6499,-2.6555,-2.6816,-2.8239,-2.9891,-3.0798,-3.1902,-3.3066,-3.3993,-3.4245,-3.4461,-3.5326,-3.5504,-3.5504,-3.5504,-3.5504,-3.5504,-3.5504,-3.5968,-3.6582,-3.73,-3.7883,-3.8527,-3.932,-3.9388,-3.9388,-3.9388,-3.9388,-3.9388,-3.9388,-3.9388,-3.9388,-3.9388,-3.9388,-3.9388,-3.9388,-3.9388,-3.9388,-3.9388,-3.9388,-3.9388,-3.9388,-3.9388,-3.9388,-3.9388,-3.9388,-3.9388,-1.8008,-1.8303,-1.8911,-2.0268,-2.127,-2.2094,-2.2914,0.0,0.0,0.0,0.0,0.0,0.0,0.0,-2.3108,-2.3108,0.0,-2.3108,-2.3108,-2.3108,-2.3108,0.0,-2.3108,-2.3108,-2.3108,-2.3108,-2.3108,-2.3108,-2.3108,-2.3108,-2.3108,-2.3108,-2.3108,-2.3108,-2.3108,-2.3108,-2.3108,-2.3108,-2.3108,-2.3108,-2.3108,-2.3108,-2.3108,-2.3108,-2.3108,-2.3108,-2.3108,-2.3108,-2.3108,-2.3108,-2.3305,-2.3619,-2.3245,-2.3335,-2.3708,-2.4147,-2.4292,-2.4451,-2.5524,-2.5427,-2.5008,-2.6135,-2.6499,-2.6499,-2.6499,-2.6499,-2.6499,-2.6499,-2.7583,-2.8948,-2.9856,-3.0975,-3.2213,-3.3671,-3.3993,-3.4279,-3.5279,-3.5504,-3.5504,-3.5504,-3.5504,-3.5504,-3.5504,-3.6058,-3.6686,-3.7315,-3.7973,-3.8631,-3.9334,-3.9388,-3.9388,-3.9388,-3.9388,-3.9388,-3.9388,-3.9388,-3.9388,-3.9388,-3.9388,-3.9388,-3.9388,-3.9388,-3.9388,-3.9388,-3.9388,-3.9388,-3.9388,-3.9388,-3.9388,-3.9388,-3.9388,-3.9388,-1.8008,-1.8144,-1.862,-1.9944,-2.0814,-2.1616,-2.2811,-2.2944,0.0,0.0,0.0,0.0,0.0,-2.3108,0.0,-2.3108,-2.3108,-2.3108,-2.3108,-2.3108,-2.3108,-2.3108,-2.3108,-2.3108,-2.3108,-2.3108,-2.3108,-2.3108,-2.3108,-2.3108,-2.3108,-2.3108,-2.3108,-2.3108,-2.3108,-2.3108,-2.3108,-2.3108,-2.3108,-2.3108,-2.3108,-2.3108,-2.3108,-2.3108,-2.3108,-2.3108,-2.3108,-2.3108,-2.3108,-2.3108,-2.3108,-2.3108,-2.3108,-2.3108,-2.3155,-2.3796,-2.4031,-2.4158,-2.5261,-2.5281,-2.5008,-2.6135,-2.6499,-2.6499,-2.6499,-2.6499,-2.6524,-2.665,-2.7356,-2.8279,-2.8983,-3.0178,-3.1609,-3.3276,-3.3842,-3.4279,-3.5279,-3.5504,-3.5504,-3.5504,-3.5504,-3.5504,-3.5504,-3.6163,-3.6866,-3.7345,-3.8108,-3.8826,-3.9313,-3.9388,-3.9388,-3.9388,-3.9388,-3.9388,-3.9388,-3.9388,-3.9388,-3.9388,-3.9388,-3.9388,-3.9388,-3.9388,-3.9388,-3.9388,-3.9388,-3.9388,-3.9388,-3.9388,-3.9388,-3.9388,-3.9388,-3.9388,-1.8008,-1.8596,-1.9233,-1.9365,-1.9431,0.0,-2.2555,-2.2506,0.0,-2.2957,0.0,0.0,0.0,-2.3108,-2.3108,-2.3108,-2.3108,-2.3108,-2.3108,-2.3108,-2.3108,-2.3108,-2.3108,-2.3108,-2.3108,-2.3108,-2.3108,-2.3108,-2.3108,-2.3108,-2.3108,-2.3108,-2.3108,-2.3108,-2.3108,-2.3108,-2.3108,-2.3108,-2.3108,-2.3108,-2.3108,-2.3108,-2.3108,-2.3108,-2.3108,-2.3108,-2.3108,-2.3108,-2.3108,-2.3108,-2.3108,-2.3108,-2.3108,-2.3108,-2.3108,-2.3168,-2.3198,-2.3349,-2.4482,-2.484,-2.5008,-2.6135,-2.6499,-2.6499,-2.6499,-2.6499,-2.66,-2.7115,-2.7657,-2.8109,-2.817,-2.9693,-3.1462,-3.2464,-3.338,-3.4279,-3.5279,-3.5504,-3.5504,-3.5504,-3.5504,-3.5504,-3.5504,-3.6522,-3.736,-3.7404,-3.8512,-3.9364,-3.9373,-3.9388,-3.9388,-3.9388,-3.9388,-3.9388,-3.9388,-3.9388,-3.9388,-3.9388,-3.9388,-3.9388,-3.9388,-3.9388,-3.9388,-3.9388,-3.9388,-3.9388,-3.9388,-3.9388,-3.9388,-3.9388,-3.9388,-3.9388,-1.8008,-1.8236,-1.862,-1.9166,-1.8877,0.0,0.0,-2.2506,-2.2598,-2.2384,-2.2763,0.0,0.0,0.0,-2.2944,-2.2445,-2.2353,-2.2353,-2.2353,-2.2353,-2.2537,-2.3035,-2.3108,-2.3108,-2.3108,-2.3108,-2.3108,-2.3108,-2.3108,-2.3108,-2.3108,-2.3108,-2.3108,-2.3108,-2.3108,-2.3108,-2.3108,-2.3108,-2.3108,-2.3108,-2.3108,-2.3108,-2.3108,-2.3108,-2.3108,-2.3108,-2.3108,-2.3108,-2.3108,-2.3108,-2.3108,-2.3155,-2.3662,-2.3855,-2.3855,-2.3855,-2.3855,-2.3935,-2.4589,-2.4788,-2.5008,-2.6135,-2.6499,-2.6499,-2.6499,-2.6499,-2.6612,-2.7165,-2.7682,-2.8185,-2.8524,-2.9877,-3.1278,-3.1646,-3.289,-3.4095,-3.4476,-3.5067,-3.5504,-3.5504,-3.5504,-3.5504,-3.5504,-3.6567,-3.7404,-3.7404,-3.8556,-3.9388,-3.9388,-3.9388,-3.9388,-3.9388,-3.9388,-3.9388,-3.9388,-3.9388,-3.9388,-3.9388,-3.9388,-3.9388,-3.9388,-3.9388,-3.9388,-3.9388,-3.9388,-3.9388,-3.9388,-3.9388,-3.9388,-3.9388,-3.9388,-3.9388,-1.8821,-1.8821,-1.8944,0.0,0.0,0.0,-2.1491,-2.2125,-2.231,-2.2279,-2.2596,0.0,-2.307,0.0,0.0,0.0,-2.2292,-2.2187,-2.1939,-2.2137,-2.2384,-2.2702,-2.2957,-2.3108,-2.3108,-2.3108,-2.3108,-2.3108,-2.3108,-2.3108,-2.3108,-2.3108,-2.3108,-2.3108,-2.3108,-2.3108,-2.3108,-2.3108,-2.3108,-2.3108,-2.3108,-2.3108,-2.3108,-2.3108,-2.3108,-2.3108,-2.3108,-2.3108,-2.3138,-2.3365,-2.3484,-2.3514,-2.3796,-2.3914,-2.3914,-2.3914,-2.3914,-2.3994,-2.4608,-2.4788,-2.5008,-2.6135,-2.6499,-2.6499,-2.6499,-2.6499,-2.665,-2.7344,-2.7821,-2.8273,-2.9013,-3.0186,-3.1217,-3.1217,-3.2429,-3.3567,-3.3567,-3.4327,-3.5019,-3.5019,-3.5279,-3.5504,-3.5504,-3.6567,-3.7404,-3.7404,-3.8556,-3.9388,-3.9388,-3.9388,-3.9388,-3.9388,-3.9388,-3.9388,-3.9388,-3.9388,-3.9388,-3.9388,-3.9388,-3.9388,-3.9388,-3.9388,-3.9388,-3.9388,-3.9388,-3.9388,-3.9388,-3.9388,-3.9388,-3.9388,-3.9388,-3.9388,-2.059,-2.059,-2.059,0.0,0.0,0.0,-2.1908,-2.1227,-2.1089,-2.275,-2.2669,-2.2456,-2.2977,-2.2656,0.0,-2.299,-2.3078,-2.2793,-2.2002,-2.2567,-2.2793,-2.2002,-2.2598,-2.3078,-2.3108,-2.3108,-2.3108,-2.3108,-2.3108,-2.3108,-2.3108,-2.3108,-2.3108,-2.3108,-2.3108,-2.3108,-2.3108,-2.3108,-2.3108,-2.3108,-2.3108,-2.3108,-2.3108,-2.3108,-2.3108,-2.3108,-2.3108,-2.3108,-2.3155,-2.3972,-2.4292,-2.4234,-2.3424,-2.3108,-2.3108,-2.3108,-2.3108,-2.3271,-2.4399,-2.4788,-2.4976,-2.6135,-2.6499,-2.6499,-2.6499,-2.6499,-2.6725,-2.7795,-2.8109,-2.836,-2.9503,-3.0482,-3.118,-3.118,-3.1924,-3.2593,-3.2593,-3.3345,-3.3993,-3.3993,-3.4806,-3.5504,-3.5504,-3.6567,-3.7404,-3.7404,-3.8556,-3.9388,-3.9388,-3.9388,-3.9388,-3.9388,-3.9388,-3.9388,-3.9388,-3.9388,-3.9388,-3.9388,-3.9388,-3.9388,-3.9388,-3.9388,-3.9388,-3.9388,-3.9388,-3.9388,-3.9388,-3.9388,-3.9388,-3.9388,-3.9388,-3.9388,-2.059,-2.059,0.0,-2.059,0.0,0.0,0.0,-2.1837,0.0,0.0,-2.1759,-2.1335,-2.2101,-2.1611,0.0,-2.133,-2.1353,-2.1259,-2.1005,-2.1195,-2.1491,-2.1846,-2.2094,-2.2476,-2.3047,-2.3108,-2.3108,-2.3108,-2.3108,-2.3108,-2.3108,-2.3108,-2.3108,-2.3108,-2.3108,-2.3108,-2.3108,-2.3108,-2.3108,-2.3108,-2.3108,-2.3108,-2.3108,-2.3108,-2.3108,-2.3108,-2.3108,-2.3424,-2.3972,-2.4205,-2.4292,-2.4292,-2.4031,-2.359,-2.3168,-2.375,-2.3859,-2.3853,-2.4537,-2.5059,-2.5485,-2.6248,-2.6499,-2.6499,-2.6499,-2.6499,-2.6725,-2.7795,-2.8109,-2.836,-2.9503,-2.9998,-3.0216,-3.0216,-3.1439,-3.2429,-3.1742,-3.289,-3.3993,-3.3993,-3.4806,-3.5504,-3.5504,-3.6567,-3.7404,-3.7404,-3.8556,-3.9388,-3.9388,-3.9388,-3.9388,-3.9388,-3.9388,-3.9388,-3.9388,-3.9388,-3.9388,-3.9388,-3.9388,-3.9388,-3.9388,-3.9388,-3.9388,-3.9388,-3.9388,-3.9388,-3.9388,-3.9388,-3.9388,-3.9388,-3.9388,-3.9388,-2.1667,-2.1604,0.0,-2.1604,-2.1604,-2.1682,-2.1983,0.0,0.0,0.0,-2.1892,-2.1493,-2.2243,-2.1502,0.0,-2.1078,-2.1101,-2.1017,-2.0655,-2.091,-2.1302,-2.1846,-2.1908,-2.223,-2.3005,-2.3108,-2.3108,-2.3108,-2.3108,-2.3108,-2.3108,-2.3108,-2.3108,-2.3108,-2.3108,-2.3108,-2.3108,-2.3108,-2.3108,-2.3108,-2.3108,-2.3108,-2.3108,-2.3108,-2.3108,-2.3108,-2.3108,-2.3573,-2.4292,-2.3943,-2.4002,-2.4263,-2.3943,-2.3543,-2.3168,-2.3649,-2.3914,-2.4079,-2.46,-2.5159,-2.5686,-2.6298,-2.6499,-2.6499,-2.6499,-2.6499,-2.6725,-2.7795,-2.8109,-2.836,-2.9503,-2.9792,-2.9792,-2.9792,-3.0671,-3.1341,-3.0771,-3.2105,-3.3449,-3.3449,-3.4558,-3.5504,-3.5504,-3.6567,-3.7404,-3.7404,-3.8556,-3.9388,-3.9388,-3.9388,-3.9388,-3.9388,-3.9388,-3.9388,-3.9388,-3.9388,-3.9388,-3.9388,-3.9388,-3.9388,-3.9388,-3.9388,-3.9388,-3.9388,-3.9388,-3.9388,-3.9388,-3.9388,-3.9388,-3.9388,-3.9388,-3.9388,-2.3424,-2.3215,0.0,-2.3138,-2.3108,0.0,-2.2468,-2.2744,-2.3095,-2.3045,0.0,-2.2418,-2.2887,-2.188,-2.1143,-2.1701,-2.1846,-2.1596,-2.0719,-2.127,-2.1815,-2.1877,-2.1815,-2.2125,-2.3005,-2.3108,-2.3108,-2.3108,-2.3108,-2.3108,-2.3108,-2.3108,-2.3108,-2.3108,-2.3108,-2.3108,-2.3108,-2.3108,-2.3108,-2.3108,-2.3108,-2.3108,-2.3108,-2.3108,-2.3108,-2.3108,-2.3198,-2.3619,-2.4263,-2.359,-2.3708,-2.4234,-2.3484,-2.3155,-2.3108,-2.3108,-2.3496,-2.4142,-2.4612,-2.5197,-2.5762,-2.6323,-2.6499,-2.6499,-2.6499,-2.6499,-2.6725,-2.7795,-2.8109,-2.836,-2.9503,-2.9792,-2.9792,-2.9792,-2.9792,-2.9792,-2.9792,-3.1206,-3.2464,-3.2464,-3.3973,-3.5246,-3.5359,-3.6417,-3.7331,-3.7535,-3.8631,-3.9388,-3.9388,-3.9388,-3.9388,-3.9388,-3.9388,-3.9388,-3.9388,-3.9388,-3.9388,-3.9388,-3.9388,-3.9388,-3.9388,-3.9388,-3.9388,-3.9388,-3.9388,-3.9388,-3.9388,-3.9388,-3.9388,-3.9388,-3.9388,-3.9388,-2.4263,-2.4031,0.0,0.0,-2.3108,-2.307,-2.2957,-2.302,-2.2982,-2.2543,-2.2217,-2.2024,-2.2144,-2.1366,-2.0722,-2.0867,-2.1459,-2.1596,-2.0719,-2.0751,-2.1132,-2.1815,-2.1302,-2.1447,-2.2944,-2.3108,-2.3108,-2.3108,-2.3108,-2.3108,-2.3108,-2.3108,-2.3108,-2.3108,-2.3108,-2.3108,-2.3108,-2.3108,-2.3108,-2.3108,-2.3108,-2.3108,-2.3108,-2.3108,-2.3108,-2.3138,-2.3767,-2.4147,-2.4321,-2.4724,-2.4681,-2.4292,-2.4118,-2.3662,-2.3108,-2.3108,-2.3747,-2.4625,-2.475,-2.546,-2.6336,-2.6449,-2.6499,-2.6499,-2.6499,-2.6499,-2.6725,-2.7795,-2.8109,-2.836,-2.9503,-2.9792,-2.9792,-2.9792,-2.9792,-2.9792,-2.9792,-3.0696,-3.1499,-3.1499,-3.2429,-3.3463,-3.4211,-3.5407,-3.6898,-3.8704,-3.923,-3.9388,-3.9388,-3.9388,-3.9388,-3.9388,-3.9388,-3.9388,-3.9388,-3.9388,-3.9388,-3.9388,-3.9388,-3.9388,-3.9388,-3.9388,-3.9388,-3.9388,-3.9388,-3.9388,-3.9388,-3.9388,-3.9388,-3.9388,-3.9388,-3.9388,-2.5035,0.0,0.0,-2.4295,0.0,-2.3679,-2.3679,-2.3365,-2.302,-2.2732,-2.2565,-2.2476,-2.2476,-2.1772,-2.1239,-2.1239,-2.1596,-2.1753,-2.1302,-2.1239,-2.1522,-2.2384,-2.1741,-2.171,-2.2975,-2.3108,-2.3108,-2.3108,-2.3108,-2.3108,-2.3108,-2.3108,-2.3108,-2.3108,-2.3108,-2.3108,-2.3108,-2.3108,-2.3108,-2.3108,-2.3108,-2.3108,-2.3108,-2.3108,-2.3108,-2.3138,-2.3531,-2.3721,-2.3767,-2.4134,-2.4076,-2.3721,-2.3721,-2.3484,-2.3108,-2.3108,-2.3822,-2.4788,-2.4788,-2.5536,-2.6499,-2.6499,-2.6499,-2.6499,-2.6499,-2.6499,-2.6725,-2.7795,-2.8109,-2.836,-2.9503,-2.9792,-2.9792,-2.9792,-2.9792,-2.9792,-2.9792,-3.052,-3.1217,-3.1217,-3.196,-3.2749,-3.3241,-3.4803,-3.6613,-3.8392,-3.9068,-3.9388,-3.9388,-3.9388,-3.9388,-3.9388,-3.9388,-3.9388,-3.9388,-3.9388,-3.9388,-3.9388,-3.9388,-3.9388,-3.9388,-3.9388,-3.9388,-3.9388,-3.9388,-3.9388,-3.9388,-3.9388,-3.9388,-3.9388,-3.9388,-3.9388,-2.5783,0.0,-2.5398,-2.5398,-2.4922,0.0,-2.4481,-2.3959,-2.3442,-2.3335,-2.3198,-2.3108,-2.3108,-2.2567,-2.2063,-2.1908,-2.2002,-2.2063,-2.1908,-2.1908,-2.2199,-2.3005,-2.2384,-2.223,-2.3005,-2.3108,-2.3108,-2.3108,-2.3108,-2.3108,-2.3108,-2.3108,-2.3108,-2.3108,-2.3108,-2.3108,-2.3108,-2.3108,-2.3108,-2.3108,-2.3108,-2.3108,-2.3108,-2.3108,-2.3108,-2.3108,-2.3258,-2.3305,-2.3305,-2.3305,-2.3305,-2.3305,-2.3305,-2.3215,-2.3108,-2.3221,-2.391,-2.48,-2.4888,-2.5611,-2.6499,-2.6499,-2.6499,-2.6499,-2.6499,-2.6499,-2.6725,-2.7795,-2.8109,-2.836,-2.9503,-2.9792,-2.9792,-2.9792,-2.9792,-2.9792,-2.9792,-3.0419,-3.097,-3.097,-3.1719,-3.2412,-3.2631,-3.4373,-3.62,-3.7604,-3.8546,-3.9177,-3.9388,-3.9388,-3.9388,-3.9388,-3.9388,-3.9388,-3.9388,-3.9388,-3.9388,-3.9388,-3.9388,-3.9388,-3.9388,-3.9228,-3.9104,-3.9104,-3.9301,-3.9301,-3.9104,-3.9104,-3.9017,-3.8855,-3.9031,-3.9104,0.0,0.0,-2.5398,0.0,-2.5315,-2.5259,0.0,0.0,-2.4894,0.0,-2.3603,-2.3108,-2.3108,-2.3017,-2.2689,-2.2002,-2.2476,-2.2702,-2.2013,-2.1908,-2.2199,-2.3005,-2.2384,-2.223,-2.3005,-2.3108,-2.3108,-2.3108,-2.3108,-2.3108,-2.3108,-2.3108,-2.3108,-2.3108,-2.3108,-2.3108,-2.3108,-2.3108,-2.3108,-2.3108,-2.3108,-2.3108,-2.3108,-2.3108,-2.3108,-2.3125,-2.3826,-2.4147,-2.4147,-2.4147,-2.4147,-2.4147,-2.4147,-2.3708,-2.3158,-2.3703,-2.428,-2.4883,-2.5335,-2.5946,-2.6499,-2.6499,-2.6499,-2.6499,-2.6499,-2.6499,-2.6725,-2.7795,-2.8109,-2.836,-2.9503,-2.9792,-2.9792,-2.9792,-2.9792,-2.9792,-2.9792,-2.9895,-3.0011,-3.0011,-3.072,-3.1721,-3.2758,-3.3867,-3.5358,-3.7476,-3.7919,-3.8345,-3.9265,-3.9388,-3.9388,-3.9388,-3.9388,-3.9388,-3.9388,-3.9388,-3.9388,-3.9388,-3.9388,-3.9388,-3.9388,-3.8509,-3.7994,-3.7994,-3.8943,-3.8943,-3.7994,-3.7994,-3.7534,-3.6643,-3.7587,-3.7994,-2.7291,-2.6864,-2.6613,0.0,-2.6322,-2.6014,-2.6014,0.0,-2.5315,-2.4979,-2.4639,-2.4121,-2.3245,-2.3108,-2.2975,-2.2628,-2.2884,-2.2975,-2.2628,-2.2567,-2.2702,-2.3078,-2.2793,-2.2689,-2.3078,-2.3108,-2.3108,-2.3108,-2.3108,-2.3108,-2.3108,-2.3108,-2.3108,-2.3108,-2.3108,-2.3108,-2.3108,-2.3108,-2.3108,-2.3108,-2.3108,-2.3108,-2.3108,-2.3573,-2.3543,-2.3138,-2.3484,-2.3632,-2.3632,-2.3632,-2.3632,-2.3632,-2.3632,-2.3424,-2.317,-2.3791,-2.4343,-2.4863,-2.541,-2.6009,-2.6499,-2.6499,-2.6499,-2.6499,-2.6499,-2.6713,-2.7115,-2.7883,-2.8335,-2.875,-2.9578,-2.9792,-2.9792,-2.9792,-2.9792,-2.9792,-2.9792,-2.9792,-2.9792,-2.9792,-3.0139,-3.0778,-3.1896,-3.2922,-3.4385,-3.6553,-3.742,-3.7956,-3.8435,-3.8509,-3.8509,-3.8509,-3.8509,-3.8745,-3.9337,-3.9388,-3.9388,-3.9388,-3.9388,-3.9141,-3.8546,-3.8032,-3.751,-3.693,-3.7367,-3.7367,-3.6891,-3.6891,-3.6982,-3.7098,-3.6968,-3.7534,0.0,0.0,-2.8018,-2.7885,-2.7418,-2.6967,0.0,0.0,-2.5919,0.0,-2.5673,-2.5273,-2.393,-2.3666,-2.3619,-2.3454,-2.3395,-2.3335,-2.3138,-2.3108,-2.3108,-2.3108,-2.3108,-2.3108,-2.3108,-2.3108,-2.3108,-2.3108,-2.3108,-2.3108,-2.3108,-2.3108,-2.3108,-2.3108,-2.3108,-2.3108,-2.3108,-2.3108,-2.3108,-2.3108,-2.3108,-2.3108,-2.3138,-2.3708,-2.3649,-2.3108,-2.3305,-2.3395,-2.3395,-2.3185,-2.3215,-2.3395,-2.3198,-2.3195,-2.3396,-2.4004,-2.4556,-2.5096,-2.5636,-2.6135,-2.6499,-2.6499,-2.6499,-2.6499,-2.6499,-2.6876,-2.7394,-2.7946,-2.8499,-2.9026,-2.9641,-2.9792,-2.9792,-2.9792,-2.9792,-2.9792,-2.9792,-2.9792,-2.9792,-2.9792,-2.9792,-3.0131,-3.121,-3.2049,-3.3318,-3.5478,-3.6515,-3.7112,-3.7343,-3.7381,-3.7381,-3.7381,-3.7625,-3.8107,-3.8943,-3.9228,-3.9265,-3.9017,-3.898,-3.8509,-3.742,-3.7151,-3.6632,-3.5814,-3.5534,-3.5547,-3.5814,-3.5814,-3.6107,-3.6607,-3.6067,-3.6671,0.0,-2.9316,0.0,-2.8606,-2.8415,0.0,0.0,0.0,-2.728,-2.659,-2.6457,-2.6203,-2.5425,-2.5287,-2.5063,-2.4337,-2.4234,-2.3972,-2.3215,-2.3108,-2.3108,-2.3108,-2.3108,-2.3108,-2.3108,-2.3108,-2.3108,-2.3108,-2.3108,-2.3108,-2.3108,-2.3108,-2.3108,-2.3108,-2.3108,-2.3108,-2.3108,-2.3108,-2.3108,-2.3108,-2.3108,-2.3108,-2.3108,-2.3125,-2.3125,-2.3125,-2.3914,-2.4234,-2.4176,-2.3424,-2.3543,-2.4147,-2.3395,-2.3446,-2.4017,-2.4569,-2.5109,-2.5636,-2.6248,-2.6461,-2.6499,-2.6499,-2.6499,-2.6499,-2.6499,-2.6876,-2.7394,-2.7946,-2.8499,-2.9026,-2.9641,-2.9792,-2.9792,-2.9792,-2.9792,-2.9792,-2.9792,-2.9792,-2.9792,-2.9792,-2.9792,-3.0131,-3.121,-3.1427,-3.223,-3.4451,-3.4828,-3.521,-3.6172,-3.6277,-3.6277,-3.6277,-3.7175,-3.7829,-3.7866,-3.8819,-3.898,-3.7956,-3.7866,-3.7381,-3.633,-3.5359,-3.4828,-3.4787,-3.3797,-3.3755,-3.4787,-3.4787,-3.4262,-3.3356,-3.4304,-3.4828,0.0,0.0,0.0,-2.9134,-2.8779,-2.8439,-2.8238,-2.7885,-2.7524,-2.7255,-2.7203,-2.7111,-2.6864,-2.6054,-2.5147,-2.4436,-2.4292,-2.4031,-2.3215,-2.3108,-2.3108,-2.3108,-2.3108,-2.3108,-2.3108,-2.3108,-2.3108,-2.3108,-2.3108,-2.3108,-2.3108,-2.3108,-2.3108,-2.3108,-2.359,-2.3884,-2.3884,-2.3365,-2.3108,-2.3108,-2.3108,-2.3108,-2.3138,-2.3619,-2.3603,-2.3125,-2.3943,-2.4002,-2.3514,-2.3215,-2.3275,-2.3514,-2.3215,-2.3459,-2.4067,-2.4587,-2.5146,-2.5686,-2.6298,-2.6499,-2.6499,-2.6499,-2.6499,-2.6499,-2.6499,-2.7128,-2.7846,-2.8047,-2.8775,-2.9528,-2.9741,-2.9792,-2.9792,-2.9792,-2.9792,-2.9792,-2.9792,-2.9792,-2.9792,-2.9792,-2.9792,-3.0131,-3.121,-3.1386,-3.2161,-3.4369,-3.4705,-3.4815,-3.521,-3.5251,-3.5251,-3.5251,-3.6146,-3.6774,-3.6774,-3.7738,-3.7904,-3.6852,-3.6774,-3.6304,-3.5278,-3.4897,-3.4387,-3.367,-3.3313,-3.3283,-3.367,-3.367,-3.3839,-3.4108,-3.3797,-3.4374,-3.0123,0.0,0.0,0.0,-2.9406,-2.9012,-2.8583,-2.8189,-2.7845,-2.7635,-2.76,-2.76,-2.76,-2.6811,-2.5837,-2.4823,-2.4681,-2.4394,-2.3619,-2.3275,-2.3198,-2.3484,-2.3245,-2.3108,-2.3108,-2.3108,-2.3108,-2.3108,-2.3108,-2.3108,-2.3108,-2.3108,-2.3108,-2.3108,-2.3619,-2.4031,-2.4292,-2.3514,-2.3258,-2.3514,-2.3215,-2.3245,-2.3514,-2.3767,-2.3738,-2.3514,-2.3767,-2.3603,-2.3108,-2.3108,-2.3108,-2.3108,-2.3108,-2.3572,-2.4318,-2.4662,-2.5272,-2.5971,-2.6361,-2.6499,-2.6499,-2.6499,-2.6499,-2.6499,-2.6499,-2.7231,-2.8109,-2.8109,-2.8925,-2.9792,-2.9792,-2.9792,-2.9792,-2.9792,-2.9792,-2.9792,-2.9792,-2.9792,-2.9792,-2.9792,-2.9792,-3.0131,-3.121,-3.1386,-3.2038,-3.3897,-3.415,-3.415,-3.415,-3.415,-3.415,-3.415,-3.5088,-3.5708,-3.5708,-3.6657,-3.6813,-3.5734,-3.5708,-3.5238,-3.4191,-3.415,-3.3839,-3.3124,-3.3124,-3.3124,-3.3124,-3.3124,-3.3471,-3.415,-3.3441,-3.3827,0.0,0.0,0.0,0.0,0.0,0.0,-2.8826,-2.8535,-2.8359,-2.776,-2.7625,-2.7625,-2.76,-2.76,-2.7137,-2.5673,-2.5425,-2.5175,-2.4408,-2.3632,-2.3424,-2.4176,-2.3573,-2.3108,-2.3108,-2.3108,-2.3108,-2.3108,-2.3108,-2.3108,-2.3108,-2.3108,-2.3108,-2.3138,-2.3108,-2.3514,-2.4308,-2.3514,-2.3514,-2.4292,-2.3514,-2.3531,-2.4263,-2.3514,-2.3573,-2.4263,-2.3484,-2.3138,-2.3108,-2.3108,-2.3108,-2.3108,-2.312,-2.381,-2.4788,-2.4813,-2.5523,-2.6499,-2.6499,-2.6499,-2.6499,-2.6499,-2.6499,-2.6499,-2.6499,-2.7231,-2.8109,-2.8109,-2.8925,-2.9792,-2.9792,-2.9792,-2.9792,-2.9792,-2.9792,-2.9792,-2.9792,-2.9792,-2.9792,-2.9792,-2.9792,-3.0131,-3.121,-3.1386,-3.1775,-3.2948,-3.3124,-3.3124,-3.3124,-3.3124,-3.3124,-3.3124,-3.4079,-3.4705,-3.4664,-3.5588,-3.5734,-3.4705,-3.4664,-3.4191,-3.3154,-3.3124,-3.3124,-3.3124,-3.3124,-3.3124,-3.3124,-3.3124,-3.3124,-3.3124,-3.3124,-3.3124,-3.1623,0.0,0.0,0.0,0.0,0.0,-2.987,-2.9451,-2.8973,-2.8367,-2.8262,-2.8116,-2.7685,-2.76,-2.7306,-2.6336,-2.6203,-2.5755,-2.4481,-2.4118,-2.3826,-2.3484,-2.3258,-2.3108,-2.3108,-2.3108,-2.3108,-2.3108,-2.3108,-2.3108,-2.3108,-2.3108,-2.3365,-2.3943,-2.3395,-2.3725,-2.5063,-2.3754,-2.3514,-2.4292,-2.406,-2.4089,-2.4321,-2.461,-2.4582,-2.4292,-2.406,-2.3632,-2.3108,-2.3108,-2.3108,-2.3145,-2.359,-2.4161,-2.4838,-2.5247,-2.5837,-2.6499,-2.6499,-2.6499,-2.6499,-2.6499,-2.6499,-2.6499,-2.6499,-2.7231,-2.8109,-2.8109,-2.8925,-2.9792,-2.9792,-2.9792,-2.9792,-2.9792,-2.9792,-2.9792,-2.9792,-2.9792,-2.9792,-2.9792,-2.9792,-3.0131,-3.121,-3.1386,-3.1775,-3.2948,-3.3124,-3.3124,-3.3124,-3.3124,-3.3124,-3.3124,-3.4079,-3.4387,-3.3598,-3.4498,-3.4664,-3.3598,-3.3556,-3.3398,-3.3124,-3.3124,-3.3124,-3.3124,-3.3124,-3.3124,-3.3124,-3.3124,-3.3124,-3.3124,-3.3124,-3.3124,0.0,0.0,0.0,0.0,0.0,0.0,-3.0038,-2.9651,-2.9157,-2.8295,-2.8116,-2.8018,-2.766,-2.76,-2.7458,-2.7034,-2.6956,-2.6549,-2.537,-2.4681,-2.4234,-2.4076,-2.3501,-2.3108,-2.3108,-2.3108,-2.3108,-2.3108,-2.3108,-2.3108,-2.3108,-2.3424,-2.3662,-2.3796,-2.3959,-2.4496,-2.5398,-2.4192,-2.3989,-2.4766,-2.4452,-2.4292,-2.4321,-2.4766,-2.4709,-2.4292,-2.3943,-2.3531,-2.3108,-2.3108,-2.3108,-2.3158,-2.3766,-2.4343,-2.485,-2.541,-2.5996,-2.6499,-2.6499,-2.6499,-2.6499,-2.6499,-2.6499,-2.6499,-2.6499,-2.7231,-2.8109,-2.8109,-2.8925,-2.9792,-2.9792,-2.9792,-2.9792,-2.9792,-2.9792,-2.9792,-2.9792,-2.9792,-2.9792,-2.9792,-2.9792,-3.0131,-3.121,-3.1386,-3.1775,-3.2948,-3.3124,-3.3124,-3.3124,-3.3124,-3.3124,-3.3124,-3.367,-3.3797,-3.3154,-3.367,-3.3755,-3.3154,-3.3124,-3.3124,-3.3124,-3.3124,-3.3124,-3.3124,-3.3124,-3.3124,-3.3124,-3.3124,-3.3124,-3.3124,-3.3124,-3.3124,0.0,0.0,0.0,0.0,-3.1545,0.0,-2.9848,-2.9607,-2.9293,-2.8149,-2.7894,-2.787,-2.7795,-2.776,-2.7685,-2.7685,-2.7635,-2.7331,-2.659,-2.537,-2.4738,-2.5231,-2.4076,-2.3198,-2.3108,-2.3108,-2.3108,-2.3108,-2.3108,-2.3108,-2.3108,-2.3855,-2.3943,-2.3138,-2.4525,-2.5315,-2.5398,-2.4595,-2.4624,-2.5508,-2.4766,-2.4436,-2.4436,-2.4436,-2.4379,-2.4263,-2.3454,-2.3108,-2.3108,-2.3108,-2.3145,-2.3258,-2.3866,-2.4431,-2.4938,-2.5498,-2.6047,-2.6499,-2.6499,-2.6499,-2.6499,-2.6499,-2.6499,-2.6499,-2.6499,-2.7231,-2.8134,-2.826,-2.9013,-2.9792,-2.9792,-2.9792,-2.9792,-2.9792,-2.9792,-2.9792,-2.9792,-2.9792,-2.9792,-2.9792,-2.9792,-3.0131,-3.121,-3.1386,-3.1775,-3.2948,-3.3124,-3.3124,-3.3124,-3.3124,-3.3124,-3.3124,-3.3124,-3.3124,-3.3124,-3.3124,-3.3124,-3.3124,-3.3124,-3.3124,-3.3124,-3.3124,-3.3124,-3.3124,-3.3124,-3.3124,-3.3124,-3.3124,-3.3124,-3.3124,-3.3124,-3.3124,0.0,0.0,0.0,0.0,0.0,0.0,-3.0982,-3.0858,-3.0638,-2.9913,-2.9767,-2.9613,-2.9134,-2.8662,-2.8319,-2.8319,-2.7934,-2.7331,-2.659,-2.6256,-2.5673,-2.4652,-2.4263,-2.3796,-2.3155,-2.3108,-2.3108,-2.3108,-2.3108,-2.3108,-2.3108,-2.3855,-2.3943,-2.3138,-2.4018,-2.4794,-2.5398,-2.4018,-2.4323,-2.6283,-2.5536,-2.5175,-2.5175,-2.5175,-2.4879,-2.4263,-2.3454,-2.3108,-2.3108,-2.3108,-2.3384,-2.3891,-2.4443,-2.4983,-2.5511,-2.6122,-2.6399,-2.6499,-2.6499,-2.6499,-2.6499,-2.6499,-2.6499,-2.6499,-2.6499,-2.7231,-2.8298,-2.9214,-2.9628,-2.9792,-2.9792,-2.9792,-2.9792,-2.9792,-2.9792,-2.9792,-2.9792,-2.9792,-2.9792,-2.9792,-2.9792,-3.0131,-3.121,-3.1386,-3.1775,-3.2948,-3.3124,-3.3124,-3.3124,-3.3124,-3.3124,-3.3124,-3.3124,-3.3124,-3.3124,-3.3124,-3.3124,-3.3124,-3.3124,-3.3124,-3.3124,-3.3124,-3.3124,-3.3124,-3.3124,-3.3124,-3.3124,-3.3124,-3.3124,-3.3124,-3.3124,-3.3124,0.0,0.0,0.0,-3.2549,0.0,0.0,0.0,-3.0908,-3.0597,-2.9995,-2.9848,-2.9761,-2.9451,-2.9157,-2.8966,-2.8966,-2.8424,-2.7904,-2.754,-2.6927,-2.6229,-2.5481,-2.4766,-2.4292,-2.4237,-2.356,-2.3108,-2.3108,-2.3108,-2.3108,-2.3108,-2.3855,-2.3943,-2.3138,-2.4582,-2.5231,-2.4851,-2.4439,-2.4639,-2.5398,-2.5398,-2.5007,-2.4266,-2.5063,-2.4781,-2.3679,-2.3275,-2.3108,-2.3108,-2.3108,-2.3609,-2.4443,-2.4675,-2.5146,-2.5661,-2.6285,-2.6499,-2.6499,-2.6499,-2.6499,-2.6499,-2.6499,-2.6499,-2.6499,-2.6499,-2.7231,-2.8348,-2.9478,-2.9792,-2.9792,-2.9792,-2.9792,-2.9792,-2.9792,-2.9792,-2.9792,-2.9792,-2.9792,-2.9792,-2.9792,-2.9792,-3.0131,-3.121,-3.1386,-3.1775,-3.2948,-3.3124,-3.3124,-3.3124,-3.3124,-3.3124,-3.3124,-3.3124,-3.3124,-3.3124,-3.3124,-3.3124,-3.3124,-3.3124,-3.3124,-3.3124,-3.3124,-3.3124,-3.3124,-3.3124,-3.3124,-3.3124,-3.3124,-3.3124,-3.3124,-3.3124,-3.3124,0.0,0.0,0.0,0.0,0.0,-3.1881,0.0,0.0,0.0,-2.987,-2.9739,-2.9739,-2.9739,-2.9651,-2.954,-2.9429,-2.8896,-2.8463,-2.8343,-2.7388,-2.6669,-2.651,-2.5315,-2.4681,-2.5147,-2.4076,-2.3335,-2.3335,-2.3335,-2.3335,-2.3335,-2.3943,-2.4002,-2.3335,-2.5245,-2.5646,-2.4321,-2.4908,-2.4951,-2.4509,-2.4951,-2.4525,-2.3365,-2.461,-2.441,-2.3108,-2.3108,-2.3108,-2.3108,-2.3108,-2.3772,-2.4788,-2.4788,-2.5209,-2.5824,-2.6323,-2.6499,-2.6499,-2.6499,-2.6499,-2.6499,-2.6499,-2.6499,-2.6512,-2.6612,-2.7318,-2.831,-2.934,-2.9704,-2.9792,-2.9792,-2.9792,-2.9792,-2.9792,-2.9792,-2.9792,-2.9792,-2.9792,-2.9792,-2.9792,-2.9792,-3.0131,-3.121,-3.1386,-3.1775,-3.2948,-3.3124,-3.3124,-3.3124,-3.3124,-3.3124,-3.3124,-3.3124,-3.3124,-3.3124,-3.3124,-3.3124,-3.3124,-3.3124,-3.3124,-3.3124,-3.3124,-3.3124,-3.3124,-3.3124,-3.3124,-3.3124,-3.3124,-3.3124,-3.3124,-3.3124,-3.3124,0.0,0.0,0.0,0.0,-3.3105,0.0,0.0,0.0,-3.1512,-3.1081,0.0,-3.0995,-3.0995,0.0,0.0,-2.9496,-2.8896,-2.8295,-2.7785,-2.756,-2.7229,-2.659,-2.5783,-2.5035,-2.4481,-2.4263,-2.4176,-2.4176,-2.4176,-2.4176,-2.4176,-2.4263,-2.4263,-2.4176,-2.5035,-2.5119,-2.4321,-2.4379,-2.4709,-2.5259,-2.4709,-2.4337,-2.4176,-2.435,-2.3943,-2.3108,-2.3108,-2.3108,-2.3108,-2.3108,-2.3772,-2.4788,-2.4788,-2.5448,-2.6411,-2.6461,-2.6499,-2.6499,-2.6499,-2.6499,-2.6499,-2.6499,-2.6499,-2.6587,-2.7077,-2.762,-2.8235,-2.8813,-2.9402,-2.9792,-2.9792,-2.9792,-2.9792,-2.9792,-2.9792,-2.9792,-2.9792,-2.9792,-2.9792,-2.9792,-2.9792,-3.0131,-3.121,-3.1386,-3.1775,-3.2948,-3.3124,-3.3124,-3.3124,-3.3124,-3.3124,-3.3124,-3.3124,-3.3124,-3.3124,-3.3124,-3.3124,-3.3124,-3.3124,-3.3124,-3.3124,-3.3124,-3.3124,-3.3124,-3.3124,-3.3124,-3.3124,-3.3124,-3.3124,-3.3124,-3.3124,-3.3124,0.0,0.0,0.0,0.0,0.0,0.0,-3.2349,0.0,-3.1696,0.0,0.0,0.0,0.0,0.0,0.0,0.0,-2.9651,-2.8927,-2.867,-2.8027,-2.7499,-2.7178,-2.6496,-2.5755,-2.5007,-2.5315,-2.5231,-2.435,-2.4709,-2.4766,-2.4321,-2.4292,-2.4292,-2.4292,-2.5007,-2.4809,-2.3632,-2.4922,-2.5287,-2.4766,-2.4879,-2.4709,-2.4292,-2.4292,-2.3855,-2.3108,-2.3108,-2.3108,-2.3108,-2.3108,-2.3772,-2.4788,-2.4788,-2.5498,-2.6499,-2.6499,-2.6499,-2.6499,-2.6499,-2.6499,-2.6499,-2.6499,-2.6499,-2.66,-2.7153,-2.767,-2.8222,-2.8737,-2.934,-2.9792,-2.9792,-2.9792,-2.9792,-2.9792,-2.9792,-2.9792,-2.9792,-2.9792,-2.9792,-2.9792,-2.9792,-3.003,-3.0809,-3.1185,-3.1775,-3.2948,-3.3124,-3.3124,-3.3124,-3.3124,-3.3124,-3.3124,-3.3124,-3.3124,-3.3124,-3.3124,-3.3124,-3.3124,-3.3124,-3.3124,-3.3124,-3.3124,-3.3124,-3.3124,-3.3124,-3.3124,-3.3124,-3.3124,-3.3124,-3.3124,-3.3124,-3.3124,-3.4043,0.0,0.0,0.0,0.0,0.0,0.0,0.0,0.0,0.0,0.0,0.0,0.0,0.0,0.0,0.0,0.0,-2.9339,-2.918,-2.8271,-2.76,-2.76,-2.6956,-2.6283,-2.5755,-2.6203,-2.5987,-2.4709,-2.5287,-2.537,-2.4652,-2.4408,-2.4481,-2.4908,-2.5231,-2.4781,-2.3454,-2.5273,-2.5563,-2.4321,-2.4851,-2.4823,-2.4292,-2.4292,-2.3855,-2.3108,-2.3108,-2.3108,-2.3108,-2.3108,-2.3772,-2.4788,-2.4788,-2.5498,-2.6499,-2.6499,-2.6499,-2.6499,-2.6499,-2.6499,-2.6499,-2.6499,-2.6499,-2.6562,-2.6964,-2.7544,-2.8185,-2.8549,-2.9227,-2.9792,-2.9792,-2.9792,-2.9792,-2.9792,-2.9792,-2.9792,-2.9792,-2.9792,-2.9792,-2.9792,-2.9792,-2.9967,-3.052,-3.1047,-3.1712,-3.2692,-3.2968,-3.3124,-3.3124,-3.3124,-3.3124,-3.3124,-3.3124,-3.3124,-3.3124,-3.3124,-3.3124,-3.3124,-3.3124,-3.3124,-3.3124,-3.3124,-3.3124,-3.3124,-3.3124,-3.3124,-3.3124,-3.3124,-3.3124,-3.3124,-3.3124,-3.3124,0.0,-3.382,0.0,-3.3807,0.0,0.0,0.0,0.0,-3.235,0.0,0.0,0.0,0.0,0.0,0.0,0.0,0.0,0.0,0.0,-2.7993,-2.76,-2.76,-2.6956,-2.6484,-2.6484,-2.6484,-2.6176,-2.5425,-2.6041,-2.6149,-2.5398,-2.4681,-2.4951,-2.6377,-2.5755,-2.5035,-2.4263,-2.5035,-2.5035,-2.4292,-2.4321,-2.4321,-2.4292,-2.4292,-2.3855,-2.3108,-2.3108,-2.3108,-2.3108,-2.3108,-2.3772,-2.4788,-2.4788,-2.5498,-2.6499,-2.6499,-2.6499,-2.6499,-2.6499,-2.6499,-2.6499,-2.6499,-2.6499,-2.6499,-2.6512,-2.7278,-2.8109,-2.8134,-2.8925,-2.9792,-2.9792,-2.9792,-2.9792,-2.9792,-2.9792,-2.9792,-2.9792,-2.9792,-2.9792,-2.9792,-2.9792,-2.9967,-3.052,-3.1047,-3.1587,-3.2152,-3.2717,-3.3124,-3.3124,-3.3124,-3.3124,-3.3124,-3.3124,-3.3124,-3.3124,-3.3124,-3.3124,-3.3124,-3.3124,-3.3124,-3.3124,-3.3124,-3.3124,-3.3124,-3.3124,-3.3124,-3.3124,-3.3124,-3.3124,-3.3124,-3.3124,-3.3124,-3.4006,-3.3954,-3.3807,-3.3807,-3.3807,-3.3694,-3.3288,0.0,0.0,0.0,0.0,0.0,0.0,0.0,0.0,0.0,0.0,0.0,0.0,-2.8222,-2.76,-2.76,-2.7382,-2.7229,-2.7229,-2.7229,-2.693,-2.6176,-2.6826,-2.6904,-2.6176,-2.5892,-2.5755,-2.5755,-2.6014,-2.5273,-2.3501,-2.5245,-2.5755,-2.5035,-2.5035,-2.5035,-2.5007,-2.4509,-2.3855,-2.3108,-2.3108,-2.3108,-2.3108,-2.3108,-2.3772,-2.4788,-2.4788,-2.5498,-2.6499,-2.6499,-2.6499,-2.6499,-2.6499,-2.6499,-2.6499,-2.6499,-2.6499,-2.6499,-2.6499,-2.7014,-2.7632,-2.8009,-2.8649,-2.9315,-2.9691,-2.9792,-2.9792,-2.9792,-2.9792,-2.9792,-2.9792,-2.9792,-2.9792,-2.9792,-2.9792,-2.9854,-3.0043,-3.0809,-3.1574,-3.2127,-3.2704,-3.3124,-3.3124,-3.3124,-3.3124,-3.3124,-3.3124,-3.3124,-3.3124,-3.3124,-3.3124,-3.3124,-3.3124,-3.3124,-3.3124,-3.3124,-3.3124,-3.3124,-3.3124,-3.3124,-3.3124,-3.3124,-3.3124,-3.3124,-3.3124,-3.3124,-3.4006,-3.3923,-3.3807,-3.3807,-3.3807,-3.3734,-3.348,-3.3075,-3.2616,0.0,0.0,0.0,0.0,0.0,0.0,0.0,0.0,0.0,0.0,-2.8222,-2.76,-2.76,-2.76,-2.76,-2.76,-2.76,-2.7306,-2.6563,-2.7163,-2.728,-2.6537,-2.651,-2.639,-2.6188,-2.639,-2.5796,-2.431,-2.5494,-2.6014,-2.5783,-2.5536,-2.5398,-2.537,-2.4894,-2.4105,-2.3108,-2.3108,-2.3108,-2.3108,-2.3108,-2.3772,-2.4788,-2.4788,-2.5498,-2.6499,-2.6499,-2.6499,-2.6499,-2.6499,-2.6499,-2.6499,-2.6499,-2.6499,-2.6499,-2.6499,-2.6876,-2.7394,-2.7946,-2.8499,-2.9026,-2.9641,-2.9792,-2.9792,-2.9792,-2.9792,-2.9792,-2.9792,-2.9792,-2.9792,-2.9792,-2.9792,-2.9792,-2.9792,-3.0683,-3.1512,-3.1863,-3.2579,-3.3124,-3.3124,-3.3124,-3.3124,-3.3124,-3.3124,-3.3124,-3.3124,-3.3124,-3.3124,-3.3124,-3.3124,-3.3124,-3.3124,-3.3124,-3.3124,-3.3124,-3.3124,-3.3124,-3.3124,-3.3124,-3.3124,-3.3124,-3.3124,-3.3124]},{"header":{"parameterUnit":"m.s-1","parameterCategory":1,"la1":30.6,"la2":29.2853,"lo1":-89.7004,"lo2":-87.6739,"dy":0.0162,"dx":0.0183,"nx":112,"ny":82,"refTime":"2024-02-27T18:00:00:Z","depth":0,"parameterNumber":3,"parameterNumberName":"V-component_of_WINDS"},"data":[0.0,0.0,0.0,0.0,0.0,0.0,0.0,0.0,0.0,0.0,0.0,0.0,0.0,0.0,0.0,0.0,0.0,0.0,0.0,0.0,0.0,0.0,0.0,0.0,0.0,0.0,0.0,0.0,0.0,0.0,0.0,0.0,0.0,0.0,0.0,0.0,0.0,0.0,0.0,0.0,0.0,0.0,0.0,0.0,0.0,0.0,0.0,0.0,0.0,0.0,0.0,0.0,0.0,0.0,0.0,0.0,0.0,0.0,0.0,0.0,0.0,0.0,0.0,0.0,0.0,0.0,0.0,0.0,0.0,0.0,0.0,0.0,0.0,0.0,0.0,0.0,0.0,0.0,0.0,0.0,0.0,0.0,0.0,0.0,0.0,0.0,0.0,0.0,0.0,0.0,2.5229,2.5229,2.599,2.6499,2.6499,2.6499,2.6129,2.53,0.0,0.0,0.0,0.0,0.0,0.0,0.0,0.0,0.0,0.0,0.0,0.0,0.0,0.0,0.0,0.0,0.0,0.0,0.0,0.0,0.0,0.0,0.0,0.0,0.0,0.0,0.0,0.0,0.0,0.0,0.0,0.0,0.0,0.0,0.0,0.0,0.0,0.0,0.0,0.0,0.0,0.0,0.0,0.0,0.0,0.0,0.0,0.0,0.0,0.0,0.0,0.0,0.0,0.0,0.0,0.0,0.0,0.0,0.0,0.0,0.0,0.0,0.0,0.0,0.0,0.0,0.0,0.0,0.0,0.0,0.0,0.0,0.0,0.0,0.0,0.0,0.0,0.0,0.0,0.0,0.0,0.0,0.0,0.0,0.0,0.0,0.0,0.0,0.0,0.0,0.0,0.0,0.0,0.0,0.0,0.0,0.0,0.0,0.0,0.0,0.0,0.0,0.0,0.0,2.628,2.628,2.6418,2.6499,2.6499,2.6499,2.6418,2.628,0.0,0.0,0.0,0.0,0.0,0.0,0.0,0.0,0.0,0.0,0.0,0.0,0.0,0.0,0.0,0.0,0.0,0.0,0.0,0.0,0.0,0.0,0.0,0.0,0.0,0.0,0.0,0.0,0.0,0.0,0.0,0.0,0.0,0.0,0.0,0.0,0.0,0.0,0.0,0.0,0.0,0.0,0.0,0.0,0.0,0.0,0.0,0.0,0.0,0.0,0.0,0.0,0.0,0.0,0.0,0.0,0.0,0.0,0.0,0.0,0.0,0.0,0.0,0.0,0.0,0.0,0.0,0.0,0.0,0.0,0.0,0.0,0.0,0.0,0.0,0.0,0.0,0.0,0.0,0.0,0.0,0.0,0.0,0.0,0.0,0.0,0.0,0.0,0.0,0.0,0.0,0.0,0.0,0.0,0.0,0.0,0.0,0.0,0.0,0.0,0.0,0.0,0.0,2.6211,2.6499,2.6499,2.6499,2.6499,2.6499,2.6499,2.6499,2.6499,2.6499,0.0,0.0,0.0,0.0,0.0,0.0,0.0,0.0,0.0,0.0,0.0,0.0,0.0,0.0,0.0,0.0,0.0,0.0,0.0,0.0,0.0,0.0,0.0,0.0,0.0,0.0,0.0,0.0,0.0,0.0,0.0,0.0,0.0,0.0,0.0,0.0,0.0,0.0,0.0,0.0,0.0,0.0,0.0,0.0,0.0,0.0,0.0,0.0,0.0,0.0,0.0,0.0,0.0,0.0,0.0,0.0,0.0,0.0,0.0,0.0,0.0,0.0,0.0,0.0,0.0,0.0,0.0,0.0,0.0,0.0,0.0,0.0,0.0,0.0,0.0,0.0,0.0,0.0,0.0,0.0,0.0,0.0,0.0,0.0,0.0,0.0,0.0,0.0,0.0,0.0,0.0,0.0,0.0,0.0,0.0,0.0,0.0,0.0,0.0,0.0,0.0,0.0,2.6499,2.6499,2.6499,2.6499,2.6499,2.6499,2.6499,2.6499,2.6499,2.6499,0.0,0.0,0.0,0.0,0.0,0.0,0.0,0.0,0.0,0.0,0.0,0.0,0.0,0.0,0.0,0.0,0.0,0.0,0.0,0.0,0.0,0.0,0.0,0.0,0.0,0.0,0.0,0.0,0.0,0.0,0.0,0.0,0.0,0.0,0.0,0.0,0.0,0.0,0.0,0.0,0.0,0.0,0.0,0.0,0.0,0.0,0.0,0.0,0.0,0.0,0.0,0.0,0.0,0.0,0.0,0.0,0.0,0.0,0.0,0.0,0.0,0.0,0.0,0.0,0.0,0.0,0.0,0.0,0.0,0.0,0.0,0.0,0.0,0.0,0.0,0.0,0.0,0.0,0.0,0.0,0.0,0.0,0.0,0.0,0.0,0.0,0.0,0.0,0.0,0.0,0.0,0.0,0.0,0.0,0.0,0.0,0.0,0.0,0.0,0.0,0.0,0.0,2.6499,2.6499,2.6499,2.6499,2.6499,2.6499,2.6499,2.6499,2.6499,2.6499,0.0,0.0,0.0,0.0,0.0,0.0,0.0,0.0,0.0,0.0,0.0,0.0,0.0,0.0,0.0,0.0,0.0,0.0,0.0,0.0,0.0,0.0,0.0,0.0,0.0,0.0,0.0,0.0,0.0,0.0,0.0,0.0,0.0,0.0,0.0,0.0,0.0,0.0,0.0,0.0,0.0,0.0,0.0,0.0,0.0,0.0,0.0,0.0,0.0,0.0,0.0,0.0,0.0,0.0,0.0,0.0,0.0,0.0,0.0,0.0,0.0,0.0,0.0,0.0,0.0,0.0,0.0,0.0,0.0,0.0,0.0,0.0,0.0,0.0,0.0,0.0,0.0,0.0,0.0,0.0,0.0,0.0,0.0,0.0,0.0,0.0,0.0,0.0,0.0,0.0,0.0,0.0,0.0,0.0,0.0,0.0,0.0,0.0,0.0,0.0,0.0,0.0,2.6499,2.6499,2.6499,2.6499,2.6499,2.6499,2.6499,2.6499,2.6499,0.0,0.0,0.0,0.0,0.0,0.0,0.0,0.0,0.0,0.0,0.0,0.0,0.0,0.0,0.0,0.0,0.0,0.0,0.0,0.0,0.0,0.0,0.0,0.0,0.0,0.0,0.0,0.0,0.0,0.0,0.0,0.0,0.0,0.0,0.0,0.0,0.0,0.0,0.0,0.0,0.0,0.0,0.0,0.0,0.0,0.0,0.0,0.0,0.0,0.0,0.0,0.0,0.0,0.0,0.0,0.0,0.0,0.0,0.0,0.0,0.0,0.0,0.0,0.0,0.0,0.0,0.0,0.0,0.0,0.0,0.0,0.0,0.0,0.0,0.0,0.0,0.0,0.0,0.0,0.0,0.0,0.0,0.0,0.0,0.0,0.0,0.0,0.0,0.0,0.0,0.0,0.0,0.0,0.0,0.0,0.0,0.0,0.0,0.0,0.0,0.0,0.0,2.6499,2.6499,2.6499,2.6499,2.6499,2.6499,2.6499,2.6499,2.6499,2.6499,0.0,0.0,0.0,0.0,0.0,0.0,0.0,0.0,0.0,0.0,0.0,0.0,0.0,0.0,0.0,0.0,0.0,0.0,0.0,0.0,0.0,0.0,0.0,0.0,0.0,0.0,0.0,0.0,0.0,0.0,0.0,0.0,0.0,0.0,0.0,0.0,0.0,0.0,0.0,0.0,0.0,0.0,0.0,0.0,0.0,0.0,0.0,0.0,0.0,0.0,0.0,0.0,0.0,0.0,0.0,0.0,0.0,0.0,0.0,0.0,0.0,0.0,0.0,0.0,0.0,0.0,0.0,0.0,0.0,0.0,0.0,0.0,0.0,0.0,0.0,0.0,0.0,0.0,0.0,0.0,0.0,0.0,0.0,0.0,0.0,0.0,0.0,0.0,0.0,0.0,0.0,0.0,0.0,0.0,0.0,0.0,0.0,0.0,0.0,0.0,0.0,0.0,2.6499,2.6499,2.6499,2.6499,2.6499,2.6499,2.6499,2.6499,2.6499,0.0,0.0,0.0,0.0,0.0,0.0,0.0,0.0,0.0,0.0,0.0,0.0,0.0,0.0,0.0,0.0,0.0,0.0,0.0,0.0,0.0,0.0,0.0,0.0,0.0,0.0,0.0,0.0,0.0,0.0,0.0,0.0,0.0,0.0,0.0,0.0,0.0,0.0,0.0,0.0,0.0,0.0,0.0,0.0,0.0,0.0,0.0,0.0,0.0,0.0,0.0,0.0,0.0,0.0,0.0,0.0,0.0,0.0,0.0,0.0,0.0,0.0,0.0,0.0,0.0,0.0,0.0,0.0,0.0,0.0,0.0,0.0,0.0,0.0,0.0,0.0,0.0,0.0,0.0,0.0,0.0,0.0,0.0,0.0,0.0,0.0,0.0,0.0,0.0,0.0,0.0,0.0,0.0,0.0,0.0,0.0,0.0,0.0,0.0,0.0,0.0,0.0,0.0,2.6499,2.6499,2.6499,2.6499,2.6499,2.6499,2.6499,2.6499,2.6499,2.6499,0.0,0.0,0.0,0.0,0.0,0.0,0.0,0.0,0.0,0.0,0.0,0.0,0.0,0.0,0.0,0.0,0.0,0.0,0.0,0.0,0.0,0.0,0.0,0.0,0.0,0.0,0.0,0.0,0.0,0.0,0.0,0.0,0.0,0.0,0.0,0.0,0.0,0.0,0.0,0.0,0.0,0.0,0.0,0.0,0.0,0.0,0.0,0.0,0.0,0.0,0.0,0.0,0.0,0.0,0.0,0.0,0.0,0.0,0.0,0.0,0.0,0.0,0.0,0.0,0.0,0.0,0.0,0.0,0.0,0.0,0.0,0.0,0.0,0.0,0.0,0.0,0.0,0.0,0.0,0.0,0.0,0.0,0.0,0.0,0.0,0.0,0.0,0.0,0.0,0.0,0.0,0.0,0.0,0.0,0.0,0.0,0.0,0.0,0.0,0.0,0.0,0.0,2.7153,2.7153,2.7153,2.7153,2.7153,2.7153,2.7153,2.7153,2.7153,2.7153,0.0,0.0,0.0,0.0,0.0,0.0,0.0,0.0,0.0,0.0,0.0,0.0,0.0,0.0,0.0,0.0,0.0,0.0,0.0,0.0,0.0,0.0,0.0,0.0,0.0,0.0,0.0,0.0,0.0,0.0,0.0,0.0,0.0,0.0,0.0,0.0,0.0,0.0,0.0,0.0,0.0,0.0,0.0,0.0,0.0,0.0,0.0,0.0,0.0,0.0,0.0,0.0,0.0,0.0,0.0,0.0,0.0,0.0,0.0,0.0,0.0,0.0,0.0,0.0,0.0,0.0,0.0,0.0,0.0,0.0,0.0,0.0,0.0,0.0,0.0,0.0,0.0,0.0,0.0,0.0,0.0,0.0,0.0,0.0,0.0,0.0,0.0,0.0,0.0,0.0,0.0,0.0,0.0,0.0,0.0,0.0,0.0,0.0,0.0,0.0,0.0,0.0,2.8109,2.8109,2.8109,2.8109,2.8109,2.8109,2.8109,2.8109,2.8109,2.8109,0.0,0.0,0.0,0.0,0.0,0.0,0.0,0.0,0.0,0.0,0.0,0.0,0.0,0.0,0.0,0.0,0.0,0.0,0.0,0.0,0.0,0.0,0.0,0.0,0.0,0.0,0.0,0.0,0.0,0.0,0.0,0.0,0.0,0.0,0.0,0.0,0.0,0.0,0.0,0.0,0.0,0.0,0.0,0.0,0.0,0.0,0.0,0.0,0.0,0.0,0.0,0.0,0.0,0.0,0.0,0.0,0.0,0.0,0.0,0.0,2.3017,2.3684,0.0,0.0,0.0,0.0,0.0,0.0,0.0,0.0,0.0,0.0,0.0,0.0,0.0,0.0,0.0,0.0,0.0,0.0,0.0,0.0,0.0,0.0,0.0,0.0,0.0,0.0,0.0,0.0,0.0,0.0,0.0,0.0,0.0,0.0,0.0,0.0,0.0,0.0,0.0,0.0,2.8109,2.8109,2.8109,2.8109,2.8109,2.8109,2.8109,2.8109,2.8109,2.8109,2.8109,0.0,0.0,0.0,0.0,0.0,0.0,0.0,0.0,0.0,0.0,0.0,0.0,0.0,0.0,0.0,0.0,0.0,0.0,0.0,0.0,0.0,0.0,0.0,0.0,0.0,0.0,0.0,0.0,0.0,0.0,0.0,0.0,0.0,0.0,0.0,0.0,0.0,0.0,0.0,0.0,0.0,0.0,0.0,0.0,0.0,0.0,0.0,0.0,0.0,0.0,0.0,0.0,0.0,0.0,0.0,0.0,0.0,0.0,0.0,2.3396,2.3998,0.0,0.0,0.0,0.0,0.0,0.0,0.0,0.0,0.0,0.0,0.0,0.0,0.0,0.0,0.0,0.0,0.0,0.0,0.0,0.0,0.0,0.0,0.0,0.0,0.0,0.0,0.0,0.0,0.0,0.0,0.0,0.0,0.0,0.0,0.0,0.0,0.0,0.0,0.0,0.0,2.8913,2.8913,2.8913,2.8913,2.8913,2.8913,2.8913,2.8913,2.8913,2.8913,2.8913,0.0,0.0,0.0,0.0,0.0,0.0,0.0,0.0,0.0,0.0,0.0,0.0,0.0,0.0,0.0,0.0,0.0,0.0,0.0,0.0,0.0,0.0,0.0,0.0,0.0,0.0,0.0,0.0,0.0,0.0,0.0,0.0,0.0,0.0,0.0,0.0,0.0,0.0,0.0,0.0,0.0,0.0,0.0,0.0,0.0,0.0,0.0,0.0,0.0,0.0,0.0,0.0,0.0,2.3108,2.3108,2.3108,2.3108,2.3108,2.3145,2.3853,2.4406,2.4825,2.5385,0.0,0.0,0.0,0.0,0.0,0.0,0.0,0.0,0.0,0.0,0.0,0.0,0.0,0.0,0.0,0.0,0.0,0.0,0.0,0.0,0.0,0.0,2.6499,2.6499,2.6562,2.6637,2.6637,0.0,0.0,0.0,0.0,0.0,0.0,0.0,0.0,0.0,0.0,0.0,2.9792,2.9792,2.9792,2.9792,2.9792,2.9792,2.9792,2.9792,2.9792,2.9792,2.9792,2.9792,0.0,0.0,0.0,0.0,0.0,0.0,0.0,0.0,0.0,0.0,0.0,0.0,0.0,0.0,0.0,0.0,0.0,0.0,0.0,0.0,0.0,0.0,0.0,0.0,0.0,0.0,0.0,0.0,0.0,0.0,0.0,0.0,2.5231,2.5119,0.0,0.0,0.0,0.0,0.0,0.0,0.0,0.0,0.0,0.0,0.0,0.0,0.0,2.2823,2.2944,2.2944,2.3017,2.3108,2.3108,2.3108,2.3108,2.3108,2.3108,2.3158,2.4224,0.0,2.4825,2.5385,0.0,0.0,0.0,0.0,0.0,0.0,0.0,0.0,0.0,0.0,0.0,0.0,0.0,0.0,0.0,0.0,0.0,0.0,0.0,0.0,0.0,0.0,2.6499,2.6499,2.6864,2.7168,2.7168,2.7231,2.757,2.8524,2.8737,2.8963,0.0,0.0,0.0,0.0,0.0,0.0,2.9792,2.9792,2.9792,2.9792,2.9792,2.9792,2.9792,2.9792,2.9792,2.9792,2.9792,2.9792,2.9792,2.9792,0.0,0.0,0.0,0.0,0.0,0.0,0.0,0.0,0.0,0.0,0.0,0.0,0.0,0.0,0.0,0.0,0.0,0.0,0.0,0.0,0.0,0.0,0.0,0.0,0.0,0.0,0.0,0.0,0.0,2.6014,2.5864,2.5453,2.5119,2.4922,0.0,0.0,0.0,0.0,0.0,0.0,0.0,0.0,0.0,2.3767,2.3767,2.3573,2.3108,2.3543,2.3543,2.3108,2.3108,2.3108,2.3108,2.3108,2.3335,2.3832,2.5011,2.5772,2.6149,2.6131,2.683,2.7855,0.0,0.0,0.0,0.0,2.8427,2.8556,2.9442,2.9721,2.9721,2.9721,0.0,0.0,0.0,0.0,0.0,0.0,0.0,2.7061,2.6624,2.6499,2.6575,2.6889,2.714,2.7457,2.8072,2.821,2.8348,2.88,2.9189,2.9503,2.9741,2.9792,0.0,0.0,0.0,2.9792,2.9792,2.9792,2.9792,2.9792,2.9792,2.9792,2.9792,2.9792,2.9792,2.9792,2.9792,2.9792,2.9792,2.9792,2.9792,0.0,0.0,0.0,0.0,0.0,0.0,0.0,0.0,0.0,0.0,0.0,0.0,0.0,0.0,0.0,0.0,0.0,0.0,0.0,0.0,0.0,0.0,0.0,0.0,0.0,0.0,0.0,0.0,2.6774,2.6575,2.6027,2.581,2.5673,0.0,0.0,0.0,0.0,0.0,0.0,2.5398,2.4879,2.4567,2.4567,2.4408,2.4002,2.3424,2.4002,2.4002,2.3395,2.359,2.359,2.3424,2.359,2.3901,2.4387,2.5778,2.6805,2.7484,2.7229,2.7855,2.8939,2.8298,2.8427,2.9034,2.9254,2.9317,2.9442,3.0299,3.0614,3.0614,3.0614,3.0464,3.0133,2.9254,0.0,0.0,0.0,0.0,2.7517,2.6714,2.66,2.6813,2.7216,2.7494,2.7934,2.8712,2.9001,2.9113,2.9113,2.9503,2.9792,2.9792,2.9792,0.0,2.9792,2.9792,2.9792,2.9792,2.9792,2.9792,2.9792,2.9792,2.9792,2.9792,2.9792,2.9792,2.9792,2.9792,2.9792,2.9792,2.9792,2.9792,2.9792,0.0,0.0,0.0,0.0,0.0,0.0,0.0,0.0,0.0,0.0,0.0,0.0,0.0,0.0,0.0,0.0,0.0,0.0,0.0,0.0,0.0,0.0,0.0,0.0,0.0,0.0,0.0,0.0,0.0,2.7484,2.6878,0.0,0.0,0.0,0.0,2.5398,2.5398,2.5398,2.5398,2.537,2.5342,2.5342,2.4681,2.4292,2.4234,2.4292,2.4292,2.4263,2.4951,2.4922,2.4263,2.4951,2.4922,2.4416,2.6331,2.7591,2.8383,2.8739,2.8907,2.9002,2.8939,2.8971,2.9097,2.9919,3.0238,3.0359,3.1161,3.1438,3.1438,3.1438,3.0925,3.0133,2.9254,2.9002,0.0,0.0,2.7703,2.7517,2.6714,2.6889,2.7291,2.7268,2.8084,2.8825,2.8888,2.9365,2.9741,2.9741,2.9779,2.9792,2.9792,0.0,2.9792,2.9792,2.9792,2.9792,2.9792,2.9792,2.9792,2.9792,2.9792,2.9792,2.9792,2.9792,2.9792,2.9792,2.9792,2.9792,2.9792,2.9792,2.9792,2.9792,2.9792,0.0,0.0,0.0,0.0,0.0,0.0,0.0,0.0,0.0,0.0,0.0,0.0,0.0,0.0,0.0,0.0,0.0,0.0,0.0,0.0,0.0,0.0,0.0,0.0,0.0,0.0,0.0,0.0,2.76,2.7382,0.0,2.7203,2.6982,2.6811,2.6811,2.6811,2.6811,2.6811,2.6363,2.6122,2.6122,2.5837,2.5481,2.5007,2.5481,2.5481,2.5007,2.5259,2.5259,2.5007,2.5287,2.5508,2.5798,2.7329,2.8424,2.9241,3.0207,3.0614,3.0554,3.0042,3.0133,3.0644,3.097,3.1058,3.1117,3.1409,3.1511,3.1511,3.1511,3.097,3.0238,2.9919,2.9442,2.8812,2.7953,2.7703,2.7517,2.6714,2.6901,2.7369,2.772,2.8386,2.9001,2.9402,2.9641,2.9792,2.9792,2.9792,2.9792,2.9792,2.9792,2.9792,2.9792,2.9792,2.9792,2.9792,2.9792,2.9792,2.9792,2.9792,2.9792,2.9792,2.9792,2.9792,2.9792,2.9792,2.9792,2.9792,2.9792,2.9792,2.9792,2.9792,2.9792,0.0,0.0,0.0,0.0,0.0,0.0,0.0,0.0,0.0,0.0,0.0,0.0,0.0,0.0,0.0,0.0,0.0,0.0,0.0,0.0,0.0,0.0,0.0,0.0,0.0,0.0,2.76,2.76,2.76,2.76,2.76,2.76,2.76,2.76,2.76,2.76,2.76,2.7152,2.6878,2.6878,2.6642,2.6256,2.5783,2.6256,2.6256,2.5755,2.6027,2.6,2.5783,2.6027,2.6283,2.6568,2.7879,2.8904,2.9696,3.0746,3.1301,3.1438,3.0896,3.1029,3.1511,3.1511,3.1511,3.1511,3.1511,3.1322,3.1161,3.1409,3.0777,2.9919,3.0208,2.969,2.8812,2.7953,2.7703,2.7517,2.6714,2.704,2.7657,2.8021,2.8674,2.9327,2.9704,2.9792,2.9792,2.9792,2.9792,2.9792,2.9792,2.9792,2.9792,2.9792,2.9792,2.9792,2.9792,2.9792,2.9792,2.9792,2.9792,2.9792,2.9792,2.9792,2.9792,2.9792,2.9792,2.9792,2.9792,2.9792,2.9792,2.9792,2.9792,2.9792,2.9792,0.0,0.0,0.0,0.0,0.0,0.0,0.0,0.0,0.0,0.0,0.0,0.0,0.0,0.0,0.0,0.0,0.0,0.0,0.0,0.0,0.0,0.0,0.0,2.7685,2.76,2.76,2.76,2.76,2.76,2.76,2.76,2.76,2.76,2.76,2.76,2.76,2.76,2.76,2.76,2.6904,2.6537,2.6537,2.6537,2.6537,2.6537,2.7255,2.7229,2.6563,2.728,2.7203,2.6618,2.8006,2.8966,2.9651,3.0253,3.0883,3.1511,3.1511,3.1511,3.1511,3.1511,3.1511,3.1511,3.1511,3.0999,3.045,3.1219,3.0359,2.916,2.9981,2.9597,2.8748,2.7887,2.767,2.7484,2.6679,2.7316,2.8109,2.8109,2.8963,2.9792,2.9792,2.9792,2.9792,2.9792,2.9792,2.9792,2.9792,2.9792,2.9792,2.9792,2.9792,0.0,2.9792,2.9792,2.9792,2.9792,2.9792,2.9792,2.9792,2.9792,2.9792,2.9792,2.9792,2.9792,2.9792,2.9792,2.9792,2.9792,2.9792,2.9792,2.9792,0.0,0.0,0.0,0.0,0.0,0.0,0.0,0.0,0.0,0.0,0.0,0.0,0.0,0.0,0.0,0.0,0.0,0.0,0.0,0.0,0.0,2.8487,2.8286,2.7685,2.76,2.76,2.76,2.76,2.76,2.76,2.76,2.76,2.76,2.76,2.76,2.76,2.76,2.76,2.76,2.7408,2.7306,2.7306,2.7306,2.7306,2.7306,2.7484,2.7484,2.7306,2.7524,2.7484,2.735,2.8215,2.8966,2.9651,3.0253,3.0883,3.1511,3.1511,3.1511,3.1511,3.1511,3.1511,3.1511,3.1511,3.1351,3.1117,3.0748,2.9889,2.8939,2.8524,2.7835,2.7129,2.6905,2.685,2.6782,2.6555,2.7316,2.8109,2.8109,2.8963,2.9792,2.9792,2.9792,2.9792,2.9792,2.9792,2.9792,2.9792,2.9792,2.9792,2.9792,2.9792,2.9792,2.9792,2.9792,2.9792,2.9792,2.9792,2.9792,2.9792,2.9792,2.9792,2.9792,2.9792,2.9792,2.9792,2.9792,2.9792,2.9792,2.9792,2.9792,0.0,0.0,0.0,0.0,0.0,0.0,0.0,0.0,0.0,0.0,0.0,0.0,0.0,0.0,0.0,0.0,0.0,0.0,0.0,0.0,0.0,0.0,2.9042,2.8662,2.8067,2.776,2.76,2.76,2.76,2.76,2.76,2.76,2.76,2.76,2.76,2.76,2.76,2.76,2.76,2.76,2.76,2.76,2.76,2.76,2.76,2.76,2.76,2.76,2.76,2.76,2.76,2.7615,2.8019,2.8547,2.922,2.9849,3.0507,3.1107,0.0,0.0,0.0,0.0,3.1511,3.1511,3.1511,3.1278,3.097,3.0837,2.9735,2.8427,2.8298,2.7417,2.6499,2.6499,2.6499,2.6499,2.6499,2.7316,2.8109,2.8109,2.8963,2.9792,2.9792,2.9792,2.9792,2.9792,2.9792,0.0,2.9792,2.9792,2.9792,2.9792,2.9792,2.9792,2.9792,2.9792,2.9792,2.9792,2.9792,2.9792,2.9792,2.9792,0.0,0.0,0.0,2.9792,2.9792,2.9792,0.0,0.0,0.0,2.9792,2.9792,2.9792,0.0,0.0,2.9641,2.9948,0.0,0.0,0.0,0.0,0.0,0.0,0.0,0.0,0.0,0.0,0.0,0.0,0.0,0.0,0.0,0.0,2.9739,2.9157,2.8487,2.7959,2.76,2.76,2.76,2.76,2.76,2.76,2.76,2.76,2.76,2.76,2.76,2.76,0.0,0.0,0.0,2.76,2.76,2.76,2.76,2.76,2.76,2.76,2.76,2.76,2.76,2.76,2.76,2.7989,2.8652,2.922,2.9879,3.0567,3.1241,3.1511,3.1511,3.1511,3.1511,3.1511,3.1511,0.0,0.0,3.1058,2.969,2.7953,2.8524,2.767,2.6499,2.6499,2.6499,2.6499,2.6499,2.7316,2.8109,2.8109,2.8963,2.9792,2.9792,2.9792,2.9792,2.9792,2.9792,2.9792,2.9792,2.9792,2.9792,2.9792,2.9792,2.9792,2.9792,2.9792,2.9792,2.9792,2.9792,0.0,2.9792,2.9792,2.9792,2.9792,2.9792,2.9792,2.9792,2.9792,2.9792,2.9792,2.9792,2.9792,2.9792,2.9792,2.9792,2.9792,2.9792,2.9869,0.0,0.0,0.0,0.0,0.0,0.0,0.0,0.0,0.0,0.0,0.0,0.0,0.0,0.0,0.0,2.9761,2.9473,2.9019,2.7919,2.766,2.76,2.76,2.76,2.76,2.76,2.76,2.76,2.76,2.76,2.76,2.76,2.76,2.76,2.76,2.76,2.76,2.76,2.76,2.76,2.76,2.76,0.0,2.76,2.76,2.76,2.76,2.76,2.7989,2.8607,2.8742,2.9475,3.0567,3.1241,3.1511,3.1511,3.1511,3.1511,3.1511,3.1511,3.1409,3.1058,2.9858,2.916,2.8524,2.7351,2.6748,0.0,2.6499,2.6499,2.6499,2.6499,2.7316,2.8109,2.8109,2.8963,2.9792,2.9792,2.9792,2.9792,2.9792,2.9792,2.9792,2.9792,2.9792,2.9792,2.9792,2.9792,2.9792,2.9792,2.9792,2.9792,2.9792,2.9792,2.9792,2.9792,2.9792,2.9792,2.9792,2.9792,2.9792,2.9792,2.9792,2.9792,2.9792,2.9792,2.9792,2.9792,2.9792,2.9792,2.9792,2.9792,3.0216,0.0,0.0,0.0,0.0,0.0,0.0,0.0,0.0,0.0,0.0,0.0,3.119,3.119,0.0,3.0995,3.0393,3.0059,2.9524,2.8622,2.8247,2.7959,2.765,2.76,2.76,2.76,2.76,2.76,2.76,2.76,2.76,2.76,2.76,2.76,2.76,2.76,2.76,2.76,2.76,2.76,2.76,2.76,2.76,2.76,2.76,2.76,2.76,2.76,2.7794,2.8139,2.8457,2.9355,3.0537,3.0881,3.1197,3.1511,3.1511,3.1511,3.1511,3.1511,3.1248,3.0777,2.9919,2.9066,2.8182,2.7351,2.6816,2.6499,2.6499,2.6499,2.6499,2.6499,2.7316,2.8109,2.8109,2.8963,2.9792,2.9792,2.9792,2.9792,2.9792,2.9792,2.9792,2.9792,2.9792,2.9792,2.9792,2.9792,2.9792,2.9792,2.9792,2.9792,2.9792,2.9792,2.9792,2.9792,2.9792,2.9792,2.9792,2.9792,2.9792,2.9792,2.9792,2.9792,2.9792,2.9792,2.9792,2.9792,2.9792,2.9792,2.9792,2.9792,3.0037,0.0,0.0,0.0,0.0,0.0,0.0,0.0,0.0,3.1291,3.121,3.119,3.119,3.119,3.119,3.1151,3.1035,3.0617,3.0102,2.9473,2.8873,2.8319,2.7835,2.766,2.76,2.76,2.76,2.76,2.76,2.76,2.76,2.76,2.76,2.76,2.76,2.76,2.76,2.76,2.76,2.76,2.76,2.76,2.76,2.76,2.76,2.76,2.76,2.76,2.76,2.7645,2.8308,2.9205,3.0148,3.0268,3.0746,3.1316,3.1451,3.1511,3.1511,3.1511,3.1087,3.0494,3.0133,2.9097,2.7887,2.7571,2.7007,2.6499,2.6499,2.6499,2.6499,2.6499,2.7316,2.8109,2.8109,2.8963,2.9792,2.9792,2.9792,2.9792,2.9792,2.9792,2.9792,2.9792,2.9792,2.9792,2.9792,2.9792,2.9792,2.9792,2.9792,2.9792,2.9792,2.9792,2.9792,2.9792,2.9792,2.9792,2.9792,2.9792,2.9792,2.9792,2.9792,2.9792,2.9792,2.9792,2.9792,2.9792,2.9792,2.9792,2.9792,2.9792,2.9792,3.3807,3.3807,3.3793,3.3734,3.339,3.2919,0.0,0.0,3.1623,3.1271,3.119,3.119,3.119,3.119,3.1015,3.0477,3.0335,3.0102,2.9473,2.8873,2.8463,2.8415,2.7934,2.76,2.76,2.76,2.76,2.76,2.76,2.76,2.76,2.76,2.76,2.76,2.76,2.76,2.76,2.76,2.76,2.76,2.76,2.76,2.76,2.76,2.76,2.76,2.76,2.76,2.7645,2.8308,2.8682,2.8876,2.9487,3.0058,3.0687,3.1271,3.1511,3.1511,3.1511,3.1438,3.1117,2.9628,2.9002,2.8588,2.7095,2.6555,2.6499,2.6499,2.6499,2.6499,2.6499,2.7316,2.8109,2.8109,2.8963,2.9792,2.9792,2.9792,2.9792,2.9792,2.9792,2.9792,2.9792,2.9792,2.9792,2.9792,2.9792,2.9792,2.9792,2.9792,2.9792,2.9792,2.9792,2.9792,2.9792,2.9792,2.9792,2.9792,2.9792,2.9792,2.9792,2.9792,2.9792,2.9792,2.9792,2.9792,2.9792,2.9792,2.9792,2.9792,2.9792,2.9792,3.3807,3.3807,0.0,0.0,3.3494,3.3154,3.2952,3.2332,3.1752,3.1584,3.137,3.119,3.119,3.119,3.1131,0.0,3.0821,3.0617,3.0016,2.9406,2.8896,2.8535,2.7968,2.76,2.76,2.76,2.76,2.76,2.76,2.76,2.76,2.76,2.76,2.76,2.76,2.76,2.76,2.76,2.76,2.76,2.76,2.76,2.76,2.76,2.76,2.76,2.76,2.76,2.7615,2.7899,2.8233,2.8622,2.8906,2.94,3.0043,3.0702,3.1152,3.1511,3.1511,3.0866,2.9919,2.9223,2.833,2.7417,2.6714,2.6499,2.6499,2.6499,2.6499,2.6499,2.6499,2.7316,2.8109,2.8109,2.8963,2.9792,2.9792,2.9792,2.9792,2.9792,2.9792,2.9792,2.9792,2.9792,2.9792,2.9792,2.9792,2.9792,2.9792,2.9792,2.9792,2.9792,2.9792,2.9792,2.9792,2.9792,2.9792,2.9792,2.9792,2.9792,2.9792,2.9792,2.9792,2.9792,2.9792,2.9792,2.9792,2.9792,2.9792,2.9792,2.9792,2.9792,3.3807,0.0,0.0,3.3807,3.3578,3.3332,3.3229,3.2565,3.1968,3.1825,3.147,3.119,3.119,3.119,3.119,3.119,3.119,3.0995,3.0393,2.9783,2.918,2.8559,2.7968,2.76,2.76,2.76,2.76,2.76,2.76,2.76,2.76,2.76,2.76,2.76,2.76,2.76,2.76,2.76,2.76,2.76,2.76,2.76,2.76,2.76,2.76,2.76,2.76,2.76,2.76,2.76,2.7899,2.8308,2.8308,2.8606,2.9085,2.9679,3.0317,3.0909,3.1087,3.0238,2.8971,2.8716,2.7835,2.6782,2.6555,2.6499,2.6499,2.6499,2.6499,2.6499,2.6499,2.7316,2.8109,2.8109,2.8963,2.9792,2.9792,2.9792,2.9792,2.9792,2.9792,2.9792,2.9792,2.9792,2.9792,2.9792,2.9792,2.9792,2.9792,2.9792,2.9792,2.9792,2.9792,2.9792,2.9792,2.9792,2.9792,2.9792,2.9792,2.9792,2.9792,2.9792,2.9792,2.9792,2.9792,2.9792,2.9792,2.9792,2.9792,2.9792,2.9792,2.9792,3.3807,0.0,3.3807,3.3807,3.3775,3.368,3.3288,3.2842,3.235,3.188,3.147,3.119,3.119,3.119,3.119,3.119,3.119,3.0995,3.0393,2.9783,2.918,2.8559,2.7968,2.76,0.0,2.76,2.76,2.76,2.76,2.76,2.76,2.76,2.76,2.76,2.76,2.76,2.76,2.76,2.76,2.76,2.76,2.76,2.76,2.76,2.76,2.76,2.76,2.76,2.76,2.76,2.76,2.763,2.763,2.7591,2.7644,2.8181,2.8785,2.9477,3.0113,2.9766,2.8876,2.8019,2.7703,2.7517,2.6748,2.6499,2.6499,2.6499,2.6499,2.6499,2.6499,2.7316,2.8109,2.8109,2.8963,2.9792,2.9792,2.9792,2.9792,2.9792,2.9792,2.9792,2.9792,2.9792,2.9792,2.9792,2.9792,2.9792,2.9792,2.9792,2.9792,2.9792,2.9792,2.9792,2.9792,2.9792,2.9792,2.9792,2.9792,2.9792,2.9792,2.9792,2.9792,2.9792,2.9792,2.9792,2.9792,2.9792,2.9792,2.9792,2.9792,2.9792,3.3807,3.3807,3.3807,3.3807,3.3807,3.3762,3.3638,3.3027,3.2451,3.2299,3.1712,3.119,3.119,3.119,3.119,3.119,3.119,3.1131,3.0935,3.0038,2.9316,2.9111,2.8222,0.0,0.0,0.0,0.0,2.76,2.76,2.76,2.76,2.76,2.76,2.76,2.76,2.76,2.76,2.76,2.76,2.76,2.76,2.76,2.76,2.76,2.76,2.76,2.76,2.76,2.76,2.76,2.76,2.7534,2.706,2.6852,2.6845,2.699,2.7031,2.7288,2.8892,2.8876,2.8084,2.7802,2.7351,2.685,2.6589,2.6499,2.6499,2.6499,2.6499,2.6499,2.6499,2.7316,2.8109,2.8109,2.8963,2.9792,2.9792,2.9792,2.9792,2.9792,2.9792,2.9792,2.9792,2.9792,2.9792,2.9792,2.9792,2.9792,2.9792,2.9792,2.9792,2.9792,2.9792,2.9792,2.9792,2.9792,2.9792,2.9792,2.9792,2.9792,2.9792,2.9792,2.9792,2.9792,2.9792,2.9792,2.9792,2.9792,2.9792,2.9792,2.9792,2.9792,3.3928,3.3863,3.3815,3.3928,3.3863,3.3807,3.3807,3.3255,3.2697,3.2534,3.1914,3.137,3.123,3.119,3.119,3.119,3.119,3.1055,3.0617,2.9892,2.9248,2.881,2.8076,2.76,0.0,0.0,0.0,2.76,2.76,2.76,2.76,2.76,2.76,2.76,2.76,2.76,2.76,2.76,2.76,2.76,2.76,2.76,2.76,2.76,2.76,2.76,2.76,2.76,2.76,2.76,2.7433,2.7178,2.6695,2.6176,2.5716,2.5875,2.5631,2.5522,2.7552,2.7813,2.7263,2.7263,2.6905,2.6499,2.6499,2.6499,2.6499,2.6499,2.6499,2.6499,2.6499,2.7316,2.8109,2.8109,2.8963,2.9792,2.9792,2.9792,2.9792,2.9792,2.9792,2.9792,2.9792,2.9792,2.9792,2.9792,2.9792,2.9792,2.9792,2.9792,2.9792,2.9792,2.9792,2.9792,2.9792,2.9792,2.9792,2.9792,2.9792,2.9792,2.9792,2.9792,2.9792,2.9792,2.9792,2.9792,2.9792,2.9792,2.9792,2.9792,2.9792,2.9792,3.4111,3.3981,3.385,3.4111,3.3999,3.3807,3.3807,3.3494,3.306,3.2599,3.2144,3.1678,0.0,0.0,3.119,3.119,3.119,3.0797,2.9651,2.9451,2.8973,0.0,0.0,0.0,0.0,0.0,0.0,2.76,2.76,2.76,2.76,2.76,2.76,2.76,2.76,2.76,2.76,2.76,2.76,2.76,2.76,2.76,2.76,2.76,2.76,2.76,2.76,2.7575,2.7534,2.7534,2.7111,2.6457,2.6404,2.5536,2.4358,2.4823,2.4576,2.4267,2.614,2.6646,2.6449,2.6487,2.6499,2.6499,2.6499,2.6499,2.6499,2.6499,2.6499,2.6499,2.6499,2.7316,2.8109,2.8109,2.8963,2.9792,2.9792,2.9792,2.9792,2.9792,2.9792,2.9792,2.9792,2.9792,2.9792,2.9792,2.9792,2.9792,2.9792,2.9792,2.9792,2.9792,2.9792,2.9792,2.9792,2.9792,2.9792,2.9792,2.9792,2.9792,2.9792,2.9792,2.9792,2.9792,2.9792,2.9792,2.9792,2.9792,2.9792,2.9792,2.9792,2.9792,3.3876,3.3855,3.3815,3.3876,3.3855,3.3807,3.3807,3.3494,3.306,3.2599,3.2144,3.1678,0.0,0.0,0.0,3.119,3.119,0.0,3.0781,2.9973,0.0,2.8973,0.0,2.76,2.76,2.76,0.0,0.0,2.76,2.76,2.76,2.76,2.76,2.76,2.76,2.76,2.76,2.76,2.76,2.76,2.76,2.76,2.76,2.76,2.76,2.76,2.76,2.728,2.6774,2.6774,2.6336,2.5618,2.5063,2.4624,2.4247,2.3786,2.3768,2.4123,2.5027,2.5557,2.5887,2.6348,2.6499,2.6499,2.6499,2.6499,2.6499,2.6499,2.6499,2.6499,2.6499,2.7316,2.8109,2.8109,2.8963,2.9792,2.9792,2.9792,2.9792,2.9792,2.9792,2.9792,2.9792,2.9792,2.9792,2.9792,2.9792,2.9792,2.9792,2.9792,2.9792,2.9792,2.9792,2.9792,2.9792,2.9792,2.9792,2.9792,2.9792,2.9792,2.9792,2.9792,2.9792,2.9792,2.9792,2.9792,2.9792,2.9792,2.9792,2.9792,2.9792,2.9792,3.3935,3.3889,3.3829,3.3948,3.3889,3.3748,3.3578,3.3361,3.3014,3.2332,3.1969,0.0,3.1271,3.119,0.0,0.0,0.0,0.0,3.0838,3.023,2.9695,0.0,2.8567,0.0,2.7993,2.776,2.76,0.0,2.76,2.76,2.76,2.76,2.76,2.76,2.76,2.76,2.76,2.76,2.76,2.76,2.76,2.76,2.76,2.76,2.76,2.7575,2.7255,2.6878,2.6484,2.6149,2.5563,2.4879,2.4452,2.4089,2.3708,2.3275,2.3308,2.371,2.4512,2.5008,2.5385,2.6235,2.6499,2.6499,2.6499,2.6499,2.6499,2.6499,2.6499,2.6499,2.6499,2.7316,2.8109,2.8109,2.8963,2.9792,2.9792,2.9792,2.9792,2.9792,2.9792,2.9792,2.9792,2.9792,2.9792,2.9792,2.9792,2.9792,2.9792,2.9792,2.9792,2.9792,2.9792,2.9792,2.9792,2.9792,2.9792,2.9792,2.9792,2.9792,2.9792,2.9792,2.9792,2.9792,2.9792,2.9792,2.9792,2.9792,2.9792,2.9792,2.9792,2.993,3.4074,3.3974,3.3868,3.4105,3.3974,3.3694,3.3288,3.3199,3.2934,3.1986,0.0,3.1678,3.1271,3.119,3.119,3.119,0.0,3.1015,3.0497,3.0351,3.0102,2.9585,2.8919,2.8487,2.8487,2.7944,2.76,2.76,2.76,2.76,2.76,2.76,2.76,2.76,2.76,2.76,2.76,2.76,2.76,2.76,2.76,2.76,2.76,2.76,2.76,2.756,2.6826,2.6457,2.6283,2.5563,2.4809,2.4147,2.4147,2.3708,2.3108,2.3108,2.3108,2.3258,2.4311,2.4725,2.5008,2.6135,2.6499,2.6499,2.6499,2.6499,2.6499,2.6499,2.6499,2.6499,2.6499,2.7316,2.8109,2.8109,2.8963,2.9792,2.9792,2.9792,2.9792,2.9792,2.9792,2.9792,2.9792,2.9792,2.9792,2.9792,2.9792,2.9817,2.9892,2.9905,2.9905,2.9905,2.9967,3.0005,3.0005,3.0005,3.0005,3.0005,3.0005,2.998,2.9905,2.9905,2.9867,2.9792,2.9867,2.9905,2.9905,2.9967,3.0005,3.0005,3.0005,3.0256,3.3868,3.3842,3.3802,3.3868,3.3829,3.3694,3.3288,3.3199,0.0,0.0,3.1807,3.1678,3.1271,3.119,3.119,3.119,3.119,3.1171,3.1055,3.0617,3.0251,0.0,2.9157,2.8487,2.8487,2.7944,0.0,0.0,2.76,2.76,2.76,2.76,2.76,2.76,2.76,2.76,2.76,2.76,2.76,2.76,2.76,2.76,2.76,2.76,2.76,2.756,2.6826,2.6149,2.5536,2.4794,2.4018,2.3305,2.3305,2.3215,2.3108,2.3108,2.3108,2.3195,2.3904,2.4443,2.5008,2.6135,2.6499,2.6499,2.6499,2.6499,2.6499,2.6499,2.6499,2.6499,2.6499,2.7316,2.8109,2.8109,2.8963,2.9792,2.9792,2.9792,2.9792,2.9792,2.9792,2.9792,2.9792,2.9792,2.9792,2.9792,2.9792,2.9955,3.0419,3.047,3.047,3.047,3.0859,3.111,3.111,3.111,3.111,3.111,3.111,3.0922,3.0495,3.047,3.0256,2.9804,3.0244,3.047,3.047,3.0909,3.111,3.111,3.111,3.116,3.3807,3.3807,3.3807,3.3807,3.3634,3.3375,3.2937,0.0,0.0,0.0,3.1488,3.143,3.1249,3.119,0.0,3.119,3.119,3.119,3.119,3.0938,0.0,3.0351,2.9518,2.885,0.0,2.7944,2.76,2.76,2.76,2.76,2.76,2.76,2.76,2.76,2.76,2.76,2.76,2.76,2.76,2.76,2.76,2.76,2.76,2.76,2.76,2.7549,2.6416,2.5933,2.5837,2.4295,2.3679,2.3679,2.3245,2.3108,2.3108,2.3108,2.3108,2.3195,2.3803,2.4356,2.4958,2.5749,2.6248,2.6499,2.6499,2.6499,2.6499,2.6499,2.6499,2.6562,2.6851,2.7494,2.8185,2.8461,2.9176,2.9792,2.9792,2.9792,2.9792,2.9792,2.9792,2.9792,2.9792,2.9792,2.9792,2.9792,2.9792,2.9993,3.0545,3.0846,3.1022,3.1022,3.1248,3.1386,3.1386,3.1386,3.1386,3.1386,3.1386,3.1273,3.1035,3.1022,3.0896,3.0633,3.0884,3.1022,3.1022,3.1273,3.1386,3.1386,3.1386,3.1549,3.3793,3.3807,3.3793,3.3694,3.3419,3.3045,3.2484,3.2074,0.0,0.0,3.119,3.119,3.119,3.119,3.1151,0.0,3.1131,3.1151,3.1035,3.1131,3.0975,0.0,2.9761,0.0,2.8559,2.7944,0.0,2.76,2.76,2.76,2.76,2.76,2.76,2.76,2.76,2.76,2.76,2.76,2.76,2.76,2.76,2.76,2.76,2.76,2.76,2.7524,2.6054,2.5728,2.6095,2.3975,2.3573,2.4234,2.359,2.3365,2.3365,2.3365,2.3245,2.317,2.3653,2.4255,2.4863,2.5297,2.59,2.6499,2.6499,2.6499,2.6499,2.6499,2.6499,2.6612,2.7178,2.7695,2.8285,2.8913,2.9465,2.9792,2.9792,2.9792,2.9792,2.9792,2.9792,2.9792,2.9792,2.9792,2.9792,2.9792,2.9892,3.0168,3.0708,3.1235,3.1612,3.1738,3.175,3.175,3.175,3.175,3.175,3.175,3.175,3.17,3.1574,3.1562,3.1512,3.1386,3.1499,3.1562,3.1562,3.1687,3.175,3.175,3.175,3.1989,3.3707,3.3807,3.3707,3.3346,3.3229,3.2983,3.2162,0.0,3.1696,3.1291,3.119,3.119,3.119,3.119,3.1015,0.0,3.0838,3.1015,3.0456,3.0858,3.0975,3.0372,0.0,0.0,2.8559,2.7944,2.76,2.76,2.76,2.76,2.76,2.76,2.76,2.76,2.76,2.76,2.76,2.76,2.76,2.76,2.76,2.76,2.76,2.76,2.76,2.7524,2.6054,2.5425,2.537,2.3754,2.3573,2.4292,2.4234,2.4205,2.4205,2.4205,2.3738,2.3108,2.3158,2.3885,2.48,2.4838,2.5598,2.6499,2.6499,2.6499,2.6499,2.6499,2.6499,2.6612,2.7178,2.7695,2.8373,2.9453,2.9754,2.9792,2.9792,2.9792,2.9792,2.9792,2.9792,2.9792,2.9792,2.9792,2.9792,2.9792,3.0218,3.0733,3.1248,3.18,3.234,3.291,3.2918,3.2918,3.2918,3.2918,3.2918,3.2918,3.2918,3.2679,3.2152,3.2139,3.1901,3.1399,3.1888,3.2139,3.2139,3.2667,3.2918,3.2918,3.2918,3.2955,3.2965,3.3011,3.2981,3.2809,3.2583,3.2264,3.1914,0.0,3.1295,3.0781,3.0658,3.0658,3.0658,3.0356,3.0166,3.0272,3.0187,3.0038,2.9783,2.9973,2.9892,2.9293,2.8996,0.0,0.0,0.0,2.76,2.76,2.76,2.76,2.76,2.76,2.76,2.76,2.76,2.76,2.76,2.76,2.76,2.76,2.76,2.76,2.76,2.76,2.76,2.7534,2.6522,2.6068,2.5987,2.4909,2.4667,2.4951,2.4951,2.4681,2.4292,2.4292,2.3796,2.3108,2.3108,2.3847,2.4788,2.4788,2.5561,2.6499,2.6499,2.6499,2.6499,2.6499,2.6499,2.67,2.7544,2.8448,2.9239,2.9679,2.9792,2.9792,2.9792,2.9792,2.9792,2.9792,2.9792,2.9792,2.9792,2.9792,2.9792,2.9792,3.0269,3.0809,3.1323,3.1876,3.2441,3.3061,3.3124,3.3124,3.3124,3.3124,3.3124,3.3124,3.3124,3.2968,3.2742,3.2729,3.2629,3.2416,3.2616,3.2729,3.2729,3.2968,3.3124,3.3124,3.3124,3.3124,3.2416,3.2501,3.2467,3.2333,3.2039,3.1717,0.0,0.0,3.076,3.0166,3.0021,3.0021,3.0021,2.9695,2.9473,2.9717,2.9563,2.9339,2.9157,2.9293,2.918,0.0,0.0,2.8262,0.0,2.76,2.76,2.76,2.76,2.76,2.76,2.76,2.76,2.76,2.76,2.76,2.76,2.76,2.76,2.76,2.76,2.76,2.76,2.76,2.76,2.756,2.6826,2.651,2.6457,2.5701,2.5398,2.5398,2.5398,2.4951,2.4292,2.4292,2.3796,2.3138,2.3365,2.4064,2.4852,2.5039,2.5747,2.6499,2.6499,2.6499,2.6499,2.6499,2.6738,2.7165,2.7896,2.895,2.9792,2.9792,2.9792,2.9792,2.9792,2.9792,2.9792,2.9792,2.9792,2.9792,2.9792,2.9792,2.9792,2.9792,3.0394,3.0972,3.1348,3.2014,3.2629,3.3031,3.3124,3.3124,3.3124,3.3124,3.3124,3.3124,3.3124,3.3124,3.3124,3.3124,3.3124,3.3124,3.3124,3.3124,3.3124,3.3124,3.3124,3.3124,3.3124,3.3124,3.2195,3.2501,3.2401,3.1915,3.1789,3.1532,0.0,0.0,3.0145,2.954,2.9406,2.9406,2.9406,2.9406,2.9203,2.8614,2.8996,2.918,2.8583,2.9019,0.0,0.0,0.0,2.8262,2.766,2.76,2.76,2.76,2.76,2.76,2.76,2.76,2.76,2.76,2.76,2.76,2.76,2.76,2.76,2.76,2.76,2.76,2.76,2.76,2.76,2.756,2.6826,2.651,2.6457,2.5701,2.5398,2.5398,2.5398,2.4951,2.4292,2.4292,2.3796,2.3215,2.4002,2.4498,2.4904,2.5652,2.6155,2.6499,2.6499,2.6499,2.6499,2.6499,2.7243,2.8097,2.8109,2.895,2.9792,2.9792,2.9792,2.9792,2.9792,2.9792,2.9792,2.9792,2.9792,2.9792,2.9792,2.9792,2.9792,2.9792,3.0696,3.1386,3.1386,3.2365,3.3111,3.3124,3.3124,3.3124,3.3124,3.3124,3.3124,3.3124,3.3124,3.3124,3.3124,3.3124,3.3124,3.3124,3.3124,3.3124,3.3124,3.3124,3.3124,3.3124,3.3124,3.3124,3.1414,3.1601,3.1488,3.0914,3.0774,3.0592,2.9854,0.0,2.9518,2.8919,2.8779,2.8779,2.8779,2.8448,2.8247,2.8463,2.8319,2.81,0.0,0.0,0.0,2.791,2.787,2.781,0.0,0.0,2.76,2.76,2.76,2.76,2.76,2.76,2.76,2.76,2.76,2.76,2.76,2.76,2.76,2.76,2.76,2.76,2.76,2.76,2.76,2.76,2.7357,2.6956,2.651,2.6785,2.6322,2.5453,2.596,2.5398,2.435,2.4879,2.4553,2.3972,2.4205,2.4865,2.5602,2.5932,2.6233,2.6714,2.7855,2.7417,2.6499,2.6499,2.7256,2.8109,2.8109,2.895,2.9792,2.9792,2.9792,2.9792,2.9792,2.9792,2.9792,2.9792,2.9792,2.9792,2.9792,2.9792,2.9917,3.0294,3.0947,3.1524,3.1901,3.2604,3.3124,3.3124,3.3124,3.3124,3.3124,3.3124,3.3124,3.3124,3.3124,3.3124,3.3124,3.3124,3.3124,3.3124,3.3124,3.3124,3.3124,3.3124,3.3124,3.3124,3.3124,3.3124,3.1035,3.1035,3.076,3.0377,3.0123,2.9805,0.0,0.0,2.8896,2.8271,2.8165,2.8165,2.8165,2.786,2.771,2.8091,2.786,2.76,0.0,0.0,0.0,2.76,0.0,0.0,0.0,2.76,2.76,2.76,2.76,2.76,2.76,2.76,2.76,2.76,2.76,2.76,2.76,2.76,2.76,2.76,2.76,2.76,2.76,2.76,2.76,2.76,2.76,2.7331,0.0,2.7408,2.6733,2.5453,2.5906,2.5342,2.435,2.4823,2.4681,2.4379,2.4922,2.5491,2.6043,2.635,2.6658,2.7196,2.8588,2.8051,2.6871,2.6589,2.7256,2.8109,2.8109,2.895,2.9792,2.9792,2.9792,2.9792,2.9792,2.9792,2.9792,2.9792,2.9792,2.9792,2.9792,2.9792,2.998,3.0532,3.106,3.1587,3.2139,3.2717,3.3124,3.3124,3.3124,3.3124,3.3124,3.3124,3.3124,3.3124,3.3124,3.3124,3.3124,3.3124,3.3124,3.3124,3.3124,3.3124,3.3124,3.3124,3.3124,3.3124,3.3124,3.3124,0.0,3.0777,3.0293,3.0251,2.9783,2.918,2.8583,0.0,0.0,2.7725,2.76,2.76,2.76,2.76,2.76,2.76,2.76,0.0,0.0,2.76,0.0,0.0,2.76,0.0,2.76,2.76,2.76,2.76,2.76,2.76,2.76,2.76,2.76,2.76,2.76,2.76,2.76,2.76,2.76,2.76,2.76,2.76,2.76,2.76,2.76,2.76,2.76,2.76,2.76,2.76,2.6733,2.5398,2.5453,2.5007,2.4321,2.435,2.4379,2.4567,2.596,2.6299,2.6285,2.6933,2.7507,2.8117,2.878,2.8427,2.7604,2.6816,2.7349,2.817,2.8109,2.895,2.9792,2.9792,2.9792,2.9792,2.9792,2.9792,2.9792,2.9792,2.9792,2.9792,2.9792,2.9792,2.9993,3.0583,3.1085,3.1599,3.2202,3.2742,3.3124,3.3124,3.3124,3.3124,3.3124,3.3124,3.3124,3.3124,3.3124,3.3124,3.3124,3.3124,3.3124,3.3124,3.3124,3.3124,3.3124,3.3124,3.3124,3.3124,3.3124,3.3124,3.1151,0.0,3.0187,2.9717,2.9157,2.8543,0.0,0.0,0.0,0.0,0.0,2.76,2.76,2.76,2.76,2.76,0.0,2.76,2.76,0.0,0.0,2.76,2.76,2.76,2.76,2.76,2.76,2.76,2.76,2.76,2.76,2.76,2.76,2.76,2.76,2.76,2.76,2.76,2.76,2.76,2.76,2.76,2.76,2.76,2.76,2.76,2.76,2.76,2.76,2.76,2.6733,2.5453,2.6014,2.5453,2.4379,2.4922,2.5147,2.5175,2.5536,2.6214,2.7105,2.8178,2.948,3.0419,2.9317,2.8876,2.8524,2.767,2.8239,2.8948,2.8279,2.895,2.9792,2.9792,2.9792,2.9792,2.9792,2.9792,2.9792,2.9792,2.9792,2.9792,2.9792,2.9792,3.0118,3.1072,3.1311,3.175,3.2742,3.2993,3.3124,3.3124,3.3124,3.3124,3.3124,3.3124,3.3124,3.3124,3.3124,3.3124,3.3124,3.3124,3.3124,3.3124,3.3124,3.3124,3.3124,3.3124,3.3124,3.3124,3.3124,3.3124,3.119,3.0777,3.0166,2.9563,2.8943,2.8343,2.7735,0.0,0.0,0.0,0.0,2.76,2.76,2.76,2.76,0.0,2.76,0.0,0.0,0.0,2.76,2.76,2.76,2.76,2.76,2.76,2.76,2.76,2.76,2.76,2.76,2.76,2.76,2.76,2.76,2.76,2.76,2.76,2.76,2.76,2.76,2.76,2.76,2.76,2.76,2.76,2.76,2.76,2.76,2.76,2.6916,2.5933,2.6336,2.6014,2.537,2.5755,2.5673,2.5508,2.6188,2.6987,2.7962,2.9611,3.0524,3.0837,3.0299,3.0133,2.9889,2.8652,2.9147,2.9822,2.8912,2.9558,3.0317,2.9895,2.9792,2.9792,2.9792,2.9792,2.9792,2.9792,2.9792,2.9792,2.9792,2.9792,3.0156,3.1235,3.1386,3.18,3.293,3.3124,3.3124,3.3124,3.3124,3.3124,3.3124,3.3124,3.3124,3.3124,3.3124,3.3124,3.3124,3.3124,3.3124,3.3124,3.3124,3.3124,3.3124,3.3124,3.3124,3.3124,3.3124,3.3124,3.119,3.0777,3.0166,2.9563,2.8943,2.8343,2.7735,0.0,0.0,0.0,0.0,0.0,0.0,2.76,0.0,0.0,0.0,0.0,2.76,2.76,2.76,2.76,2.76,2.76,2.76,2.76,2.76,2.76,2.76,2.76,2.76,2.76,2.76,2.76,2.76,2.76,2.76,2.76,2.76,2.76,2.76,2.76,2.76,2.76,2.76,2.76,2.76,2.76,2.76,2.76,2.7178,2.651,2.6616,2.659,2.651,2.651,2.6095,2.5783,2.7213,2.8074,2.884,3.0862,3.1029,3.0614,3.1278,3.1511,3.119,2.9797,3.0164,3.0764,2.9856,3.0525,3.118,3.0241,2.9998,2.996,2.983,2.9792,2.9792,2.9792,2.9792,2.9792,2.9792,2.9867,3.0256,3.1235,3.1461,3.1888,3.2943,3.3124,3.3124,3.3124,3.3124,3.3124,3.3124,3.3124,3.3124,3.3124,3.3124,3.3124,3.3124,3.3124,3.3124,3.3124,3.3124,3.3124,3.3124,3.3124,3.3124,3.3124,3.3124,3.3124,3.119,3.0777,3.0166,2.9563,2.8943,2.8343,2.7735,0.0,0.0,0.0,0.0,0.0,0.0,2.76,2.76,0.0,0.0,2.76,0.0,0.0,2.76,2.76,0.0,2.76,2.76,2.76,2.76,2.76,2.76,2.76,2.76,2.76,2.76,2.76,2.76,2.76,2.76,2.76,2.76,2.76,2.76,2.76,2.76,2.76,2.76,2.76,2.76,2.76,2.76,2.76,2.7178,2.6563,2.7203,2.7034,2.651,2.651,2.6431,2.6521,2.7829,2.8754,2.9625,3.1049,3.1409,3.1351,3.1467,3.1511,3.1438,3.119,3.15,3.1706,3.0798,3.1487,3.2141,3.1217,3.097,3.0758,2.9972,2.9792,2.9792,2.9792,2.9792,2.9792,2.9792,3.0181,3.0696,3.1298,3.1788,3.2328,3.2993,3.3124,3.3124,3.3124,3.3124,3.3124,3.3124,3.3124,3.3124,3.3124,3.3124,3.3124,3.3124,3.3124,3.3124,3.3124,3.3124,3.3124,3.3124,3.3124,3.3124,3.3124,3.3124,3.3124,3.119,3.0995,3.0559,2.9629,2.8943,2.8343,2.7735,0.0,0.0,0.0,0.0,0.0,0.0,0.0,2.76,2.76,0.0,2.76,2.76,2.76,2.76,0.0,2.76,2.76,2.76,2.76,2.76,2.76,2.76,2.76,2.76,2.76,2.76,2.76,2.76,2.76,2.76,2.76,2.76,2.76,2.76,2.76,2.76,2.76,2.76,2.76,2.76,2.76,2.76,2.76,2.7408,2.7111,2.7458,2.7382,2.7034,2.6642,2.651,2.6683,2.7977,2.893,2.9804,3.1077,3.1511,3.1511,3.1511,3.1511,3.1511,3.1511,3.2153,3.2647,3.1738,3.2427,3.2996,3.1536,3.1217,3.0932,2.9998,2.9792,2.9792,2.9792,2.9792,2.9792,2.9792,3.0256,3.0783,3.1311,3.1863,3.2416,3.3006,3.3124,3.3124,3.3124,3.3124,3.3124,3.3124,3.3124,3.3124,3.3124,3.3124,3.3124,3.3124,3.3124,3.3124,3.3124,3.3124,3.3124,3.3124,3.3124,3.3124,3.3124,3.3124,3.3124,3.119,3.1112,3.076,2.9848,2.9248,2.8685,2.7795,2.771,0.0,0.0,0.0,0.0,0.0,2.76,0.0,2.76,2.76,2.76,2.76,2.76,2.76,2.76,2.76,2.76,2.76,2.76,2.76,2.76,2.76,2.76,2.76,2.76,2.76,2.76,2.76,2.76,2.76,2.76,2.76,2.76,2.76,2.76,2.76,2.76,2.76,2.76,2.76,2.76,2.76,2.76,2.76,2.76,2.76,2.76,2.7534,2.6956,2.6747,2.6948,2.8241,2.9083,2.9804,3.1077,3.1511,3.1511,3.1511,3.1511,3.154,3.169,3.2602,3.3331,3.2616,3.3223,3.3602,3.1924,3.1352,3.0932,2.9998,2.9792,2.9792,2.9792,2.9792,2.9792,2.9792,3.0344,3.0934,3.1336,3.1976,3.2579,3.3061,3.3124,3.3124,3.3124,3.3124,3.3124,3.3124,3.3124,3.3124,3.3124,3.3124,3.3124,3.3124,3.3124,3.3124,3.3124,3.3124,3.3124,3.3124,3.3124,3.3124,3.3124,3.3124,3.3124,3.119,3.0797,3.0335,3.0251,3.0208,0.0,2.7978,2.8042,0.0,2.7725,0.0,0.0,0.0,2.76,2.76,2.76,2.76,2.76,2.76,2.76,2.76,2.76,2.76,2.76,2.76,2.76,2.76,2.76,2.76,2.76,2.76,2.76,2.76,2.76,2.76,2.76,2.76,2.76,2.76,2.76,2.76,2.76,2.76,2.76,2.76,2.76,2.76,2.76,2.76,2.76,2.76,2.76,2.76,2.76,2.76,2.7549,2.7524,2.7703,2.9047,2.9537,2.9804,3.1077,3.1511,3.1511,3.1511,3.1511,3.163,3.2243,3.2961,3.3499,3.3423,3.3709,3.3739,3.2749,3.1815,3.0932,2.9998,2.9792,2.9792,2.9792,2.9792,2.9792,2.9792,3.0645,3.1348,3.1386,3.2315,3.3031,3.3111,3.3124,3.3124,3.3124,3.3124,3.3124,3.3124,3.3124,3.3124,3.3124,3.3124,3.3124,3.3124,3.3124,3.3124,3.3124,3.3124,3.3124,3.3124,3.3124,3.3124,3.3124,3.3124,3.3124,3.119,3.1035,3.076,3.0377,3.058,0.0,0.0,2.8042,2.7968,2.814,2.786,0.0,0.0,0.0,2.771,2.8091,2.8165,2.8165,2.8165,2.8165,2.8018,2.7635,2.76,2.76,2.76,2.76,2.76,2.76,2.76,2.76,2.76,2.76,2.76,2.76,2.76,2.76,2.76,2.76,2.76,2.76,2.76,2.76,2.76,2.76,2.76,2.76,2.76,2.76,2.76,2.76,2.76,2.7534,2.71,2.6904,2.6904,2.6904,2.6904,2.7173,2.8982,2.9606,2.9804,3.1077,3.1511,3.1511,3.1511,3.1511,3.1645,3.2303,3.2991,3.3589,3.3993,3.4068,3.391,3.3567,3.2321,3.1106,3.0771,3.0216,2.9792,2.9792,2.9792,2.9792,2.9792,3.0683,3.1386,3.1386,3.2353,3.3124,3.3124,3.3124,3.3124,3.3124,3.3124,3.3124,3.3124,3.3124,3.3124,3.3124,3.3124,3.3124,3.3124,3.3124,3.3124,3.3124,3.3124,3.3124,3.3124,3.3124,3.3124,3.3124,3.3124,3.3124,3.0638,3.0638,3.0539,0.0,0.0,0.0,2.8779,2.8319,2.8174,2.8198,2.7718,0.0,2.7555,0.0,0.0,0.0,2.8213,2.8271,2.8463,2.8334,2.814,2.791,2.7725,2.76,2.76,2.76,2.76,2.76,2.76,2.76,2.76,2.76,2.76,2.76,2.76,2.76,2.76,2.76,2.76,2.76,2.76,2.76,2.76,2.76,2.76,2.76,2.76,2.76,2.7575,2.7357,2.7255,2.7229,2.6956,2.6852,2.6852,2.6852,2.6852,2.712,2.894,2.9606,2.9804,3.1077,3.1511,3.1511,3.1511,3.1511,3.169,3.2587,3.3155,3.3694,3.4577,3.442,3.3993,3.3993,3.2784,3.1646,3.1646,3.0908,3.0241,3.0241,2.9998,2.9792,2.9792,3.0683,3.1386,3.1386,3.2353,3.3124,3.3124,3.3124,3.3124,3.3124,3.3124,3.3124,3.3124,3.3124,3.3124,3.3124,3.3124,3.3124,3.3124,3.3124,3.3124,3.3124,3.3124,3.3124,3.3124,3.3124,3.3124,3.3124,3.3124,3.3124,2.9406,2.9406,2.9406,0.0,0.0,0.0,2.8487,2.895,2.9027,2.7845,2.7076,2.6821,2.7505,2.7061,0.0,2.752,2.7625,2.7835,2.8415,2.7993,2.7835,2.8415,2.7968,2.7625,2.76,2.76,2.76,2.76,2.76,2.76,2.76,2.76,2.76,2.76,2.76,2.76,2.76,2.76,2.76,2.76,2.76,2.76,2.76,2.76,2.76,2.76,2.76,2.76,2.7534,2.68,2.651,2.6563,2.7306,2.76,2.76,2.76,2.76,2.7794,2.9142,2.9606,2.9831,3.1077,3.1511,3.1511,3.1511,3.1511,3.178,3.3125,3.3499,3.3799,3.516,3.4758,3.4027,3.4027,3.3276,3.2593,3.2593,3.1852,3.1217,3.1217,3.0457,2.9792,2.9792,3.0683,3.1386,3.1386,3.2353,3.3124,3.3124,3.3124,3.3124,3.3124,3.3124,3.3124,3.3124,3.3124,3.3124,3.3124,3.3124,3.3124,3.3124,3.3124,3.3124,3.3124,3.3124,3.3124,3.3124,3.3124,3.3124,3.3124,3.3124,3.3124,2.9406,2.9406,0.0,2.9406,0.0,0.0,0.0,2.795,0.0,0.0,2.7787,2.8506,2.8288,2.842,0.0,2.8826,2.8857,2.8927,2.9111,2.8973,2.8779,2.8535,2.8343,2.8067,2.765,2.76,2.76,2.76,2.76,2.76,2.76,2.76,2.76,2.76,2.76,2.76,2.76,2.76,2.76,2.76,2.76,2.76,2.76,2.76,2.76,2.76,2.76,2.7306,2.68,2.659,2.651,2.651,2.6747,2.7137,2.7549,2.7023,2.7447,2.8427,2.9307,2.9864,3.0372,3.1212,3.1511,3.1511,3.1511,3.1511,3.178,3.3125,3.3499,3.3799,3.516,3.5279,3.5067,3.5067,3.3788,3.2784,3.3449,3.2321,3.1217,3.1217,3.0457,2.9792,2.9792,3.0683,3.1386,3.1386,3.2353,3.3124,3.3124,3.3124,3.3124,3.3124,3.3124,3.3124,3.3124,3.3124,3.3124,3.3124,3.3124,3.3124,3.3124,3.3124,3.3124,3.3124,3.3124,3.3124,3.3124,3.3124,3.3124,3.3124,3.3124,3.3124,2.8622,2.867,0.0,2.867,2.867,2.8513,2.7885,0.0,0.0,0.0,2.7708,2.8264,2.8152,2.8404,0.0,2.9011,2.9042,2.9127,2.9361,2.918,2.8919,2.8535,2.8487,2.8262,2.766,2.76,2.76,2.76,2.76,2.76,2.76,2.76,2.76,2.76,2.76,2.76,2.76,2.76,2.76,2.76,2.76,2.76,2.76,2.76,2.76,2.76,2.76,2.7178,2.651,2.6826,2.6774,2.6537,2.6826,2.7203,2.7549,2.7086,2.7632,2.8697,2.9382,2.9983,3.0612,3.1271,3.1511,3.1511,3.1511,3.1511,3.178,3.3125,3.3499,3.3799,3.516,3.5504,3.5504,3.5504,3.4591,3.3905,3.4476,3.3101,3.1742,3.1742,3.0709,2.9792,2.9792,3.0683,3.1386,3.1386,3.2353,3.3124,3.3124,3.3124,3.3124,3.3124,3.3124,3.3124,3.3124,3.3124,3.3124,3.3124,3.3124,3.3124,3.3124,3.3124,3.3124,3.3124,3.3124,3.3124,3.3124,3.3124,3.3124,3.3124,3.3124,3.3124,2.7306,2.7484,0.0,2.7575,2.76,0.0,2.6836,2.7165,2.7585,2.7525,0.0,2.6954,2.758,2.7692,2.7868,2.8474,2.8535,2.8724,2.9316,2.8943,2.8559,2.8511,2.8559,2.8319,2.766,2.76,2.76,2.76,2.76,2.76,2.76,2.76,2.76,2.76,2.76,2.76,2.76,2.76,2.76,2.76,2.76,2.76,2.76,2.76,2.76,2.76,2.7524,2.7111,2.6537,2.7137,2.7034,2.6563,2.7255,2.7534,2.76,2.76,2.8064,2.8771,2.9397,3.0028,3.0702,3.1301,3.1511,3.1511,3.1511,3.1511,3.178,3.3125,3.3499,3.3799,3.516,3.5504,3.5504,3.5504,3.5504,3.5504,3.5504,3.4056,3.2749,3.2749,3.1267,3.0037,2.9934,3.083,3.1533,3.1565,3.2416,3.3124,3.3124,3.3124,3.3124,3.3124,3.3124,3.3124,3.3124,3.3124,3.3124,3.3124,3.3124,3.3124,3.3124,3.3124,3.3124,3.3124,3.3124,3.3124,3.3124,3.3124,3.3124,3.3124,3.3124,3.3124,2.6537,2.6747,0.0,0.0,2.76,2.7555,2.742,2.7495,2.745,2.6926,2.7498,2.8126,2.828,2.8677,2.9051,2.9187,2.8803,2.8724,2.9316,2.9293,2.9019,2.8559,2.8919,2.8787,2.771,2.76,2.76,2.76,2.76,2.76,2.76,2.76,2.76,2.76,2.76,2.76,2.76,2.76,2.76,2.76,2.76,2.76,2.76,2.76,2.76,2.7575,2.6982,2.6642,2.6484,2.6054,2.6122,2.651,2.6669,2.71,2.76,2.76,2.8364,2.9412,2.9562,3.0342,3.1316,3.1451,3.1511,3.1511,3.1511,3.1511,3.178,3.3125,3.3499,3.3799,3.516,3.5504,3.5504,3.5504,3.5504,3.5504,3.5504,3.4543,3.3705,3.3705,3.2784,3.1756,3.1007,3.181,3.2573,3.2693,3.2918,3.3124,3.3124,3.3124,3.3124,3.3124,3.3124,3.3124,3.3124,3.3124,3.3124,3.3124,3.3124,3.3124,3.3124,3.3124,3.3124,3.3124,3.3124,3.3124,3.3124,3.3124,3.3124,3.3124,3.3124,3.3124,2.5755,0.0,0.0,2.6455,0.0,2.706,2.706,2.7357,2.7495,2.7151,2.7618,2.8067,2.8067,2.8567,2.8966,2.8966,2.8724,2.8606,2.8919,2.8966,2.8756,2.814,2.8591,2.8614,2.7685,2.76,2.76,2.76,2.76,2.76,2.76,2.76,2.76,2.76,2.76,2.76,2.76,2.76,2.76,2.76,2.76,2.76,2.76,2.76,2.76,2.7575,2.7188,2.7049,2.6982,2.6628,2.668,2.7049,2.7049,2.7255,2.76,2.76,2.8453,2.9606,2.9606,3.0432,3.1511,3.1511,3.1511,3.1511,3.1511,3.1511,3.178,3.3125,3.3499,3.3799,3.516,3.5504,3.5504,3.5504,3.5504,3.5504,3.5504,3.4725,3.3993,3.3993,3.3241,3.2464,3.196,3.2384,3.3039,3.3743,3.3441,3.3124,3.3124,3.3124,3.3124,3.3124,3.3124,3.3124,3.3124,3.3124,3.3124,3.3124,3.3124,3.3124,3.3124,3.3124,3.3124,3.3124,3.3124,3.3124,3.3124,3.3124,3.3124,3.3124,3.3124,3.3124,2.5007,0.0,2.5398,2.5398,2.5864,0.0,2.631,2.6785,2.7265,2.7382,2.7524,2.76,2.76,2.7993,2.8367,2.8487,2.8415,2.8367,2.8487,2.8487,2.8286,2.766,2.814,2.8262,2.766,2.76,2.76,2.76,2.76,2.76,2.76,2.76,2.76,2.76,2.76,2.76,2.76,2.76,2.76,2.76,2.76,2.76,2.76,2.76,2.76,2.76,2.7473,2.7408,2.7408,2.7408,2.7408,2.7408,2.7408,2.7484,2.76,2.7735,2.8558,2.9621,2.9726,3.0522,3.1511,3.1511,3.1511,3.1511,3.1511,3.1511,3.178,3.3125,3.3499,3.3799,3.516,3.5504,3.5504,3.5504,3.5504,3.5504,3.5504,3.4839,3.4245,3.4245,3.3498,3.2911,3.3133,3.3122,3.3463,3.4533,3.3953,3.3313,3.3124,3.3124,3.3124,3.3124,3.3124,3.3124,3.3124,3.3124,3.3124,3.3124,3.3124,3.3124,3.3124,3.3283,3.3398,3.3398,3.3197,3.3197,3.3398,3.3398,3.3471,3.3628,3.3484,3.3398,0.0,0.0,2.5398,0.0,2.5481,2.5536,0.0,0.0,2.5892,0.0,2.7152,2.76,2.76,2.7675,2.7894,2.8415,2.8067,2.791,2.8431,2.8487,2.8286,2.766,2.814,2.8262,2.766,2.76,2.76,2.76,2.76,2.76,2.76,2.76,2.76,2.76,2.76,2.76,2.76,2.76,2.76,2.76,2.76,2.76,2.76,2.76,2.76,2.756,2.693,2.6642,2.6642,2.6642,2.6642,2.6642,2.6642,2.7034,2.766,2.8248,2.8936,2.9654,3.0193,3.0853,3.1511,3.1511,3.1511,3.1511,3.1511,3.1511,3.178,3.3125,3.3499,3.3799,3.516,3.5504,3.5504,3.5504,3.5504,3.5504,3.5504,3.5392,3.5294,3.5294,3.4495,3.4166,3.5282,3.4766,3.4294,3.4643,3.4594,3.415,3.324,3.3124,3.3124,3.3124,3.3124,3.3124,3.3124,3.3124,3.3124,3.3124,3.3124,3.3124,3.3124,3.3995,3.4511,3.4511,3.3556,3.3556,3.4511,3.4511,3.4925,3.5774,3.4897,3.4511,2.3412,2.3872,2.4121,0.0,2.4439,2.4794,2.4794,0.0,2.5481,2.581,2.6135,2.6613,2.7458,2.76,2.7685,2.7944,2.776,2.7685,2.7944,2.7993,2.791,2.7625,2.7835,2.7894,2.7625,2.76,2.76,2.76,2.76,2.76,2.76,2.76,2.76,2.76,2.76,2.76,2.76,2.76,2.76,2.76,2.76,2.76,2.76,2.7178,2.7203,2.7575,2.7255,2.7126,2.7126,2.7126,2.7126,2.7126,2.7126,2.7306,2.7675,2.8353,2.9011,2.9696,3.0283,3.0928,3.1511,3.1511,3.1511,3.1511,3.1511,3.1765,3.2243,3.323,3.3769,3.4262,3.525,3.5504,3.5504,3.5504,3.5504,3.5504,3.5504,3.5504,3.5504,3.5504,3.5133,3.5251,3.6531,3.5928,3.5297,3.5531,3.5047,3.4553,3.4079,3.3995,3.3995,3.3995,3.3995,3.3755,3.3154,3.3124,3.3124,3.3124,3.3124,3.3356,3.3953,3.447,3.4979,3.5507,3.5075,3.5075,3.5547,3.5547,3.548,3.5359,3.5467,3.4925,0.0,0.0,2.2537,2.2732,2.3263,2.3754,0.0,0.0,2.4866,0.0,2.5119,2.5494,2.6811,2.7045,2.7111,2.728,2.7331,2.7382,2.7575,2.76,2.76,2.76,2.76,2.76,2.76,2.76,2.76,2.76,2.76,2.76,2.76,2.76,2.76,2.76,2.76,2.76,2.76,2.76,2.76,2.76,2.76,2.76,2.7575,2.7034,2.7086,2.76,2.7408,2.7331,2.7331,2.7509,2.7484,2.7331,2.7524,2.7705,2.7944,2.8607,2.9265,2.9909,3.0552,3.1077,3.1511,3.1511,3.1511,3.1511,3.1511,3.1959,3.2647,3.3305,3.3963,3.4668,3.5325,3.5504,3.5504,3.5504,3.5504,3.5504,3.5504,3.5504,3.5504,3.5504,3.5504,3.5908,3.7195,3.6787,3.636,3.6578,3.5961,3.5373,3.5129,3.5088,3.5088,3.5088,3.4856,3.4387,3.3556,3.3283,3.324,3.3471,3.3513,3.3995,3.5047,3.5332,3.5842,3.6604,3.6877,3.6891,3.6604,3.6604,3.6344,3.5895,3.6383,3.5802,0.0,2.0719,0.0,2.1753,2.2002,0.0,0.0,0.0,2.3454,2.4205,2.435,2.4595,2.537,2.5508,2.5728,2.6443,2.6563,2.68,2.7484,2.76,2.76,2.76,2.76,2.76,2.76,2.76,2.76,2.76,2.76,2.76,2.76,2.76,2.76,2.76,2.76,2.76,2.76,2.76,2.76,2.76,2.76,2.76,2.76,2.756,2.756,2.756,2.6852,2.6563,2.6616,2.7306,2.7203,2.6642,2.7331,2.8004,2.8622,2.928,2.9924,3.0552,3.1212,3.1466,3.1511,3.1511,3.1511,3.1511,3.1511,3.1959,3.2647,3.3305,3.3963,3.4668,3.5325,3.5504,3.5504,3.5504,3.5504,3.5504,3.5504,3.5504,3.5504,3.5504,3.5504,3.5908,3.7195,3.737,3.7405,3.7679,3.7677,3.7266,3.6251,3.6119,3.6119,3.6119,3.5278,3.4664,3.4622,3.367,3.3513,3.4553,3.4622,3.5088,3.6093,3.7098,3.7677,3.7715,3.8708,3.8745,3.7715,3.7715,3.8219,3.9141,3.8182,3.7677,0.0,0.0,0.0,2.0974,2.1491,2.197,2.2261,2.2732,2.3198,2.3484,2.3543,2.3619,2.3872,2.4724,2.5646,2.6377,2.651,2.6747,2.7484,2.76,2.76,2.76,2.76,2.76,2.76,2.76,2.76,2.76,2.76,2.76,2.76,2.76,2.76,2.76,2.7137,2.6878,2.6878,2.7357,2.76,2.76,2.76,2.76,2.7575,2.7111,2.7152,2.756,2.6826,2.6774,2.7229,2.7484,2.7433,2.7229,2.7484,2.8019,2.8682,2.9367,2.9968,3.0612,3.1271,3.1511,3.1511,3.1511,3.1511,3.1511,3.1511,3.2258,3.3185,3.3425,3.4292,3.519,3.5444,3.5504,3.5504,3.5504,3.5504,3.5504,3.5504,3.5504,3.5504,3.5504,3.5504,3.5908,3.7195,3.7404,3.749,3.7754,3.7791,3.7663,3.7266,3.7228,3.7228,3.7228,3.6304,3.5668,3.5668,3.4733,3.4581,3.5588,3.5668,3.6146,3.7175,3.7587,3.8107,3.8819,3.9177,3.9228,3.8819,3.8819,3.8671,3.8383,3.8708,3.8092,1.9562,0.0,0.0,0.0,2.059,2.1175,2.1784,2.2322,2.275,2.3035,2.3108,2.3108,2.3108,2.393,2.4951,2.5987,2.6122,2.639,2.7111,2.7433,2.7524,2.7255,2.7458,2.76,2.76,2.76,2.76,2.76,2.76,2.76,2.76,2.76,2.76,2.76,2.7111,2.6747,2.651,2.7229,2.7473,2.7229,2.7484,2.7458,2.7229,2.6982,2.7008,2.7229,2.6982,2.7152,2.76,2.76,2.76,2.76,2.76,2.8154,2.8981,2.9457,3.0118,3.0883,3.1346,3.1511,3.1511,3.1511,3.1511,3.1511,3.1511,3.2452,3.3499,3.3499,3.4472,3.5504,3.5504,3.5504,3.5504,3.5504,3.5504,3.5504,3.5504,3.5504,3.5504,3.5504,3.5504,3.5908,3.7195,3.7404,3.7595,3.823,3.8345,3.8345,3.8345,3.8345,3.8345,3.8345,3.7381,3.6735,3.6735,3.5788,3.5628,3.6682,3.6735,3.7214,3.8308,3.8345,3.8671,3.9388,3.9388,3.9388,3.9388,3.9388,3.9017,3.8345,3.9068,3.8657,0.0,0.0,0.0,0.0,0.0,0.0,2.1428,2.1846,2.2106,2.2884,2.3078,2.3078,2.3108,2.3108,2.359,2.5119,2.537,2.5618,2.6404,2.7126,2.7306,2.6616,2.7178,2.76,2.76,2.76,2.76,2.76,2.76,2.76,2.76,2.76,2.76,2.7575,2.76,2.7229,2.6469,2.7229,2.7229,2.651,2.7229,2.7188,2.6537,2.7229,2.7178,2.6537,2.7255,2.7575,2.76,2.76,2.76,2.76,2.7615,2.8438,2.9606,2.9636,3.0417,3.1511,3.1511,3.1511,3.1511,3.1511,3.1511,3.1511,3.1511,3.2452,3.3499,3.3499,3.4472,3.5504,3.5504,3.5504,3.5504,3.5504,3.5504,3.5504,3.5504,3.5504,3.5504,3.5504,3.5504,3.5908,3.7195,3.7404,3.7868,3.9179,3.9388,3.9388,3.9388,3.9388,3.9388,3.9388,3.8435,3.7791,3.7829,3.6852,3.6682,3.7791,3.7829,3.8308,3.9337,3.9388,3.9388,3.9388,3.9388,3.9388,3.9388,3.9388,3.9388,3.9388,3.9388,3.9388,1.6991,0.0,0.0,0.0,0.0,0.0,1.9911,2.0526,2.1195,2.2063,2.223,2.2414,2.2975,2.3108,2.3424,2.4452,2.4595,2.5035,2.631,2.6669,2.693,2.7255,2.7473,2.76,2.76,2.76,2.76,2.76,2.76,2.76,2.76,2.76,2.7357,2.6826,2.7331,2.6993,2.5728,2.6967,2.7229,2.651,2.6721,2.6695,2.6484,2.6162,2.6188,2.651,2.6721,2.7126,2.76,2.76,2.76,2.7645,2.8113,2.8858,2.9666,3.0088,3.0791,3.1511,3.1511,3.1511,3.1511,3.1511,3.1511,3.1511,3.1511,3.2452,3.3499,3.3499,3.4472,3.5504,3.5504,3.5504,3.5504,3.5504,3.5504,3.5504,3.5504,3.5504,3.5504,3.5504,3.5504,3.5908,3.7195,3.7404,3.7868,3.9179,3.9388,3.9388,3.9388,3.9388,3.9388,3.9388,3.8435,3.8107,3.8907,3.7979,3.7829,3.8907,3.8943,3.9104,3.9388,3.9388,3.9388,3.9388,3.9388,3.9388,3.9388,3.9388,3.9388,3.9388,3.9388,3.9388,0.0,0.0,0.0,0.0,0.0,0.0,1.9694,2.0236,2.0942,2.2156,2.2414,2.2537,2.3005,2.3108,2.3245,2.3708,2.3796,2.4221,2.5425,2.6122,2.6563,2.668,2.7214,2.76,2.76,2.76,2.76,2.76,2.76,2.76,2.76,2.7306,2.71,2.6956,2.6785,2.6269,2.5398,2.6575,2.6759,2.6041,2.6336,2.651,2.6484,2.6041,2.6095,2.651,2.6826,2.7188,2.76,2.76,2.76,2.766,2.8323,2.9011,2.9681,3.0283,3.0913,3.1511,3.1511,3.1511,3.1511,3.1511,3.1511,3.1511,3.1511,3.2452,3.3499,3.3499,3.4472,3.5504,3.5504,3.5504,3.5504,3.5504,3.5504,3.5504,3.5504,3.5504,3.5504,3.5504,3.5504,3.5908,3.7195,3.7404,3.7868,3.9179,3.9388,3.9388,3.9388,3.9388,3.9388,3.9388,3.8819,3.8708,3.9337,3.8819,3.8745,3.9337,3.9388,3.9388,3.9388,3.9388,3.9388,3.9388,3.9388,3.9388,3.9388,3.9388,3.9388,3.9388,3.9388,3.9388,0.0,0.0,0.0,0.0,1.7217,0.0,1.9944,2.0301,2.0751,2.2341,2.2689,2.272,2.2811,2.2884,2.2975,2.2975,2.3035,2.3395,2.4205,2.5425,2.6068,2.5563,2.668,2.7524,2.76,2.76,2.76,2.76,2.76,2.76,2.76,2.6904,2.6826,2.7575,2.6242,2.5481,2.5398,2.6203,2.6176,2.5287,2.6041,2.6377,2.6377,2.6377,2.6431,2.6537,2.728,2.76,2.76,2.76,2.7645,2.7779,2.8442,2.9116,2.9786,3.0387,3.0972,3.1511,3.1511,3.1511,3.1511,3.1511,3.1511,3.1511,3.1511,3.2452,3.3529,3.3679,3.4577,3.5504,3.5504,3.5504,3.5504,3.5504,3.5504,3.5504,3.5504,3.5504,3.5504,3.5504,3.5504,3.5908,3.7195,3.7404,3.7868,3.9179,3.9388,3.9388,3.9388,3.9388,3.9388,3.9388,3.9388,3.9388,3.9388,3.9388,3.9388,3.9388,3.9388,3.9388,3.9388,3.9388,3.9388,3.9388,3.9388,3.9388,3.9388,3.9388,3.9388,3.9388,3.9388,3.9388,0.0,0.0,0.0,0.0,0.0,0.0,1.825,1.8496,1.8821,1.9846,2.0031,2.0257,2.0974,2.1647,2.2125,2.2125,2.2671,2.3395,2.4205,2.4538,2.5119,2.6149,2.6537,2.6956,2.7534,2.76,2.76,2.76,2.76,2.76,2.76,2.6904,2.6826,2.7575,2.6733,2.6014,2.5398,2.6733,2.6428,2.4509,2.5259,2.5618,2.5618,2.5618,2.5933,2.6537,2.728,2.76,2.76,2.76,2.7929,2.8472,2.9131,2.9774,3.0402,3.1062,3.1391,3.1511,3.1511,3.1511,3.1511,3.1511,3.1511,3.1511,3.1511,3.2452,3.3724,3.4816,3.531,3.5504,3.5504,3.5504,3.5504,3.5504,3.5504,3.5504,3.5504,3.5504,3.5504,3.5504,3.5504,3.5908,3.7195,3.7404,3.7868,3.9179,3.9388,3.9388,3.9388,3.9388,3.9388,3.9388,3.9388,3.9388,3.9388,3.9388,3.9388,3.9388,3.9388,3.9388,3.9388,3.9388,3.9388,3.9388,3.9388,3.9388,3.9388,3.9388,3.9388,3.9388,3.9388,3.9388,0.0,0.0,0.0,1.5048,0.0,0.0,0.0,1.8297,1.8888,1.9759,1.9944,2.0074,2.0526,2.0942,2.1239,2.1239,2.1959,2.2647,2.3058,2.3771,2.4567,2.5315,2.6041,2.651,2.6508,2.7163,2.76,2.76,2.76,2.76,2.76,2.6904,2.6826,2.7575,2.6188,2.5563,2.596,2.6322,2.6135,2.5398,2.5398,2.5783,2.6481,2.5728,2.6,2.706,2.7433,2.76,2.76,2.76,2.8199,2.9131,2.9472,2.9968,3.0582,3.1256,3.1511,3.1511,3.1511,3.1511,3.1511,3.1511,3.1511,3.1511,3.1511,3.2452,3.3784,3.513,3.5504,3.5504,3.5504,3.5504,3.5504,3.5504,3.5504,3.5504,3.5504,3.5504,3.5504,3.5504,3.5504,3.5908,3.7195,3.7404,3.7868,3.9179,3.9388,3.9388,3.9388,3.9388,3.9388,3.9388,3.9388,3.9388,3.9388,3.9388,3.9388,3.9388,3.9388,3.9388,3.9388,3.9388,3.9388,3.9388,3.9388,3.9388,3.9388,3.9388,3.9388,3.9388,3.9388,3.9388,0.0,0.0,0.0,0.0,0.0,1.6332,0.0,0.0,0.0,1.9911,2.0107,2.0107,2.0107,2.0236,2.0398,2.0558,2.1333,2.1939,2.2094,2.3237,2.4118,2.4292,2.5481,2.6122,2.5646,2.668,2.7382,2.7382,2.7382,2.7382,2.7382,2.6826,2.6774,2.7382,2.5522,2.5147,2.6484,2.5906,2.5837,2.6283,2.5837,2.6242,2.7357,2.6162,2.6349,2.76,2.76,2.76,2.76,2.76,2.8393,2.9606,2.9606,3.0043,3.0776,3.1301,3.1511,3.1511,3.1511,3.1511,3.1511,3.1511,3.1511,3.1525,3.1645,3.2557,3.3739,3.4966,3.54,3.5504,3.5504,3.5504,3.5504,3.5504,3.5504,3.5504,3.5504,3.5504,3.5504,3.5504,3.5504,3.5908,3.7195,3.7404,3.7868,3.9179,3.9388,3.9388,3.9388,3.9388,3.9388,3.9388,3.9388,3.9388,3.9388,3.9388,3.9388,3.9388,3.9388,3.9388,3.9388,3.9388,3.9388,3.9388,3.9388,3.9388,3.9388,3.9388,3.9388,3.9388,3.9388,3.9388,0.0,0.0,0.0,0.0,1.3882,0.0,0.0,0.0,1.7154,1.808,0.0,1.8303,1.8303,0.0,0.0,2.0462,2.1333,2.2156,2.2854,2.3125,2.3514,2.4205,2.5007,2.5755,2.631,2.6537,2.6616,2.6616,2.6616,2.6616,2.6616,2.6537,2.6537,2.6616,2.5755,2.5673,2.6484,2.6431,2.6095,2.5536,2.6095,2.6443,2.6616,2.6457,2.6826,2.76,2.76,2.76,2.76,2.76,2.8393,2.9606,2.9606,3.0328,3.1406,3.1466,3.1511,3.1511,3.1511,3.1511,3.1511,3.1511,3.1511,3.1615,3.2198,3.2916,3.3649,3.4414,3.504,3.5504,3.5504,3.5504,3.5504,3.5504,3.5504,3.5504,3.5504,3.5504,3.5504,3.5504,3.5504,3.5908,3.7195,3.7404,3.7868,3.9179,3.9388,3.9388,3.9388,3.9388,3.9388,3.9388,3.9388,3.9388,3.9388,3.9388,3.9388,3.9388,3.9388,3.9388,3.9388,3.9388,3.9388,3.9388,3.9388,3.9388,3.9388,3.9388,3.9388,3.9388,3.9388,3.9388,0.0,0.0,0.0,0.0,0.0,0.0,1.5473,0.0,1.6853,0.0,0.0,0.0,0.0,0.0,0.0,0.0,2.0236,2.1259,2.1604,2.2494,2.3228,2.3573,2.4279,2.5035,2.5783,2.5481,2.5563,2.6457,2.6095,2.6041,2.6484,2.651,2.651,2.651,2.5783,2.5973,2.7126,2.5864,2.5508,2.6041,2.5933,2.6095,2.651,2.651,2.6904,2.76,2.76,2.76,2.76,2.76,2.8393,2.9606,2.9606,3.0387,3.1511,3.1511,3.1511,3.1511,3.1511,3.1511,3.1511,3.1511,3.1511,3.163,3.2288,3.2976,3.3634,3.4324,3.4966,3.5504,3.5504,3.5504,3.5504,3.5504,3.5504,3.5504,3.5504,3.5504,3.5504,3.5504,3.5504,3.5789,3.6716,3.7165,3.7868,3.9179,3.9388,3.9388,3.9388,3.9388,3.9388,3.9388,3.9388,3.9388,3.9388,3.9388,3.9388,3.9388,3.9388,3.9388,3.9388,3.9388,3.9388,3.9388,3.9388,3.9388,3.9388,3.9388,3.9388,3.9388,3.9388,3.9388,1.1391,0.0,0.0,0.0,0.0,0.0,0.0,0.0,0.0,0.0,0.0,0.0,0.0,0.0,0.0,0.0,0.0,2.0687,2.091,2.2187,2.3108,2.3108,2.3796,2.4509,2.5035,2.4595,2.4823,2.6095,2.5508,2.5425,2.6149,2.6404,2.631,2.5906,2.5563,2.6,2.728,2.5494,2.5231,2.6484,2.596,2.5987,2.651,2.651,2.6904,2.76,2.76,2.76,2.76,2.76,2.8393,2.9606,2.9606,3.0387,3.1511,3.1511,3.1511,3.1511,3.1511,3.1511,3.1511,3.1511,3.1511,3.1585,3.2064,3.2826,3.3589,3.4099,3.4831,3.5504,3.5504,3.5504,3.5504,3.5504,3.5504,3.5504,3.5504,3.5504,3.5504,3.5504,3.5504,3.5714,3.6372,3.7,3.7793,3.896,3.929,3.9388,3.9388,3.9388,3.9388,3.9388,3.9388,3.9388,3.9388,3.9388,3.9388,3.9388,3.9388,3.9388,3.9388,3.9388,3.9388,3.9388,3.9388,3.9388,3.9388,3.9388,3.9388,3.9388,3.9388,3.9388,0.0,1.2268,0.0,1.2305,0.0,0.0,0.0,0.0,1.5517,0.0,0.0,0.0,0.0,0.0,0.0,0.0,0.0,0.0,0.0,2.2567,2.3108,2.3108,2.3796,2.4321,2.4321,2.4321,2.4624,2.537,2.4766,2.4652,2.5398,2.6122,2.5837,2.4436,2.5035,2.5755,2.6537,2.5755,2.5755,2.651,2.6484,2.6484,2.651,2.651,2.6904,2.76,2.76,2.76,2.76,2.76,2.8393,2.9606,2.9606,3.0387,3.1511,3.1511,3.1511,3.1511,3.1511,3.1511,3.1511,3.1511,3.1511,3.1511,3.1525,3.2437,3.3499,3.3529,3.4472,3.5504,3.5504,3.5504,3.5504,3.5504,3.5504,3.5504,3.5504,3.5504,3.5504,3.5504,3.5504,3.5714,3.6372,3.7,3.7644,3.8317,3.899,3.9388,3.9388,3.9388,3.9388,3.9388,3.9388,3.9388,3.9388,3.9388,3.9388,3.9388,3.9388,3.9388,3.9388,3.9388,3.9388,3.9388,3.9388,3.9388,3.9388,3.9388,3.9388,3.9388,3.9388,3.9388,1.1502,1.1774,1.2305,1.2305,1.2305,1.2556,1.3491,0.0,0.0,0.0,0.0,0.0,0.0,0.0,0.0,0.0,0.0,0.0,0.0,2.2249,2.3108,2.3108,2.3335,2.3514,2.3514,2.3514,2.3826,2.4624,2.3943,2.3855,2.4624,2.4894,2.5035,2.5035,2.4794,2.5494,2.7214,2.5522,2.5035,2.5755,2.5755,2.5755,2.5783,2.6283,2.6904,2.76,2.76,2.76,2.76,2.76,2.8393,2.9606,2.9606,3.0387,3.1511,3.1511,3.1511,3.1511,3.1511,3.1511,3.1511,3.1511,3.1511,3.1511,3.1511,3.2123,3.2931,3.338,3.4143,3.4936,3.5385,3.5504,3.5504,3.5504,3.5504,3.5504,3.5504,3.5504,3.5504,3.5504,3.5504,3.5579,3.5804,3.6716,3.7629,3.8287,3.8975,3.9388,3.9388,3.9388,3.9388,3.9388,3.9388,3.9388,3.9388,3.9388,3.9388,3.9388,3.9388,3.9388,3.9388,3.9388,3.9388,3.9388,3.9388,3.9388,3.9388,3.9388,3.9388,3.9388,3.9388,3.9388,1.1502,1.1805,1.2305,1.2305,1.2305,1.2445,1.3062,1.3954,1.495,0.0,0.0,0.0,0.0,0.0,0.0,0.0,0.0,0.0,0.0,2.2249,2.3108,2.3108,2.3108,2.3108,2.3108,2.3108,2.3424,2.4234,2.356,2.3454,2.4263,2.4292,2.4394,2.4582,2.4394,2.4965,2.6414,2.5273,2.4794,2.5007,2.5259,2.5398,2.5425,2.5892,2.6654,2.76,2.76,2.76,2.76,2.76,2.8393,2.9606,2.9606,3.0387,3.1511,3.1511,3.1511,3.1511,3.1511,3.1511,3.1511,3.1511,3.1511,3.1511,3.1511,3.1959,3.2647,3.3305,3.3963,3.4668,3.5325,3.5504,3.5504,3.5504,3.5504,3.5504,3.5504,3.5504,3.5504,3.5504,3.5504,3.5504,3.5504,3.6567,3.7554,3.7973,3.8826,3.9388,3.9388,3.9388,3.9388,3.9388,3.9388,3.9388,3.9388,3.9388,3.9388,3.9388,3.9388,3.9388,3.9388,3.9388,3.9388,3.9388,3.9388,3.9388,3.9388,3.9388,3.9388,3.9388,3.9388,3.9388]}]]